GFSSE_925_spd_000.txt.gz
Wind_Speed
11 12 15 13 11 10 10 8 6 6 5 5 6 7 9 8 6 6 6 5 8 7 8 9 7 10 10 6 5 4 4 8 9 9 11 7 4 3 4 4 3 5 3
14 13 15 13 12 10 10 8 6 4 4 5 6 5 4 5 5 5 4 4 6 6 7 7 9 9 10 8 3 3 5 5 8 11 11 6 2 3 1 2 5 4 5
14 13 15 13 10 10 9 7 4 3 4 5 4 3 3 1 2 4 5 4 4 5 7 8 8 6 7 9 6 4 6 5 10 10 8 4 4 8 7 7 5 6 7
14 10 14 14 10 8 9 6 4 4 3 3 3 1 1 1 2 2 2 1 1 5 6 7 8 6 6 5 6 6 7 7 9 10 5 7 4 6 7 5 5 6 6
13 12 15 11 9 9 9 5 5 4 2 1 2 3 1 1 4 5 1 2 3 5 6 5 5 6 5 5 6 7 8 9 10 9 9 6 6 4 5 5 8 7 8
13 12 15 12 11 11 8 6 4 4 2 1 1 4 1 5 5 5 2 1 4 5 7 5 5 5 5 5 6 6 7 8 9 9 10 9 10 8 10 8 9 10 10
14 11 12 15 14 11 9 7 3 4 2 1 1 2 1 6 3 4 4 1 2 6 7 6 6 6 7 8 7 8 8 9 12 13 11 11 11 10 11 12 12 12 13
12 10 10 16 13 12 9 6 4 5 4 1 1 3 2 3 6 2 4 2 2 5 6 9 8 8 9 8 8 10 11 12 12 12 14 15 14 13 15 16 16 16 16
11 10 9 13 13 11 10 9 7 5 5 3 3 2 6 7 3 3 2 4 5 7 8 10 11 10 10 10 11 13 14 15 16 16 16 17 17 17 18 19 19 19 19
9 11 11 12 10 10 10 11 9 7 6 5 5 4 5 6 5 5 5 7 8 10 12 12 12 12 12 12 14 15 16 16 18 17 15 17 17 19 20 20 21 21 22
10 11 12 12 12 12 9 11 9 8 7 7 7 3 3 2 2 2 5 8 11 12 12 12 12 12 13 15 14 11 15 17 17 15 18 20 20 20 22 23 23 24 25
15 14 13 13 13 11 8 8 5 7 5 4 2 4 2 0 3 6 8 8 8 9 12 10 12 13 13 13 13 14 16 18 18 19 20 23 24 23 23 24 25 27 27
18 17 16 15 13 13 11 8 8 8 5 6 5 4 3 3 2 5 6 8 9 10 12 12 15 15 15 15 19 19 19 20 23 26 26 26 27 26 26 27 28 28 29
14 15 16 15 15 13 11 11 8 7 7 5 5 4 3 3 3 4 6 8 8 8 10 13 13 16 18 18 19 19 21 23 24 26 28 28 28 30 29 29 30 30 31
13 13 13 14 14 13 11 8 7 6 7 5 4 1 2 2 3 4 6 7 9 9 12 13 16 17 19 19 19 20 22 24 25 26 27 27 28 30 31 31 29 30 30
10 13 13 13 14 13 11 9 8 5 4 5 3 1 0 2 3 5 7 9 9 13 13 14 15 16 17 18 20 20 20 21 25 26 26 27 29 30 29 29 29 29 29
8 6 6 10 13 13 12 10 7 6 6 6 5 4 3 3 3 5 8 11 12 11 13 12 15 17 19 21 22 24 23 21 24 27 27 29 31 30 29 29 30 27 28
7 6 5 12 14 14 14 11 10 11 10 9 8 10 10 10 10 11 11 10 13 13 15 15 19 20 21 23 25 24 24 27 26 27 29 32 27 23 23 24 27 27 31
9 10 11 13 16 16 17 15 16 15 17 19 19 16 13 12 15 14 14 12 12 14 15 17 19 20 24 25 23 26 25 25 30 30 24 23 30 29 28 28 27 28 27
14 15 18 19 20 20 19 20 22 22 21 20 18 16 15 15 14 12 13 14 15 15 16 17 19 20 20 24 26 23 26 25 26 23 26 32 29 32 29 26 29 26 31
17 20 21 23 22 22 22 24 22 22 20 19 18 15 15 15 15 16 14 14 15 15 16 16 18 19 19 23 23 25 19 18 22 33 37 31 33 29 33 34 28 34 33
18 20 20 21 22 23 23 23 23 22 18 17 16 15 14 15 15 15 14 13 13 14 14 16 18 18 19 22 17 17 5 16 19 25 22 33 23 34 33 33 39 42 37
20 21 20 22 23 23 25 24 23 21 18 15 13 12 12 14 14 14 13 12 12 12 13 14 16 18 20 21 20 11 4 4 14 9 26 20 33 27 34 33 33 32 40
18 20 21 21 21 21 20 21 20 18 17 13 12 10 8 11 12 12 11 10 10 9 12 14 15 16 17 19 20 15 20 23 8 10 7 30 25 27 30 28 35 29 34
18 21 21 22 22 20 20 20 20 18 15 12 10 9 7 7 7 11 10 10 10 12 13 14 15 16 17 19 19 19 22 20 23 9 15 13 24 25 26 30 29 37 33
18 20 21 22 20 19 19 18 17 16 13 12 10 9 10 8 7 11 10 10 10 12 14 15 16 17 18 19 21 20 22 14 15 14 12 15 17 25 25 29 27 35 30

GFSSE_925_spd_003.txt.gz
Wind_Speed
14 19 17 14 15 12 10 11 7 6 5 6 7 8 9 9 6 5 5 3 5 7 8 6 10 11 10 6 5 2 2 7 11 13 11 5 1 3 2 5 4 1 4
17 20 17 15 15 12 13 10 6 5 5 6 6 6 6 5 5 4 4 5 5 5 7 7 4 6 7 6 2 1 5 9 7 12 8 2 3 2 4 5 4 3 1
16 19 18 17 15 14 13 11 7 6 5 7 7 5 3 4 2 5 4 5 5 4 6 5 4 4 4 4 3 3 6 6 9 10 6 1 4 5 7 6 6 6 4
15 19 20 16 16 12 13 10 7 7 6 5 7 4 3 3 4 2 2 2 2 5 6 5 5 4 3 4 3 6 4 6 8 8 1 3 2 4 9 7 6 6 6
14 20 20 18 14 14 15 9 8 8 6 4 7 6 3 3 4 5 3 1 2 4 6 6 4 3 3 2 5 7 7 7 8 7 4 6 7 5 8 8 8 8 9
17 19 18 15 14 17 13 9 7 7 5 3 4 8 3 1 3 5 7 2 4 4 5 5 3 4 4 4 5 5 7 8 11 11 9 9 9 11 11 12 9 10 11
18 19 16 17 15 15 11 9 6 7 6 4 3 6 4 1 4 2 6 4 6 4 5 5 5 6 7 8 9 8 8 10 10 12 14 13 13 12 12 13 13 14 13
19 18 16 17 16 13 11 9 7 7 5 3 3 4 5 4 2 2 6 5 4 4 6 7 8 9 8 9 9 10 11 13 13 15 16 15 15 16 15 16 16 16 17
14 13 12 18 16 14 12 10 8 8 7 5 3 1 5 7 4 1 3 5 6 6 8 11 11 11 10 10 10 12 15 15 17 18 19 20 18 17 17 18 19 19 19
13 12 11 15 16 15 14 12 11 9 8 7 4 2 2 4 4 3 2 5 7 9 12 13 13 12 12 12 14 15 15 16 18 20 21 18 17 17 18 19 20 20 20
15 13 14 14 14 14 12 12 11 8 8 8 5 1 3 5 2 1 3 5 8 10 9 11 9 11 11 12 11 12 13 17 19 20 21 20 18 18 18 21 22 22 22
20 19 17 17 16 11 13 13 10 8 7 5 3 4 4 2 3 2 5 5 5 8 9 11 12 13 14 15 16 17 18 18 19 21 23 24 24 23 23 24 25 25 24
26 23 22 19 16 13 14 13 7 8 5 5 5 4 2 1 1 2 3 5 8 9 10 12 14 14 17 17 18 20 22 23 23 24 26 27 28 27 25 26 27 28 29
25 25 24 20 19 17 14 13 9 8 8 5 6 5 4 3 3 4 5 5 6 5 7 9 12 16 16 17 18 17 19 20 23 24 24 23 26 27 26 27 29 29 30
25 26 24 22 20 17 17 13 10 9 10 8 8 6 5 3 1 2 3 3 4 6 9 11 11 13 14 16 18 19 21 22 21 23 23 24 25 26 29 29 29 29 29
20 24 24 22 20 18 14 12 11 7 9 9 7 4 2 2 1 3 3 8 10 11 10 9 12 13 15 16 19 20 20 20 19 22 25 27 28 29 30 30 31 30 27
13 19 21 21 20 18 14 12 11 10 10 10 8 6 7 4 2 8 9 11 12 12 9 10 12 13 16 18 19 19 20 23 22 25 26 21 19 20 23 23 23 20 22
11 14 16 22 22 19 16 14 13 12 13 14 14 11 11 15 14 11 9 9 9 9 9 11 14 16 18 19 21 21 19 21 23 19 16 22 22 23 22 23 25 21 17
10 10 14 21 25 22 18 21 21 20 21 20 17 16 15 15 12 10 10 10 10 9 12 14 15 17 18 22 22 21 22 18 19 19 21 24 22 27 26 28 25 26 28
12 14 18 26 27 28 28 27 28 26 23 20 19 17 16 14 12 10 10 11 11 11 13 14 16 16 18 23 20 24 15 11 21 25 30 26 29 27 32 28 32 36 36
17 21 26 31 32 31 31 31 28 26 23 21 19 17 16 14 13 13 12 11 11 12 13 15 17 19 19 25 15 24 12 12 13 31 25 23 30 28 31 32 36 35 33
21 24 27 29 29 29 27 25 28 26 22 21 18 17 15 14 13 13 11 11 10 10 12 14 17 18 13 23 14 11 4 9 16 35 23 29 20 31 26 30 32 30 35
22 25 26 28 30 29 28 28 27 25 22 19 15 15 13 12 12 12 10 10 9 9 11 13 16 18 18 23 23 8 4 3 15 8 31 18 37 22 31 28 30 33 28
22 25 26 29 31 30 29 30 29 26 21 15 13 12 10 10 11 10 9 9 9 10 12 14 15 17 19 22 25 17 16 17 5 7 10 32 19 30 28 29 31 25 36
23 23 24 26 26 28 27 24 23 21 18 16 13 11 8 7 9 9 9 9 10 12 13 14 17 17 18 19 21 23 24 22 21 6 12 9 24 25 28 27 25 34 29
25 26 28 28 25 25 24 22 21 20 18 16 14 13 9 6 7 9 10 10 10 12 14 15 16 17 19 19 21 24 23 14 16 11 12 13 16 23 23 27 29 28 30

GFSSE_925_spd_006.txt.gz
Wind_Speed
15 20 20 18 16 16 13 13 10 8 7 8 8 9 12 10 7 6 5 4 6 7 6 3 7 9 10 5 5 2 3 5 12 13 13 7 4 4 6 9 9 5 6
18 22 19 18 19 15 14 14 10 7 7 8 9 10 9 8 6 5 4 5 5 4 5 3 4 3 4 4 1 3 5 9 9 11 9 3 3 4 6 7 8 7 3
20 23 19 19 17 16 15 14 10 8 8 10 10 8 9 8 5 6 6 5 4 3 4 3 2 4 3 2 2 2 3 6 8 8 7 2 3 7 8 10 8 9 7
20 23 21 20 17 17 16 12 9 8 8 9 10 7 7 9 7 5 4 2 1 3 5 4 1 2 5 5 6 7 8 7 7 7 3 4 5 5 9 10 9 8 8
20 22 22 21 18 17 16 12 9 8 7 7 10 8 8 6 10 9 6 1 4 5 5 5 3 2 3 3 5 8 8 9 12 9 8 8 7 5 8 10 11 11 9
19 23 21 20 18 17 16 12 10 9 7 5 9 9 5 4 5 8 8 3 5 4 5 4 4 4 6 6 7 7 9 9 11 11 13 11 10 10 10 12 12 12 11
20 22 21 20 19 19 15 12 10 10 7 5 6 9 7 3 1 2 9 7 5 3 3 5 5 6 7 8 9 10 10 11 12 13 13 12 13 13 12 13 15 15 14
21 23 22 20 19 19 14 13 10 10 7 6 5 8 7 5 1 1 6 5 4 4 4 6 7 9 9 9 10 10 11 13 15 15 15 15 15 15 15 15 16 16 16
22 24 21 21 20 17 15 13 10 10 9 7 5 5 7 6 5 1 5 5 4 5 6 8 10 10 10 10 11 12 13 14 15 17 17 17 16 14 14 15 16 17 17
23 22 19 21 21 19 17 15 13 13 12 9 7 3 3 5 5 3 3 3 4 7 9 9 9 7 8 9 10 10 11 12 15 17 18 17 16 15 15 16 16 17 18
23 21 19 21 21 20 17 16 14 13 11 10 7 3 4 5 6 4 3 3 4 4 4 5 5 7 8 10 11 12 14 16 17 18 19 19 20 20 17 16 19 20 19
25 25 22 20 22 19 18 17 15 12 11 9 7 8 5 4 2 2 2 3 3 4 5 6 7 9 10 12 12 14 15 17 18 19 20 21 23 23 21 22 24 23 23
30 27 27 24 21 19 19 16 15 12 11 10 8 8 6 4 2 1 1 4 5 6 7 8 8 11 13 13 12 13 15 17 17 18 18 18 20 20 21 23 24 23 24
26 28 26 27 24 21 19 18 16 12 11 9 10 8 8 5 4 2 3 4 4 5 6 8 7 8 8 10 12 13 15 16 16 16 18 18 21 21 20 21 25 26 26
29 31 29 26 27 23 21 20 14 12 12 8 10 10 7 5 3 1 2 3 5 5 6 6 7 9 11 12 14 16 15 15 17 16 18 19 19 17 16 18 18 20 21
23 32 30 27 27 24 22 19 14 12 12 11 10 8 5 4 3 6 6 8 8 8 7 7 9 11 13 15 16 16 17 18 18 19 15 13 15 15 16 18 19 19 20
21 27 31 28 25 24 23 17 15 13 12 12 11 7 7 6 9 8 6 5 7 5 6 8 10 13 14 15 16 17 17 17 17 12 12 16 14 17 19 19 18 22 22
19 23 29 28 26 22 20 18 15 16 15 15 12 10 10 8 9 7 6 5 6 6 9 11 14 14 15 17 18 17 19 13 10 13 17 16 18 19 22 18 21 23 24
15 21 25 26 27 22 21 21 19 18 19 18 16 14 14 12 8 7 7 7 6 8 10 12 13 14 16 19 17 18 16 8 9 20 21 19 24 20 23 23 27 26 26
14 16 20 28 29 27 24 25 25 24 22 19 18 16 14 12 10 8 9 9 8 9 10 12 12 14 14 21 13 22 8 5 7 24 20 27 21 21 25 27 28 29 27
13 18 25 34 31 32 30 31 29 27 23 21 20 18 16 14 12 10 10 9 9 10 10 12 13 15 13 22 11 18 6 12 2 36 15 30 19 30 24 28 28 28 30
17 22 28 33 33 33 32 29 29 27 23 22 20 18 15 13 11 11 9 9 8 9 10 12 14 14 9 19 11 5 4 6 13 30 18 23 20 22 26 28 27 26 29
21 27 32 34 32 31 31 29 29 26 25 22 19 17 14 11 10 9 9 9 9 9 10 11 13 15 13 15 16 10 4 3 13 4 23 16 37 20 31 27 27 26 24
23 27 30 31 31 30 31 33 33 27 25 20 17 16 13 10 9 8 8 8 8 8 9 11 12 15 17 16 13 15 13 12 3 6 9 29 17 27 28 28 26 25 31
27 29 31 32 30 31 31 32 29 26 20 19 17 15 11 8 8 7 7 7 8 9 10 12 14 16 17 16 18 20 21 18 12 5 11 9 25 26 28 27 27 30 30
27 29 32 33 31 29 29 27 25 24 23 21 17 13 9 6 5 6 6 7 7 9 11 14 15 16 17 17 18 19 18 10 13 10 9 11 14 22 20 27 25 28 25

GFSSE_925_spd_009.txt.gz
Wind_Speed
17 21 21 16 16 16 15 14 12 7 6 6 6 9 11 12 11 7 7 6 6 4 2 0 6 8 9 5 5 4 4 4 7 14 14 12 6 4 5 6 9 7 5
17 23 23 20 17 16 14 14 11 8 7 8 7 11 11 9 7 6 6 6 5 3 4 3 3 3 5 4 1 2 3 6 10 12 10 8 4 3 4 5 7 8 4
20 24 22 20 18 15 15 13 11 7 7 9 9 9 8 7 7 6 6 5 2 2 4 4 2 4 3 2 2 2 3 6 8 10 10 4 4 6 6 6 9 7 9
20 23 21 20 20 15 15 12 9 7 9 10 10 9 8 8 6 5 4 3 3 3 5 5 4 3 3 5 5 6 7 8 9 9 9 6 8 7 8 9 9 8 9
21 22 20 20 18 18 16 12 9 8 8 10 9 9 7 8 9 8 4 3 2 3 4 4 3 3 3 4 5 6 7 8 10 11 10 10 10 8 6 8 9 10 10
21 21 20 20 18 17 16 13 11 9 8 8 10 9 8 6 6 10 10 5 4 1 3 3 4 4 5 5 7 8 8 9 9 10 11 11 13 11 10 11 12 11 11
21 21 21 20 19 17 16 13 12 11 8 7 9 9 8 4 2 7 9 6 5 2 2 3 4 5 6 6 7 7 8 9 12 12 12 12 12 12 12 12 13 13 13
20 22 21 19 19 18 18 14 13 11 8 5 7 10 8 7 2 2 7 5 4 3 3 4 6 7 8 8 7 8 9 10 12 13 13 13 13 13 14 14 14 15 15
20 22 22 21 20 21 18 15 12 11 10 7 5 8 9 8 5 2 5 5 4 4 5 7 9 9 8 8 8 8 8 9 11 12 13 14 14 13 12 13 14 15 16
21 23 23 22 22 22 19 17 13 12 11 10 7 5 6 8 7 4 4 3 4 5 7 7 6 6 7 8 9 9 10 11 13 13 14 14 15 15 14 14 14 15 16
22 25 24 23 24 23 20 18 15 15 13 11 8 5 6 7 7 5 2 2 2 4 4 5 6 6 9 12 12 13 14 13 14 14 14 15 15 15 17 17 17 17 18
24 27 26 24 25 23 21 19 17 14 13 12 9 7 5 5 5 3 2 0 2 4 6 7 9 9 9 10 9 8 10 12 13 13 14 14 13 15 16 17 17 18 18
28 27 28 26 25 25 23 20 18 15 13 11 9 10 7 5 4 3 1 2 5 7 8 6 6 6 6 6 7 9 11 11 12 12 11 12 13 13 14 14 16 18 18
25 29 30 28 25 25 23 21 19 15 13 12 11 10 7 5 3 1 1 1 2 3 2 2 3 5 7 9 11 12 12 13 13 13 13 12 11 12 12 12 12 14 15
28 29 32 30 27 25 23 20 18 14 14 11 12 10 7 5 4 4 2 2 4 4 3 4 6 8 11 12 13 14 14 13 13 11 9 10 10 11 14 14 14 16 18
29 31 32 31 30 26 23 20 19 15 14 9 10 10 8 7 6 6 6 3 5 4 5 7 10 12 13 14 15 14 14 14 10 9 11 10 12 13 14 15 16 17 19
26 24 30 30 29 27 23 21 17 16 16 13 13 11 9 6 7 3 4 5 5 6 7 9 11 12 14 15 15 13 15 11 8 11 11 11 13 14 13 17 18 19 18
19 19 25 28 26 27 26 20 17 15 15 14 13 9 7 6 5 3 2 6 7 8 10 12 14 14 15 18 18 15 18 4 7 18 11 15 13 14 14 17 18 19 18
15 19 26 28 28 27 24 21 18 18 17 16 15 13 8 6 8 8 9 9 9 10 11 12 13 14 16 20 18 18 13 1 3 11 12 18 14 17 16 20 20 20 19
11 17 26 27 29 29 26 21 21 19 19 18 17 17 14 12 10 10 11 10 10 10 11 12 12 13 12 21 15 19 7 2 5 8 14 20 15 19 19 23 23 22 22
14 18 27 30 31 32 29 27 25 25 22 21 19 17 16 13 12 11 11 9 10 11 12 13 12 14 13 21 10 16 5 7 10 9 16 22 18 22 21 25 27 25 24
18 20 26 32 35 32 30 28 27 27 22 22 20 18 16 13 11 10 9 10 9 9 10 12 13 12 11 18 10 4 4 7 4 24 14 23 16 29 25 31 27 26 22
20 23 28 33 34 31 30 28 29 25 25 22 20 19 15 11 10 9 9 8 9 9 10 11 13 14 11 13 11 8 3 3 8 5 21 9 27 15 29 29 28 24 20
22 26 29 34 33 30 31 32 33 27 25 22 20 18 14 10 9 7 7 7 8 8 9 10 11 13 12 11 6 12 8 7 3 5 5 25 11 27 25 29 26 21 30
25 28 32 33 31 31 31 33 32 30 23 23 21 18 13 10 7 6 6 6 7 7 8 9 11 12 12 12 11 11 9 13 8 4 10 9 25 24 26 25 21 31 25
26 30 33 33 31 30 30 31 31 31 29 26 21 17 13 9 7 5 5 6 6 6 8 10 11 12 13 13 15 14 12 5 8 6 6 12 15 22 25 32 25 26 26

GFSSE_925_spd_012.txt.gz
Wind_Speed
12 23 20 16 16 16 14 13 10 8 5 4 5 7 9 10 10 8 5 5 4 5 3 2 5 10 7 5 7 4 1 2 5 10 15 11 6 4 3 5 7 7 5
19 23 22 17 17 16 15 13 10 7 5 5 6 9 10 8 8 8 6 5 3 4 5 2 3 5 6 7 4 2 2 3 7 9 11 9 5 4 3 3 3 7 5
21 25 23 19 17 16 15 13 10 7 7 8 8 9 10 6 7 5 5 3 1 4 6 5 1 1 1 2 1 2 3 5 6 7 9 6 5 5 6 4 6 6 6
21 25 24 20 18 16 15 12 9 7 7 8 8 7 8 5 6 4 5 3 2 2 5 5 4 2 1 3 3 4 4 5 7 8 9 7 6 6 5 5 8 6 6
22 24 22 21 19 17 14 11 9 8 8 9 9 8 6 8 8 6 6 3 1 1 4 5 5 4 4 3 3 4 4 4 6 8 7 7 9 7 5 5 6 8 9
22 22 21 20 19 16 14 12 9 8 8 9 8 9 7 8 9 9 9 5 3 0 2 3 4 4 4 4 4 4 5 6 7 7 8 8 8 8 8 8 9 10 10
21 20 20 20 18 17 14 13 10 9 8 7 9 9 8 5 2 6 10 6 4 2 2 3 4 5 5 6 7 7 6 5 8 10 10 9 9 9 9 10 10 11 12
19 19 19 20 18 17 14 13 11 9 7 5 8 9 8 6 2 2 8 7 4 3 3 4 5 6 7 7 7 7 7 8 9 10 10 10 10 10 10 10 12 13 13
17 19 19 19 19 17 17 14 12 9 8 5 4 8 8 6 4 2 4 4 3 2 4 6 7 6 6 6 7 7 9 9 11 11 11 12 12 12 11 12 12 13 14
16 19 19 19 20 19 19 15 12 11 8 8 5 6 7 7 6 3 3 3 1 2 3 4 5 6 6 7 9 10 10 10 13 13 12 12 13 13 13 14 15 14 15
17 20 20 20 20 20 20 17 14 13 11 11 7 5 5 5 6 4 2 2 0 1 3 4 6 7 7 7 8 8 8 8 8 9 10 10 10 11 13 14 14 15 17
20 23 22 22 21 21 21 18 16 15 14 11 9 6 3 5 5 3 2 1 1 2 4 5 6 7 6 6 6 7 8 8 9 9 8 7 8 9 11 13 13 14 14
21 22 25 25 23 22 22 19 18 16 13 12 10 8 6 5 4 4 2 1 3 3 4 3 2 3 5 6 7 8 8 9 9 9 8 8 7 8 7 8 8 9 14
18 21 23 26 24 23 23 20 19 17 14 12 10 10 7 5 4 3 2 1 2 2 1 3 4 6 7 9 9 10 10 11 10 8 7 6 7 10 9 9 11 12 14
20 22 24 27 27 24 24 21 19 17 14 12 12 10 7 6 5 4 3 2 3 4 4 5 6 7 9 10 11 11 11 10 6 5 6 7 8 12 13 13 13 14 14
25 26 26 28 29 26 25 22 20 18 14 12 11 10 8 7 5 5 5 3 3 4 5 7 8 9 11 12 12 10 10 6 6 6 6 7 8 8 15 15 14 15 14
25 26 26 28 30 28 26 22 20 18 16 13 11 11 9 8 9 6 4 5 6 6 7 8 9 10 12 13 12 9 10 5 9 8 8 7 8 8 9 14 16 15 16
18 18 16 23 29 29 27 23 22 18 18 15 13 12 10 10 8 6 5 6 7 8 9 11 13 14 15 16 15 12 11 5 6 9 9 8 11 10 10 14 17 16 17
15 15 15 22 28 29 26 25 22 20 19 17 17 17 15 8 7 7 8 9 8 9 11 12 13 14 16 20 17 15 10 6 2 6 9 9 11 12 11 15 18 18 17
12 12 17 22 28 30 30 25 23 23 22 20 19 17 15 12 12 11 11 9 8 9 12 12 12 15 16 21 15 18 5 4 4 5 10 13 11 13 16 18 23 22 19
12 17 22 27 31 35 32 30 26 24 22 20 18 17 17 16 14 11 10 10 10 12 13 13 13 15 17 22 13 16 4 4 9 7 19 13 12 16 23 22 27 25 23
16 20 25 30 34 34 33 29 30 28 22 22 21 20 18 16 13 11 10 11 11 11 12 14 15 13 12 17 12 4 4 6 5 17 14 12 22 17 27 30 28 30 23
18 23 27 32 33 33 32 29 30 26 26 23 22 21 17 14 12 10 10 10 11 11 13 13 13 14 12 12 11 7 3 2 7 5 13 14 15 20 25 28 31 23 22
23 22 27 32 34 33 33 33 35 28 23 24 24 21 18 13 12 10 10 9 10 10 11 11 11 12 10 10 6 10 5 6 3 5 4 22 7 28 25 30 23 27 29
23 26 28 31 34 34 33 34 34 32 26 28 24 22 17 14 11 10 9 9 9 9 9 9 9 10 10 8 8 7 6 9 6 3 8 7 24 23 27 20 33 21 24
24 27 30 34 34 35 34 35 33 34 32 30 25 22 17 14 11 9 7 7 8 7 7 8 8 9 10 10 9 7 7 4 6 4 4 12 15 18 27 28 18 23 22

GFSSE_925_spd_015.txt.gz
Wind_Speed
17 22 22 16 17 16 14 13 10 8 6 4 5 7 7 10 10 8 5 4 4 7 5 4 4 9 5 5 8 7 3 1 3 7 10 10 5 3 1 4 5 6 6
24 26 23 18 18 16 15 13 10 7 5 4 7 8 8 8 6 8 7 4 4 6 6 3 2 5 8 9 7 5 4 1 3 6 8 7 5 4 2 1 2 4 7
27 26 24 20 19 17 15 13 10 8 5 6 8 9 11 6 3 5 4 2 3 5 6 4 3 1 1 1 2 2 1 2 4 5 6 5 4 4 4 2 4 6 5
26 27 23 21 19 17 14 12 10 7 7 7 8 10 9 8 5 5 4 4 4 4 6 5 5 3 0 1 1 2 2 2 4 6 4 5 5 4 4 3 4 5 4
24 26 23 20 18 17 15 12 9 8 9 9 9 8 7 6 7 6 5 3 1 4 5 6 6 6 5 3 3 3 4 3 4 5 5 4 6 6 4 5 6 8 7
23 23 22 18 19 18 14 12 9 9 9 10 8 10 7 7 7 7 6 4 2 2 4 5 6 6 5 5 4 4 5 5 7 6 7 7 7 7 7 8 8 7 10
21 21 19 19 18 15 14 12 10 9 8 9 9 9 6 4 1 6 7 6 3 1 3 4 5 6 6 6 5 5 4 5 6 7 7 7 8 8 8 9 10 11 12
20 20 19 18 18 16 13 12 10 9 7 6 9 8 6 4 1 3 9 7 3 1 3 4 5 5 5 5 4 4 4 5 6 7 8 8 8 8 10 10 10 12 14
17 18 18 18 17 16 13 13 10 9 7 4 5 8 7 5 2 3 5 5 2 1 2 4 4 4 4 5 6 5 6 6 8 10 10 9 9 9 11 12 14 15 16
15 17 18 19 18 17 15 14 11 10 9 7 4 6 7 7 5 3 4 3 2 0 1 3 4 4 5 6 6 6 7 7 6 8 9 8 8 9 10 10 12 13 15
13 17 18 19 19 18 17 15 12 12 9 8 6 5 5 5 6 5 4 3 2 1 1 3 5 5 4 4 5 6 6 7 6 7 8 8 7 9 10 11 11 12 12
15 17 20 20 20 20 19 17 15 14 12 11 8 5 3 5 6 5 4 3 1 0 2 3 3 3 4 5 5 6 7 6 6 6 6 7 7 7 8 9 9 9 10
17 17 21 21 22 21 21 20 17 16 14 12 9 7 5 5 6 6 4 2 1 0 1 1 2 4 5 6 6 6 6 6 7 5 4 4 6 7 6 7 9 11 12
16 19 19 23 23 22 22 22 20 18 15 13 11 9 8 6 6 6 4 3 2 1 2 2 3 5 6 7 7 7 8 7 4 2 3 2 7 9 10 10 11 12 11
17 18 22 23 25 24 24 23 21 20 16 13 12 12 9 7 6 6 7 5 4 3 3 3 4 6 7 8 8 7 7 4 2 3 5 5 9 12 12 11 12 11 12
21 21 21 24 26 26 25 25 22 20 17 15 14 13 10 9 9 10 9 6 4 3 3 4 5 7 8 8 7 6 6 3 3 4 5 5 5 6 13 13 12 12 13
23 18 20 25 27 28 27 26 23 22 19 18 16 15 13 12 12 11 9 6 4 3 4 5 5 7 8 9 8 6 5 4 6 6 6 5 5 5 7 12 13 13 14
22 22 19 21 27 28 28 27 24 24 21 18 17 17 15 14 12 11 9 7 6 5 6 7 9 9 11 13 10 8 5 6 6 7 6 7 7 7 8 10 12 14 15
22 22 18 19 23 27 28 28 26 23 21 21 21 19 18 15 13 11 10 10 8 7 7 8 10 11 14 15 11 10 6 8 5 5 7 8 8 9 10 12 16 17 18
22 19 17 20 22 27 32 28 26 24 24 24 23 23 21 18 14 13 12 10 7 7 9 9 10 10 14 16 13 12 4 7 7 2 5 12 6 9 12 16 20 20 22
17 17 18 22 27 34 36 34 29 28 25 24 24 23 21 20 17 14 12 10 8 9 10 9 7 10 15 19 12 9 4 1 5 8 9 13 7 13 15 17 22 21 19
20 17 19 21 29 33 36 29 33 33 26 27 24 24 22 21 18 15 12 10 9 10 9 10 11 9 10 16 7 2 4 3 3 9 10 5 13 13 17 26 24 23 20
20 21 22 25 29 30 35 34 34 28 29 25 25 25 22 20 18 15 12 10 9 9 10 10 11 11 8 10 13 6 2 2 8 6 9 9 12 12 21 20 20 21 22
25 22 21 27 32 35 36 37 40 31 25 22 31 26 23 19 17 14 12 10 9 9 9 9 9 10 9 8 5 8 2 3 3 5 4 11 6 20 18 19 22 20 20
26 26 26 29 32 36 39 39 37 27 23 33 29 27 23 19 16 14 11 10 9 8 8 8 8 8 8 6 5 3 3 5 5 5 9 10 21 20 20 18 20 18 18
25 26 29 30 31 37 37 36 38 37 33 35 30 27 23 20 17 13 11 8 8 7 6 6 6 7 7 6 4 3 2 3 6 7 6 16 18 17 25 18 15 16 18

GFSSE_925_spd_018.txt.gz
Wind_Speed
11 19 23 18 18 18 15 13 11 9 6 5 5 7 8 10 9 8 6 5 7 7 5 3 7 7 4 3 7 6 3 1 3 6 8 10 5 4 2 2 5 5 7
19 19 23 18 18 18 16 13 10 8 6 5 7 8 8 9 8 8 6 4 5 6 6 2 3 6 9 8 7 5 3 2 4 6 7 7 6 4 3 1 2 3 6
20 20 20 19 19 17 15 13 10 8 6 8 8 9 10 8 8 7 2 3 5 6 6 5 3 3 3 3 3 1 2 3 6 7 6 3 3 5 3 3 4 4 4
19 19 19 20 19 16 15 12 10 9 8 10 9 12 9 6 5 4 5 5 4 5 6 6 5 4 3 2 3 3 3 3 5 7 5 4 4 7 5 6 6 8 6
19 19 18 19 19 16 14 12 10 9 9 10 11 11 6 7 6 5 4 3 2 5 6 7 7 6 5 4 4 4 4 5 7 5 5 5 6 6 7 8 7 7 10
18 17 17 21 18 17 13 12 10 9 10 11 12 12 9 5 4 4 5 5 2 2 4 5 5 5 5 5 4 4 3 3 5 5 6 6 5 8 7 9 10 10 8
17 17 17 18 19 17 14 13 11 11 10 10 12 12 6 4 3 6 9 7 3 0 3 4 4 4 4 4 4 4 4 4 5 5 6 6 6 9 8 9 10 11 12
16 16 15 16 17 16 13 13 11 10 10 10 10 9 5 3 1 4 9 7 3 1 2 3 4 4 4 4 4 4 4 4 6 7 8 8 9 10 10 9 10 13 14
14 14 14 16 14 14 13 12 11 10 9 7 10 9 6 4 0 5 7 5 2 0 2 3 3 3 3 3 4 5 6 7 6 8 9 8 10 10 11 12 12 13 15
15 14 14 15 15 14 12 13 11 10 10 6 7 9 8 6 3 4 4 4 3 1 1 2 2 3 4 4 5 6 5 6 5 6 6 7 9 9 9 10 11 12 14
15 15 15 15 15 15 13 14 11 12 10 7 6 7 5 5 4 4 5 4 3 2 0 2 3 3 3 4 4 5 6 5 5 5 5 8 8 8 8 9 9 7 10
15 17 17 17 16 15 14 14 13 12 11 10 8 6 5 6 6 6 5 4 3 1 2 3 3 3 4 4 5 7 5 6 5 6 5 7 7 7 6 5 7 9 10
14 16 18 18 17 17 15 15 14 14 12 11 10 8 7 7 7 6 4 3 2 2 2 2 3 3 4 5 6 6 6 6 6 5 6 4 4 4 5 8 9 10 11
12 15 17 19 19 20 16 17 16 15 15 13 12 11 9 8 8 7 5 4 4 2 2 2 2 4 5 5 6 6 7 6 5 4 5 3 7 8 8 9 9 10 11
14 15 17 19 20 21 20 19 17 16 16 14 13 12 12 10 9 8 7 5 4 3 2 2 3 4 5 5 6 6 6 5 3 1 1 4 6 9 10 10 10 11 11
16 16 16 19 21 21 23 20 19 18 16 15 13 14 12 10 10 11 9 8 4 2 2 2 3 4 5 5 5 5 4 3 1 1 2 2 2 5 9 10 10 11 12
16 15 17 19 20 20 22 21 21 20 18 16 14 14 13 12 11 12 11 9 5 3 3 3 3 4 5 5 5 4 3 1 1 2 2 2 2 3 4 7 10 11 12
15 15 13 15 20 22 22 23 22 20 19 17 16 15 16 16 15 14 12 9 6 4 3 3 3 4 5 6 6 5 4 4 4 3 2 2 2 2 6 8 11 13 14
17 16 14 13 17 21 22 22 21 21 20 19 20 20 20 19 17 15 12 9 6 5 4 3 4 5 7 8 6 7 7 7 6 4 2 1 3 4 5 10 15 16 17
18 17 16 13 15 19 21 21 19 19 20 23 23 23 23 21 20 16 12 10 7 6 5 5 4 6 8 10 8 7 1 5 6 5 3 3 3 4 6 9 13 13 15
15 15 16 16 17 22 24 23 21 22 21 25 24 25 25 23 20 16 14 11 8 7 7 5 4 6 8 12 7 3 3 3 6 7 6 9 5 6 8 10 14 14 14
18 17 17 19 21 24 24 23 17 24 18 26 27 26 25 23 20 16 14 11 10 9 8 7 6 3 5 10 6 4 3 3 0 5 10 2 8 7 10 16 15 15 17
19 18 19 21 23 24 23 22 21 19 24 22 25 25 24 22 18 16 14 12 10 8 7 6 6 6 4 5 7 5 2 2 10 3 4 10 6 12 16 16 16 18 16
22 19 20 22 25 26 25 27 28 25 25 21 31 27 25 20 16 16 14 12 10 9 7 6 5 5 4 4 2 4 3 4 3 5 4 9 10 15 19 18 17 22 17
24 22 23 25 26 27 29 28 28 23 20 26 32 29 25 18 15 15 13 12 10 8 7 6 4 4 3 3 3 5 4 6 7 6 9 9 19 18 18 14 22 14 17
22 23 25 27 28 27 31 32 31 32 33 30 27 26 21 17 14 13 13 11 9 8 7 5 4 3 1 2 3 4 5 5 8 9 9 15 18 21 17 22 13 18 18

GFSSE_925_spd_021.txt.gz
Wind_Speed
14 20 21 17 17 15 13 11 9 7 7 7 7 7 9 10 9 8 7 8 9 9 7 7 9 10 4 1 9 8 5 4 5 7 10 10 8 7 6 4 2 5 3
20 21 22 19 18 15 14 12 10 7 5 5 7 9 9 10 10 8 7 7 8 8 8 7 8 8 11 11 10 8 6 5 6 9 8 7 7 7 6 5 2 5 6
19 21 21 20 20 17 15 12 9 6 5 7 8 9 11 10 9 8 5 7 8 9 9 8 8 7 6 7 6 5 5 5 7 8 7 5 4 8 6 5 6 4 5
18 20 19 20 18 16 14 11 9 7 8 8 10 11 10 9 7 7 7 7 7 9 10 9 9 8 7 5 6 6 5 6 7 6 7 5 5 6 6 6 6 6 7
17 17 19 20 18 15 13 10 9 8 8 9 12 9 10 9 9 6 5 5 5 8 8 9 8 8 7 6 5 5 6 6 7 6 6 5 6 6 8 6 6 7 7
16 16 17 18 18 15 13 10 9 9 9 12 12 7 7 5 3 3 3 1 2 5 6 6 6 6 6 6 5 4 3 3 5 5 6 6 5 8 9 9 8 8 9
16 15 15 18 18 15 12 11 9 9 10 10 12 9 5 5 3 4 6 4 1 3 4 5 5 4 4 4 4 4 4 4 6 5 6 7 7 11 9 9 9 11 10
17 15 15 18 17 14 11 11 10 10 10 10 11 8 4 3 0 2 9 7 3 2 3 3 4 4 4 4 4 4 6 7 7 7 7 8 10 11 10 11 12 11 12
16 15 16 16 17 14 11 11 10 10 9 12 12 9 6 3 3 8 10 7 5 2 2 3 3 2 3 4 5 6 7 8 6 8 7 5 8 10 9 10 10 11 11
14 15 16 18 17 16 14 13 11 11 9 9 12 12 9 5 3 6 5 6 4 2 2 1 3 3 4 4 5 5 6 6 7 7 7 6 11 9 9 9 10 9 10
13 15 16 18 18 17 16 15 13 13 11 9 9 11 9 6 5 5 7 4 4 2 0 2 4 4 4 6 7 8 7 6 7 6 6 9 9 9 8 6 6 9 9
14 17 17 18 19 19 17 17 15 12 13 11 9 9 8 8 8 8 5 5 3 1 1 2 3 5 6 4 6 8 6 7 6 7 6 9 7 7 5 9 9 9 11
15 17 18 18 19 19 19 19 16 16 14 13 11 9 8 9 9 7 5 4 2 4 2 3 4 3 4 5 5 6 7 7 6 5 5 6 6 4 7 9 9 11 11
15 17 17 18 18 18 18 18 18 17 15 14 12 11 9 10 10 9 8 6 5 3 2 2 2 4 5 6 6 7 7 7 5 3 4 2 8 8 8 8 10 11 12
16 16 17 19 19 18 19 17 18 17 15 15 14 14 12 11 11 10 7 7 5 4 2 2 2 3 5 7 7 7 7 6 4 2 2 2 3 7 9 9 10 10 11
15 16 17 19 20 19 21 18 18 17 16 17 17 14 14 12 11 9 9 7 6 4 3 2 3 4 5 7 7 7 6 5 3 1 1 2 1 1 3 8 9 10 11
18 18 19 20 20 21 21 20 19 18 18 18 18 15 15 12 11 11 10 9 6 5 3 2 2 4 5 6 7 6 5 3 2 2 2 1 4 5 5 6 7 9 11
19 17 19 18 20 21 20 21 20 19 18 19 17 17 16 13 14 14 13 11 7 5 4 3 3 3 5 6 7 5 5 4 3 2 2 1 2 2 8 10 11 13 14
25 21 19 20 21 23 22 22 20 19 18 20 19 18 16 18 17 16 15 11 7 6 4 3 3 4 5 6 7 6 6 5 5 4 3 2 4 4 5 8 14 13 16
30 24 22 22 21 21 22 21 21 19 19 19 15 16 21 20 18 17 14 10 8 7 5 4 4 4 6 8 7 6 3 2 4 5 5 5 6 5 6 9 11 11 13
31 31 27 25 23 23 24 24 23 22 19 16 16 22 23 22 20 17 14 11 9 8 6 4 4 5 6 10 6 6 4 3 5 7 7 7 8 6 7 9 12 13 12
28 28 28 26 25 25 24 23 24 22 16 21 21 25 24 24 22 17 14 13 11 10 7 5 5 3 4 9 6 6 2 4 3 3 7 8 8 8 9 12 14 15 15
31 29 28 26 26 25 24 26 23 23 24 20 22 24 26 26 23 18 14 13 12 9 7 6 5 5 3 4 6 4 2 2 9 3 4 6 9 10 12 15 15 15 17
30 26 25 25 25 25 26 29 31 28 24 18 26 26 28 26 22 17 14 14 11 9 8 6 4 4 3 3 0 3 2 4 2 4 3 10 14 11 18 18 18 18 20
27 27 23 24 23 26 28 27 27 23 19 24 22 30 29 24 20 16 13 14 12 9 8 6 5 3 3 2 2 3 3 5 8 6 8 8 17 17 19 19 15 20 15
26 22 24 25 25 27 27 26 28 28 28 28 27 29 28 25 19 15 14 13 11 10 8 6 4 3 1 1 2 3 4 4 8 8 7 12 16 19 18 20 19 16 17

GFSSE_925_spd_024.txt.gz
Wind_Speed
20 26 20 20 17 16 14 13 11 10 9 9 8 10 12 11 11 11 12 11 11 10 9 10 12 13 9 11 12 10 9 7 7 8 8 9 11 10 8 7 4 6 3
25 27 21 21 19 16 14 13 11 9 7 8 9 10 11 12 10 11 11 11 11 11 11 10 11 13 14 14 13 10 8 6 7 9 7 4 5 10 7 6 3 4 7
25 25 22 21 19 17 14 12 10 8 8 10 10 9 12 13 11 10 11 11 12 12 12 11 11 11 11 10 8 7 6 6 7 7 8 8 2 6 7 6 6 5 5
27 24 22 21 19 17 14 11 9 9 12 12 12 13 12 12 11 12 11 11 12 13 13 12 11 9 8 6 6 6 7 8 8 9 12 5 6 6 8 5 4 5 5
25 23 22 23 18 16 14 12 10 9 11 14 14 12 11 10 11 10 9 9 10 11 11 11 10 10 9 8 6 5 6 5 5 8 8 6 5 6 9 6 5 4 4
23 25 22 21 17 15 13 12 10 10 12 15 13 13 11 10 7 6 6 5 7 8 9 8 8 8 7 7 5 4 3 4 5 6 4 5 3 7 9 7 6 7 6
23 24 22 21 19 15 13 12 11 11 13 14 11 11 10 7 5 4 5 3 5 6 7 7 7 7 7 7 5 5 5 6 7 7 5 6 6 9 9 8 9 8 7
21 21 22 20 19 16 13 12 11 12 13 14 12 10 8 6 3 4 8 6 5 5 5 6 6 6 6 4 4 5 6 6 4 7 5 3 5 7 9 8 9 10 10
21 22 22 22 19 17 14 13 11 11 13 14 14 10 7 5 6 11 11 8 6 4 4 5 5 4 3 4 5 6 7 8 9 9 5 4 8 9 8 7 9 9 10
20 22 22 21 21 19 16 15 14 12 12 14 14 11 8 5 7 9 10 8 6 4 4 4 4 4 4 6 7 8 7 7 9 6 5 6 8 9 8 7 8 9 10
18 19 24 23 22 19 17 17 15 16 13 13 15 13 9 7 7 8 10 7 6 5 4 3 4 5 5 6 8 10 8 7 5 6 6 7 7 8 7 9 10 12 11
19 19 21 25 23 21 19 17 17 17 17 14 12 13 11 10 10 12 9 7 6 5 3 3 5 7 5 5 6 7 5 5 5 5 4 7 6 7 10 11 12 12 11
20 19 19 22 24 24 22 19 19 17 17 15 13 10 10 15 13 11 7 9 6 6 6 5 6 2 3 5 5 4 7 6 5 5 4 5 9 8 9 10 10 11 11
24 23 22 21 22 30 24 20 21 21 20 19 20 14 14 13 12 13 9 10 9 6 6 5 2 3 3 3 5 6 5 5 3 4 3 3 9 9 8 9 10 10 10
19 25 24 23 23 24 23 21 20 21 25 18 20 16 14 15 13 13 15 13 9 7 7 4 2 1 2 5 4 5 5 4 2 4 2 1 4 6 8 9 9 9 10
14 21 25 25 25 24 23 23 22 21 19 22 17 16 15 15 14 16 15 11 9 8 6 4 2 1 2 4 5 4 4 3 1 1 3 3 1 1 3 5 8 9 10
20 18 24 26 27 27 27 23 21 21 21 20 20 18 17 16 16 15 13 13 10 8 5 4 1 1 2 3 3 4 4 2 1 2 1 4 4 5 6 7 8 9 10
21 26 27 30 29 28 28 26 25 23 21 23 21 19 18 18 19 17 15 14 10 8 6 3 3 3 3 4 4 3 4 3 3 2 4 3 2 3 6 9 12 11 11
29 24 23 30 34 32 30 29 27 25 23 25 22 23 20 19 18 17 18 17 12 8 6 4 4 3 3 5 4 4 5 6 5 4 3 2 5 6 6 7 11 11 12
32 26 28 23 29 28 33 30 23 25 24 23 23 28 29 26 22 20 20 16 12 10 8 6 5 5 6 7 4 4 3 2 5 4 4 2 6 8 8 8 8 11 13
23 29 25 29 32 31 26 30 27 28 26 24 27 29 30 27 24 22 20 17 13 12 10 6 5 4 7 10 4 4 5 3 5 5 6 5 4 6 4 6 10 16 15
27 25 30 30 34 36 32 28 27 32 29 32 29 26 25 26 27 25 22 19 16 15 12 8 6 5 6 10 5 2 3 1 2 4 5 3 5 6 6 8 16 18 14
29 32 28 27 25 36 31 28 30 30 29 26 26 26 26 27 28 26 21 20 17 15 13 9 7 7 4 5 7 4 2 1 5 2 2 1 6 8 10 16 15 15 18
27 32 35 27 31 31 32 38 41 30 25 23 31 30 27 30 27 26 22 21 18 15 13 10 7 7 5 4 3 4 2 1 1 4 2 8 13 11 16 14 21 22 21
26 22 35 35 28 31 36 41 37 27 22 29 29 30 31 29 27 25 23 21 18 16 13 10 8 6 6 5 2 1 1 3 7 5 4 4 20 21 20 20 18 19 24
21 30 20 34 27 31 32 37 34 32 31 34 34 32 31 31 27 23 22 21 18 16 13 10 8 6 4 3 2 0 1 1 3 3 2 6 13 17 18 23 21 21 22

GFSSE_925_spd_027.txt.gz
Wind_Speed
25 26 22 21 20 19 17 15 14 14 13 12 13 15 15 15 15 14 13 12 11 11 11 12 13 12 12 16 13 11 8 7 8 8 7 9 10 9 8 7 8 9 4
30 26 25 23 21 19 17 16 14 13 13 12 13 14 15 15 14 13 13 12 12 12 11 11 13 14 16 14 12 9 7 7 7 9 7 5 7 7 7 6 4 6 5
31 26 26 24 23 21 18 15 13 11 12 14 14 14 16 16 14 13 14 13 13 13 12 11 12 12 12 11 9 7 6 8 10 9 7 6 6 5 6 5 5 4 3
31 28 27 23 22 21 19 16 13 14 14 14 13 16 17 15 15 15 14 14 14 13 13 11 11 9 8 7 7 7 8 11 10 9 8 8 6 6 6 4 3 1 4
30 28 27 24 21 19 18 17 16 17 17 18 16 16 16 14 14 14 13 13 13 13 12 12 11 10 9 8 7 7 8 8 7 6 6 5 3 6 7 7 5 3 1
28 27 27 24 21 19 18 16 16 18 19 18 19 18 17 15 13 12 11 10 11 11 11 10 9 9 9 8 7 6 7 5 6 6 5 4 5 4 7 5 5 4 3
31 27 28 24 20 18 18 16 16 19 20 18 17 16 14 13 12 11 8 8 9 9 9 9 8 9 9 8 7 6 5 5 3 5 2 1 2 5 6 5 8 8 9
32 29 28 24 21 19 18 17 16 18 20 18 17 17 13 11 10 11 11 9 9 8 8 9 9 9 7 5 5 5 5 4 5 7 4 5 2 3 4 5 7 7 8
32 30 27 25 21 19 18 17 17 18 20 19 17 15 12 8 8 15 13 10 9 8 8 8 7 6 5 5 5 6 6 6 6 5 5 5 5 6 5 6 7 9 11
28 26 27 26 24 22 19 17 17 18 20 21 17 14 12 10 11 15 14 11 8 8 8 7 6 6 6 8 8 6 5 7 6 4 4 6 7 6 5 9 8 11 11
27 25 27 27 25 23 20 18 17 17 18 20 19 15 13 12 12 13 11 9 8 8 7 6 6 7 5 6 6 3 3 5 5 2 3 5 7 10 10 10 11 11 10
27 27 27 28 27 23 21 20 18 17 17 19 19 17 15 13 13 12 11 9 8 8 6 6 7 6 5 4 3 3 3 3 3 3 3 5 8 10 10 10 11 11 10
27 26 30 29 27 26 24 22 20 20 18 16 16 16 16 16 16 13 11 11 9 7 9 8 7 3 2 3 2 2 4 3 2 3 4 5 10 8 10 11 11 11 10
30 30 28 31 30 30 27 25 22 22 21 19 16 14 17 15 19 17 11 13 11 9 7 8 6 3 3 1 1 2 2 3 1 3 4 4 10 10 9 10 10 10 10
31 33 32 30 33 34 30 27 24 22 23 22 22 20 18 20 16 17 14 15 13 11 10 8 6 4 2 0 1 2 1 3 1 3 4 3 6 8 9 9 9 9 10
30 35 35 34 33 33 34 29 25 24 24 24 24 26 23 17 17 20 19 20 16 14 11 8 5 3 1 1 2 2 1 3 1 2 4 3 3 3 5 7 8 9 9
19 30 38 36 35 34 34 26 25 24 24 28 28 25 22 18 20 21 24 19 15 13 10 8 6 3 2 0 1 1 1 2 2 4 5 5 4 4 5 5 7 9 9
24 19 38 39 38 34 32 30 29 27 29 26 26 24 23 24 25 27 23 18 16 13 9 7 5 4 1 1 0 2 1 2 4 5 4 4 1 1 3 5 7 8 9
35 28 30 41 42 40 39 35 32 29 27 29 30 27 27 26 26 24 20 19 17 14 10 7 6 4 1 1 0 1 2 4 7 6 5 3 3 4 5 5 7 8 10
36 36 29 36 42 43 41 38 32 31 30 30 32 30 29 28 24 22 21 20 19 16 12 9 7 5 3 4 1 2 2 4 8 7 6 3 3 4 5 5 7 10 14
34 36 32 26 39 40 35 31 33 32 34 31 32 32 31 31 27 26 26 24 19 17 14 11 9 6 5 4 2 3 5 4 4 4 6 6 4 2 2 4 8 14 17
23 24 21 20 35 42 39 39 31 36 32 34 34 32 32 32 30 28 29 26 22 20 17 14 11 8 4 7 3 2 2 1 1 4 5 5 2 1 4 6 11 12 15
26 27 31 27 22 37 41 36 29 34 30 29 33 36 35 33 29 30 31 29 25 21 19 15 12 9 7 5 7 3 2 2 3 1 3 6 2 3 4 8 11 16 16
27 23 32 34 30 32 37 41 41 33 27 28 40 39 36 31 31 32 30 27 26 23 21 17 13 10 8 7 5 5 4 2 2 3 2 4 5 6 14 18 18 15 16
25 26 26 33 36 29 38 41 42 32 30 33 36 34 34 32 31 33 30 27 26 24 21 18 15 12 10 9 6 4 2 2 2 2 3 4 11 20 20 14 22 19 15
12 13 17 22 33 33 39 42 41 40 38 33 33 34 33 35 33 31 29 28 25 24 22 18 16 12 10 8 7 5 4 3 2 2 2 4 9 12 16 19 16 12 16

GFSSE_925_spd_030.txt.gz
Wind_Speed
24 25 22 21 21 20 20 19 18 17 17 17 17 16 15 14 13 11 10 10 10 11 12 10 9 10 13 14 11 8 7 7 6 7 9 10 10 9 8 8 9 7 2
31 27 23 23 21 21 19 18 18 16 15 15 16 16 15 14 12 11 11 11 11 11 12 13 14 17 16 13 10 8 6 6 9 9 7 7 9 7 6 5 4 6 5
32 27 24 24 22 21 20 18 18 17 16 15 15 15 15 14 12 12 12 11 12 12 11 11 12 12 11 10 8 6 6 11 9 7 7 6 7 5 4 5 5 3 3
31 29 26 24 23 21 19 17 16 16 17 17 17 18 17 14 13 13 13 12 12 12 11 10 10 9 8 7 6 8 11 11 9 7 6 6 7 6 5 4 2 1 3
31 30 27 25 23 21 18 16 17 17 18 17 19 20 17 16 14 13 13 12 12 12 11 10 9 8 8 8 8 10 10 9 5 5 5 6 5 5 6 4 4 3 1
32 31 27 25 22 20 18 17 19 19 19 18 21 20 17 16 14 13 12 11 11 11 10 10 10 10 9 8 7 8 7 4 3 3 7 5 4 4 5 4 5 3 2
32 30 28 25 22 20 18 19 20 20 20 18 17 17 18 15 14 12 10 10 10 9 8 9 9 10 10 9 8 6 5 3 3 5 7 2 1 5 6 5 6 6 5
33 31 30 25 22 20 18 18 21 24 22 21 21 19 16 15 13 12 9 9 9 9 8 8 9 9 8 7 6 5 5 4 5 6 6 6 2 3 4 5 6 8 11
30 32 30 26 23 21 19 18 21 24 22 21 21 19 17 15 14 14 12 10 9 8 9 9 8 7 6 6 7 6 4 4 4 6 5 5 4 4 5 5 8 10 10
30 31 31 28 25 22 20 19 20 24 23 21 22 19 14 12 14 16 14 11 9 9 8 8 6 6 7 8 6 7 4 6 7 6 5 6 5 5 8 8 10 11 6
29 31 31 30 27 24 21 20 20 22 24 22 20 17 15 13 16 18 16 12 10 9 8 7 6 7 7 7 4 6 3 3 4 3 5 7 8 10 10 11 11 11 10
23 25 30 30 29 25 23 22 21 21 23 24 22 19 17 15 16 16 14 12 10 10 8 7 7 6 4 4 3 3 1 0 3 5 6 8 11 11 7 7 10 10 10
32 29 30 31 30 28 26 24 23 22 23 24 24 21 18 17 17 16 15 13 12 11 10 9 7 5 3 3 3 2 2 2 4 6 8 8 10 7 6 9 9 10 9
32 33 32 32 32 31 29 28 26 25 24 24 24 23 22 20 19 18 16 14 13 12 11 9 8 5 4 2 1 1 1 3 5 7 8 8 11 10 8 9 9 9 8
31 34 35 35 34 34 32 30 29 27 26 24 22 22 23 23 22 22 18 16 16 15 12 12 9 7 5 2 2 1 1 3 7 8 7 7 10 10 9 8 8 8 7
30 33 35 38 37 37 37 34 33 30 27 27 26 25 25 23 23 25 20 19 18 16 14 12 9 7 5 3 3 4 2 3 6 8 8 7 7 7 7 7 7 6 7
18 34 37 38 40 40 39 37 36 33 28 28 28 28 26 24 25 24 23 21 18 18 17 12 9 7 4 3 3 4 4 4 6 9 8 7 6 6 6 6 6 6 7
23 18 33 38 41 43 41 40 38 34 32 28 28 31 30 29 26 24 24 25 23 20 16 12 9 7 5 4 4 5 5 4 6 9 8 4 3 2 1 1 3 4 7
31 29 22 34 39 44 43 40 41 36 31 30 30 32 33 34 28 25 27 27 24 20 15 12 11 8 5 4 4 4 5 5 8 9 8 5 2 1 0 2 4 6 8
36 34 29 26 37 44 39 39 40 36 34 31 32 33 33 34 30 29 31 27 23 19 16 14 11 9 5 3 6 5 4 5 9 8 8 6 4 3 2 3 5 7 11
34 35 34 30 37 38 32 33 34 37 37 35 36 36 35 32 32 34 32 28 24 21 19 16 14 9 5 5 8 6 5 6 7 7 8 8 7 5 3 2 4 9 11
21 22 30 33 31 42 35 41 29 38 39 40 37 37 37 34 36 36 33 31 27 24 20 18 16 11 5 5 4 4 1 2 5 7 7 7 8 6 4 1 5 8 11
24 25 23 22 23 35 37 32 32 29 28 34 36 38 38 39 38 36 33 31 30 28 26 22 18 14 9 5 4 3 2 3 0 2 6 7 6 6 2 5 10 11 10
27 23 21 22 23 26 38 37 38 34 22 34 44 41 39 39 39 38 36 35 32 29 27 25 21 17 13 10 6 4 4 4 3 1 4 7 5 4 8 14 11 16 12
23 25 22 22 23 25 34 43 41 32 33 34 39 41 40 40 39 38 37 34 30 28 25 23 21 18 13 13 8 6 3 3 3 3 2 3 6 10 16 9 15 11 9
5 3 1 6 17 22 26 38 43 31 36 32 36 38 39 37 36 36 36 33 31 29 27 23 20 18 15 12 10 7 6 3 3 3 1 3 6 9 10 16 13 5 12

GFSSE_925_spd_033.txt.gz
Wind_Speed
18 24 21 19 19 18 19 19 18 18 16 16 16 14 13 11 9 7 7 8 8 9 8 7 10 12 12 11 10 7 6 6 7 8 9 10 10 9 8 8 9 5 4
27 25 22 20 19 19 19 19 18 18 18 18 16 13 12 11 10 9 9 9 9 10 10 9 11 11 13 11 9 7 6 8 9 8 8 9 10 8 7 5 7 7 6
32 26 23 22 20 19 19 18 18 18 17 17 17 13 13 12 11 10 10 11 11 10 10 11 13 13 11 9 7 5 7 10 8 9 8 8 9 7 6 6 5 4 3
31 27 25 23 22 19 17 17 17 17 17 16 16 16 14 12 11 11 11 11 11 10 9 9 9 9 8 6 6 9 10 9 7 7 8 8 9 7 7 4 2 2 2
31 29 26 23 21 18 17 16 16 16 17 18 17 18 14 13 12 12 11 11 11 9 8 7 7 6 6 7 8 9 7 6 5 6 6 10 7 6 6 6 5 3 0
31 30 27 24 22 19 16 14 14 16 17 19 18 18 16 14 12 12 11 11 11 9 8 8 8 8 9 8 7 7 4 4 3 3 7 8 6 6 7 7 12 9 3
31 29 27 24 21 18 16 15 16 17 17 19 20 18 16 15 13 11 10 10 10 9 8 7 7 8 9 8 6 4 3 2 3 7 7 4 4 7 7 7 8 7 7
31 29 26 23 20 18 16 17 17 18 17 19 19 18 17 16 14 11 9 9 9 8 8 7 8 8 6 5 4 2 3 4 5 6 6 5 3 6 5 6 8 11 13
28 28 26 23 20 18 16 17 18 19 19 19 19 20 19 17 15 13 10 9 9 8 9 8 7 6 6 4 4 4 3 3 4 6 5 5 5 5 6 6 9 11 12
28 27 27 24 22 20 18 17 20 21 20 20 21 20 18 17 15 13 12 11 9 9 9 7 6 5 6 5 3 3 3 4 4 5 5 5 6 6 8 10 10 10 9
23 27 28 26 24 22 20 19 20 21 20 20 21 19 16 15 16 16 15 12 11 10 10 8 7 7 6 5 3 3 3 3 2 3 5 8 8 10 11 11 11 11 10
23 26 26 25 27 25 23 21 21 23 22 21 21 19 16 14 14 19 16 13 11 10 9 8 7 7 5 5 3 1 0 2 3 5 8 7 10 9 8 6 10 9 9
28 26 29 28 29 28 27 24 23 23 25 24 22 21 18 16 16 18 16 14 12 12 11 10 9 7 5 4 3 2 1 1 5 8 9 8 9 7 6 8 9 9 8
28 29 31 31 31 32 30 29 27 26 26 27 26 24 22 20 19 19 18 16 14 13 12 11 9 7 5 4 3 2 2 4 7 8 8 9 9 9 9 8 8 8 8
22 26 30 32 32 34 34 31 30 29 29 28 28 27 25 23 21 21 19 17 15 14 13 11 10 6 5 3 2 2 3 6 9 9 8 9 9 9 9 8 7 8 7
31 33 33 34 34 35 37 35 33 32 30 29 29 30 28 26 24 22 20 18 16 15 13 12 10 8 6 4 3 3 4 6 8 9 8 8 7 7 7 7 6 7 7
28 31 34 36 35 37 38 37 35 34 32 32 30 28 28 28 26 24 24 21 19 17 15 14 11 8 7 6 6 6 5 7 9 9 8 7 6 6 6 6 6 6 6
20 22 32 35 36 39 39 38 37 37 36 35 32 30 29 26 26 25 26 22 21 19 18 15 11 9 8 7 7 8 7 7 10 10 9 6 6 5 4 2 3 4 5
27 26 25 31 36 39 40 40 38 39 38 37 32 32 31 30 29 26 26 25 23 21 20 16 14 10 8 6 7 7 7 7 10 12 10 8 6 4 2 1 2 3 5
30 31 25 28 32 38 39 38 37 36 38 37 36 34 33 34 32 30 28 27 27 25 21 19 15 12 9 7 8 7 6 7 10 11 10 9 7 5 4 2 1 3 6
22 28 28 25 31 37 32 31 30 35 38 40 38 37 35 35 35 34 32 30 30 28 25 21 15 13 9 9 9 6 5 5 9 10 11 10 9 7 6 4 3 6 7
24 21 20 26 27 37 35 38 31 38 36 42 43 40 37 36 37 39 37 33 33 31 25 24 20 15 8 12 6 5 1 2 7 8 10 11 10 10 8 5 4 7 8
29 28 26 22 20 31 38 34 30 27 27 34 38 39 40 38 38 42 39 37 37 35 32 29 27 23 15 11 11 5 2 4 2 5 7 9 10 10 8 4 6 8 10
26 27 25 22 21 21 32 35 34 33 25 36 41 43 40 40 39 42 41 41 40 38 34 32 28 25 20 16 11 9 5 5 3 1 5 8 10 10 7 7 8 9 7
17 18 18 17 17 17 20 32 39 32 29 32 41 43 42 41 39 41 42 43 42 42 37 33 28 25 21 18 14 10 7 5 5 3 2 4 11 12 11 8 11 7 5
6 8 11 13 13 14 19 25 37 35 30 30 35 36 41 42 41 42 43 43 43 41 35 31 28 25 22 18 16 15 11 6 6 4 2 3 4 6 7 12 6 6 6

GFSSE_925_spd_036.txt.gz
Wind_Speed
16 23 19 19 18 17 16 16 17 17 16 14 14 13 11 9 8 7 7 8 8 8 7 9 10 12 12 12 10 10 8 8 9 9 10 11 11 10 9 9 7 6 5
24 24 20 18 17 17 17 16 15 15 15 14 13 10 10 9 7 7 8 8 9 10 7 10 10 12 14 12 10 8 9 10 10 9 10 11 12 9 8 9 11 10 8
30 25 22 20 19 17 17 16 15 15 15 14 13 10 9 9 9 10 11 11 11 9 11 15 12 15 12 10 8 8 10 10 10 10 9 11 12 8 7 7 7 5 6
31 25 23 22 21 19 18 17 16 16 15 14 13 12 11 10 10 11 12 12 13 11 10 11 11 10 10 8 10 11 10 9 9 10 10 10 11 8 8 6 5 4 3
29 26 25 23 21 19 18 17 16 15 14 15 14 14 12 11 11 12 12 12 13 11 9 9 9 8 7 9 10 9 7 7 7 8 10 9 8 8 7 7 5 4 2
28 26 24 22 21 18 16 15 16 15 15 14 16 15 13 12 12 12 12 12 11 9 8 8 8 9 9 9 9 7 6 5 3 6 8 7 9 8 9 9 8 9 8
28 25 24 22 19 17 15 14 15 15 16 17 17 14 13 12 11 11 10 11 11 10 9 9 10 10 10 9 7 4 4 3 4 8 6 7 8 7 8 9 12 14 15
28 26 24 21 19 17 14 13 14 15 16 18 18 15 13 12 11 10 10 9 9 9 8 8 9 8 7 6 4 4 4 4 6 6 5 6 7 7 8 9 11 13 13
26 27 24 22 19 16 14 14 15 16 15 19 18 14 13 12 10 9 8 8 8 8 9 8 8 6 5 4 5 5 5 6 6 7 6 6 7 7 8 10 13 13 13
25 26 24 23 20 18 16 15 16 15 16 16 16 16 15 13 10 7 7 7 7 8 8 8 6 5 5 4 4 6 6 7 6 6 6 7 6 8 11 11 12 11 12
22 26 25 24 21 20 18 16 17 17 17 16 17 18 17 15 13 11 9 8 7 7 7 6 5 5 5 3 4 5 4 4 4 4 7 9 10 11 10 10 11 11 11
20 23 26 25 24 22 20 19 19 20 20 19 19 19 17 14 14 14 12 9 7 8 7 6 5 6 4 2 2 2 2 2 3 6 9 8 11 10 10 5 9 10 10
21 23 25 26 25 25 23 21 21 22 22 21 21 21 18 14 12 16 15 12 10 10 9 8 7 6 5 4 2 1 1 3 6 8 10 7 9 8 10 7 9 9 9
22 24 23 26 25 28 27 26 25 25 25 24 24 22 20 17 15 17 17 15 12 11 11 9 9 6 5 4 2 2 2 4 8 11 10 9 10 9 9 8 8 8 7
19 21 26 27 28 27 30 29 28 27 27 27 27 26 24 21 19 19 18 16 14 13 11 11 10 7 6 5 4 3 3 6 9 9 10 9 9 10 9 8 7 7 7
22 22 25 28 30 30 31 33 31 30 29 28 28 29 27 25 22 21 20 19 16 15 13 12 11 8 7 5 4 4 5 8 9 9 9 8 7 8 8 7 7 7 6
27 31 28 28 28 31 30 34 33 33 32 31 31 29 30 28 26 23 23 21 18 17 16 14 13 11 8 7 6 5 6 8 9 9 8 8 8 7 8 7 6 6 6
20 27 32 32 31 31 31 33 35 35 34 34 33 31 31 31 29 28 27 24 21 20 18 17 15 12 9 8 8 8 8 9 10 10 9 8 8 8 6 5 5 5 5
24 25 28 32 34 35 35 34 37 37 36 36 34 33 33 32 31 31 29 26 25 23 21 20 17 14 11 9 9 8 8 9 10 11 10 8 8 7 6 5 4 2 2
22 25 27 28 31 34 35 34 34 35 36 38 37 36 34 34 32 31 30 27 28 26 24 23 21 16 12 11 10 8 7 8 11 12 11 10 9 8 7 5 4 2 2
21 21 24 28 33 34 28 27 27 30 36 38 41 38 37 35 36 34 33 29 31 30 30 28 22 16 13 14 13 7 4 6 10 12 12 12 11 10 9 8 7 6 6
26 26 24 24 29 35 32 33 27 30 29 40 41 40 40 38 37 38 37 36 36 35 34 31 28 21 14 18 8 6 1 2 8 11 13 14 13 12 11 10 8 7 8
23 27 26 23 21 29 34 34 28 24 25 28 33 38 41 41 38 40 41 40 39 40 39 37 33 29 22 22 15 7 2 4 3 7 11 14 14 14 13 11 9 9 10
22 20 21 24 23 23 30 32 31 28 25 30 37 44 42 42 41 41 42 42 42 45 41 40 37 34 27 21 20 17 7 6 4 1 7 11 13 15 14 11 9 9 9
17 20 20 20 24 24 24 33 36 30 29 27 33 35 39 43 44 42 43 42 44 47 44 42 40 37 30 26 22 13 11 8 7 3 3 6 14 15 15 12 10 9 8
18 16 14 12 18 19 20 25 33 34 31 30 30 34 37 41 45 45 44 46 47 47 46 43 40 37 33 27 27 23 20 9 8 5 2 3 6 10 16 15 12 10 9

GFSSE_925_spd_039.txt.gz
Wind_Speed
16 22 20 20 16 17 17 17 17 16 14 13 13 12 11 10 9 9 9 7 7 6 9 9 11 12 12 12 11 9 10 11 11 11 11 11 11 10 10 9 6 7 8
25 24 21 21 18 17 17 17 17 17 14 12 12 11 10 9 8 8 9 9 9 7 8 8 10 14 14 12 10 10 10 10 10 12 12 12 11 9 9 10 11 8 8
29 24 19 18 17 16 17 16 15 15 13 13 10 6 8 8 8 9 10 10 9 11 15 9 13 16 13 10 10 11 11 11 11 11 12 11 10 9 8 7 7 5 7
29 24 21 21 19 17 17 16 15 13 14 11 9 8 8 7 9 10 10 11 8 9 15 15 14 13 11 11 12 11 11 11 11 12 11 10 10 8 7 7 4 4 3
27 26 22 21 20 18 18 16 15 15 13 12 11 10 8 9 10 11 11 11 10 10 10 11 10 10 10 11 11 10 10 10 10 10 10 10 8 6 9 9 5 2 2
25 25 23 21 20 19 18 17 16 14 13 12 10 12 10 10 10 11 12 13 11 10 9 9 9 10 10 10 9 8 8 7 7 8 8 10 9 8 8 8 10 11 11
24 23 22 21 21 19 17 16 16 16 14 12 14 13 12 11 11 11 12 12 11 10 10 10 11 11 10 8 6 5 5 5 8 8 7 8 7 6 8 10 13 14 16
23 23 19 19 19 17 15 14 15 16 16 16 16 14 12 11 11 10 10 11 10 10 10 11 10 9 8 6 5 5 5 6 7 6 6 6 6 6 8 10 11 11 11
21 21 21 20 18 16 14 13 14 15 17 17 17 13 13 11 10 10 9 9 9 10 9 9 8 6 6 6 5 5 6 6 7 7 7 6 6 7 9 12 12 12 12
21 22 22 20 18 16 14 13 14 16 14 18 17 14 14 13 9 8 8 8 8 10 8 9 6 5 5 5 6 6 7 6 6 7 6 6 7 10 11 11 11 10 11
18 21 22 21 20 18 15 15 15 16 17 17 16 15 15 14 11 9 7 8 8 9 7 7 5 5 5 6 6 6 6 5 5 5 7 7 10 9 9 10 10 10 11
17 18 21 22 21 19 18 16 17 18 18 18 18 18 18 16 14 13 11 9 9 10 8 7 6 6 5 4 4 3 3 3 4 7 8 8 10 10 9 10 8 10 10
16 18 19 20 22 21 19 18 19 20 20 19 19 20 19 17 15 15 14 12 11 12 11 9 7 6 5 4 3 3 3 3 5 8 8 8 9 8 7 9 8 8 9
16 18 19 21 21 23 22 22 21 22 22 22 22 22 22 19 16 15 18 16 14 14 13 11 9 8 6 4 3 3 3 5 7 10 8 10 10 8 8 9 8 8 8
16 18 22 22 23 25 26 25 24 24 25 24 23 23 24 21 18 16 19 18 16 15 14 12 12 10 8 6 4 3 4 7 9 10 8 9 9 9 9 9 7 7 7
18 18 18 23 26 27 26 28 27 27 27 26 26 26 25 24 21 19 20 19 17 16 14 13 13 11 9 7 5 5 6 8 10 10 11 8 8 9 8 7 7 7 6
21 21 23 22 24 28 29 28 28 31 30 29 29 28 28 28 26 23 23 22 20 18 17 16 15 13 11 9 7 7 8 10 11 11 11 10 9 8 8 7 7 6 6
20 21 25 28 26 29 28 30 31 32 33 32 31 30 30 30 29 27 26 24 22 21 19 19 18 16 13 10 9 9 10 11 12 12 12 11 11 11 9 8 6 6 5
24 25 23 25 27 29 29 31 33 32 35 35 34 33 32 32 32 31 30 27 25 24 22 22 20 17 15 12 10 11 11 12 13 14 13 13 12 12 10 9 8 6 4
21 21 25 28 26 30 29 27 28 29 34 36 38 36 35 34 33 33 33 31 29 28 27 25 23 20 17 14 12 11 11 12 14 15 15 14 13 13 12 10 9 7 5
23 24 23 27 31 28 26 25 28 31 33 32 39 39 37 36 35 34 36 35 34 34 32 29 27 22 17 18 13 7 7 10 13 16 17 16 16 14 14 13 12 9 8
22 23 26 26 27 33 29 29 28 29 28 32 32 39 39 38 38 37 39 38 38 36 34 34 33 26 18 23 9 5 3 4 11 16 18 18 18 17 16 15 14 12 10
15 18 20 25 27 29 31 29 26 24 25 23 27 32 42 42 42 41 42 43 41 38 40 40 39 36 27 29 21 7 3 5 4 11 17 19 19 19 19 17 15 13 11
12 9 10 15 21 27 27 27 27 27 26 29 30 33 32 41 42 43 43 44 44 43 44 45 43 43 33 25 25 20 9 7 3 3 9 15 19 20 20 18 16 14 11
18 15 14 9 12 18 23 27 29 29 29 29 30 29 29 35 40 42 44 45 46 47 48 48 45 42 42 28 29 16 16 10 8 3 3 6 14 17 18 18 16 13 11
23 22 18 13 10 6 12 18 25 25 24 23 30 29 30 34 37 40 42 44 46 47 49 51 49 46 44 38 33 25 22 10 9 6 2 4 8 12 20 19 16 14 13

GFSSE_925_spd_042.txt.gz
Wind_Speed
15 18 18 17 18 17 15 15 15 15 13 12 12 11 10 9 8 7 5 4 5 7 8 8 12 12 11 10 10 10 10 9 9 10 10 11 11 10 10 9 9 8 7
21 19 20 17 15 17 16 17 16 15 13 11 12 10 10 8 8 7 6 6 5 6 9 8 13 14 11 10 11 11 9 10 11 11 12 12 11 9 8 11 10 6 10
21 20 20 19 16 18 17 17 17 15 12 9 8 7 8 8 8 8 8 8 8 11 9 10 14 13 11 10 10 10 10 10 10 12 14 9 9 8 7 7 7 6 6
20 20 20 19 17 18 18 17 16 14 12 12 10 8 8 8 9 10 10 8 13 16 16 16 13 12 10 11 10 10 10 10 11 11 7 8 8 7 6 6 4 3 3
18 18 19 19 16 17 16 16 15 14 13 13 12 9 9 9 10 10 11 9 10 12 13 12 10 9 10 10 9 9 9 9 10 9 8 7 7 9 10 7 5 2 2
17 16 18 19 18 16 16 15 15 15 12 12 10 9 10 10 10 10 10 10 9 9 10 9 9 9 9 9 8 8 7 7 8 6 6 7 6 8 8 13 14 12 10
17 15 18 18 17 16 16 16 14 12 13 11 10 10 11 10 10 10 10 10 9 8 8 9 10 10 9 8 6 5 4 5 6 5 5 5 5 7 8 10 11 13 14
16 16 15 17 16 15 14 16 15 14 14 11 13 12 12 11 11 10 11 10 9 9 10 10 9 8 7 5 4 4 4 6 5 4 3 4 4 5 8 9 9 8 11
15 16 15 15 15 15 15 14 15 15 15 14 14 11 12 12 11 10 10 10 9 9 10 10 8 6 5 5 5 5 5 7 4 3 3 3 3 7 11 11 10 10 10
15 15 15 15 14 13 11 12 13 15 16 16 16 11 12 10 10 10 10 10 11 9 10 8 6 5 5 5 5 5 5 5 3 4 3 1 7 10 11 11 9 9 9
14 15 15 15 14 13 11 11 13 15 15 17 17 14 12 11 10 9 10 10 12 11 11 8 7 6 6 6 6 6 6 3 3 3 3 7 9 8 8 8 8 8 9
13 15 15 15 14 13 11 11 13 13 14 15 16 15 14 13 12 11 10 10 10 11 9 9 7 7 6 5 4 4 2 3 2 3 4 8 10 9 9 8 8 8 9
12 14 15 15 15 15 13 12 12 13 14 16 16 16 16 15 13 13 11 10 10 11 9 8 7 7 6 5 5 4 4 3 3 4 6 9 9 8 7 7 8 7 8
13 14 14 16 17 17 15 14 13 14 14 14 16 17 17 17 15 15 14 13 12 12 11 10 9 8 6 5 5 5 4 4 5 6 7 9 10 8 7 7 8 7 7
15 15 16 17 18 17 18 16 16 15 16 16 16 18 18 17 16 15 15 15 14 13 13 12 10 9 7 6 6 5 5 5 6 7 6 11 9 8 8 8 7 6 6
16 16 17 18 18 19 18 18 18 16 17 17 17 18 21 19 17 16 15 16 15 15 13 13 12 10 9 7 6 6 6 6 7 8 8 8 10 9 8 7 6 6 5
14 15 19 19 20 22 22 22 20 19 18 18 19 19 20 21 19 18 17 17 17 16 15 14 13 11 10 8 7 6 6 7 8 8 9 8 8 10 9 8 7 7 6
15 15 17 19 20 22 23 23 22 21 20 21 20 20 22 23 22 21 20 19 18 17 17 16 15 13 12 10 9 7 8 8 9 9 9 10 10 9 11 10 8 7 5
18 19 20 20 23 24 25 24 27 22 24 21 20 22 22 25 24 24 22 21 20 19 19 17 16 15 14 12 10 9 9 9 11 11 11 11 11 11 10 13 12 10 8
16 17 19 20 22 24 24 23 26 27 24 29 23 24 24 25 26 27 24 23 22 22 20 19 18 17 15 13 10 9 9 10 11 12 13 12 12 12 11 11 11 8 10
14 15 16 17 20 23 24 22 24 28 28 27 32 27 25 25 27 28 28 26 26 26 24 23 21 19 15 14 10 8 7 10 12 14 14 15 14 14 13 12 10 9 9
12 13 15 18 19 20 24 26 27 26 24 25 26 28 27 26 28 29 30 30 29 27 27 26 25 20 17 19 12 7 4 8 14 16 16 16 16 15 14 14 13 11 10
5 7 11 15 17 19 20 22 24 23 21 20 24 28 34 33 30 30 30 30 31 28 30 30 30 26 21 20 19 8 3 6 9 12 18 17 17 17 16 15 14 13 11
9 7 7 8 12 15 18 19 24 25 26 27 27 25 25 29 31 30 31 30 30 32 30 34 33 33 23 21 18 21 8 3 4 4 11 18 18 19 18 15 14 13 11
8 8 8 7 6 8 12 17 20 24 24 24 25 25 26 25 32 33 34 31 31 33 34 31 33 34 33 25 25 13 15 9 8 5 4 10 17 19 18 17 15 12 11
10 9 8 8 7 6 5 10 18 22 22 23 22 24 25 23 24 32 34 34 34 32 31 34 35 36 34 28 26 24 18 11 14 9 6 7 10 14 16 15 15 13 11

GFSSE_925_spd_045.txt.gz
Wind_Speed
15 19 20 20 17 14 13 12 12 12 11 11 10 7 8 7 5 4 5 5 5 6 7 11 13 12 11 11 11 10 10 10 10 11 11 10 11 12 12 9 10 8 9
19 20 21 18 17 14 13 13 13 13 11 9 9 8 8 7 6 5 6 5 5 7 7 11 12 12 11 11 11 10 9 10 12 13 13 15 12 10 10 10 11 10 8
18 19 18 16 16 15 14 14 14 13 10 7 5 7 7 6 6 6 7 5 9 8 7 12 14 11 11 10 10 10 10 11 14 15 12 9 10 10 8 9 7 8 7
18 18 18 17 15 16 15 14 14 13 9 8 8 5 7 7 8 9 8 14 15 14 15 14 11 10 10 10 10 10 10 11 12 10 8 9 9 10 7 7 5 5 7
17 17 18 17 16 16 16 15 13 11 8 8 7 8 8 9 9 11 9 11 13 14 13 11 9 9 10 10 9 9 9 11 11 10 8 6 9 10 11 11 5 4 5
16 15 19 15 14 15 14 13 12 11 9 9 7 8 10 10 10 10 10 8 9 11 9 9 9 9 9 8 8 8 7 8 8 7 8 8 9 10 11 14 17 14 8
15 15 16 17 14 13 13 12 12 11 10 10 7 9 10 10 10 9 10 8 8 8 7 8 8 9 8 6 5 5 5 6 5 5 7 8 6 7 9 12 13 13 14
14 13 15 16 14 14 13 14 12 11 11 8 9 9 10 10 9 10 10 9 8 8 8 9 8 7 6 5 4 4 5 7 4 5 5 6 6 7 9 10 9 8 10
13 14 14 15 14 12 12 13 14 13 11 9 9 8 9 9 9 9 9 9 8 8 8 7 6 5 4 4 3 4 6 6 4 4 3 5 5 10 11 10 10 9 10
12 13 14 15 14 12 10 13 13 14 14 11 12 6 8 8 8 9 9 9 9 7 7 7 4 4 4 4 4 5 6 6 3 3 3 3 8 11 11 10 9 8 9
12 13 13 14 13 12 11 11 12 14 14 15 14 10 8 8 8 7 8 8 12 9 8 7 5 4 4 4 4 5 5 1 2 2 4 7 9 9 8 7 7 7 9
11 14 13 13 13 13 11 10 11 12 12 14 16 14 11 11 9 8 10 9 12 11 11 9 6 6 6 3 3 4 1 2 1 2 6 7 7 8 7 8 8 8 8
12 11 13 13 14 13 12 11 11 12 13 15 16 16 14 13 11 11 8 10 9 12 9 10 9 7 6 5 5 4 3 3 2 3 7 8 9 8 6 7 7 7 7
14 14 14 13 14 14 12 13 12 13 14 15 16 17 15 15 14 13 14 12 12 13 13 11 9 9 8 7 6 5 5 4 4 4 7 9 10 8 7 7 7 6 6
14 15 15 15 15 14 15 14 14 14 15 15 15 17 17 16 16 15 15 15 14 13 14 13 12 10 9 8 7 6 6 5 5 6 6 11 9 7 8 7 7 6 6
14 14 14 15 16 16 17 17 15 15 15 16 17 18 20 18 17 16 15 14 19 16 15 15 14 12 11 10 9 8 7 6 7 7 7 10 11 9 9 8 7 7 6
15 15 16 16 17 18 19 19 20 15 15 16 17 18 20 21 20 18 17 16 22 17 16 15 15 14 13 11 11 9 8 8 8 9 9 10 10 12 11 9 9 8 7
12 13 15 16 17 19 19 19 21 20 18 17 17 17 20 22 23 22 21 20 19 20 17 16 15 14 14 14 12 10 10 10 10 10 11 10 11 10 13 11 10 9 8
19 18 17 16 19 20 21 21 21 21 21 21 18 19 20 22 23 24 23 22 21 21 19 18 18 18 16 15 13 12 11 11 11 12 13 13 12 12 11 15 14 13 9
18 19 19 19 19 20 21 21 21 24 25 20 22 22 22 23 25 26 24 24 23 23 23 22 21 20 18 16 14 12 11 12 12 14 14 14 14 15 14 13 18 14 13
15 15 17 17 18 19 21 22 19 21 28 30 25 24 22 23 24 27 27 25 25 26 26 25 23 22 19 16 12 10 10 12 14 15 16 17 17 17 17 15 13 13 14
12 13 14 16 17 19 21 21 22 21 22 25 28 29 28 25 27 27 29 29 29 28 27 27 27 23 20 21 13 11 4 8 16 19 18 18 18 18 18 18 17 15 11
1 4 8 13 15 17 19 19 20 20 22 21 24 27 28 29 27 29 29 30 28 29 29 30 29 29 24 24 23 9 4 5 9 15 20 19 19 20 20 19 18 16 15
5 4 4 4 8 13 17 18 20 20 21 23 23 21 22 24 29 31 30 31 30 30 29 31 32 32 26 23 22 26 12 4 3 2 12 19 19 20 20 18 18 17 16
6 6 7 6 6 5 9 14 18 20 22 21 21 23 24 23 25 27 33 30 31 31 32 31 30 33 34 26 25 15 18 14 11 4 3 8 18 20 20 19 17 16 15
6 7 7 7 7 6 6 7 12 18 20 21 21 21 20 21 22 23 26 31 32 32 32 33 32 32 33 32 26 25 23 14 16 9 3 8 11 17 20 17 17 16 14

GFSSE_925_spd_048.txt.gz
Wind_Speed
18 27 23 20 17 15 15 14 13 12 11 11 10 8 8 7 7 7 8 7 9 9 13 15 14 13 13 13 13 12 12 12 14 15 14 14 14 13 12 18 11 12 12
20 25 24 20 17 16 14 13 13 13 12 7 6 4 7 7 7 8 8 8 10 9 12 14 13 13 13 13 12 11 12 14 16 16 18 16 14 13 12 12 12 12 11
22 22 23 20 17 16 14 14 14 14 9 7 4 5 7 7 8 9 6 9 10 9 13 15 13 13 13 12 12 12 14 16 13 10 9 13 14 12 11 11 11 10 10
24 21 19 19 17 15 15 15 14 13 9 7 8 6 7 8 10 10 15 15 12 13 15 13 12 12 12 12 12 12 14 15 13 15 16 13 14 13 10 8 9 10 9
21 22 19 18 18 16 15 15 13 10 8 9 7 9 9 10 11 11 14 16 17 15 14 11 11 12 12 12 11 12 15 13 13 12 7 9 10 14 15 15 8 8 10
20 23 19 17 18 16 16 15 11 9 8 8 7 9 11 11 12 10 11 12 13 12 10 10 10 10 11 10 10 11 12 11 13 9 9 9 10 11 14 18 19 19 15
24 22 21 15 16 15 14 13 11 11 9 6 7 10 11 12 11 10 10 9 10 9 9 10 10 10 9 8 8 8 10 10 11 8 7 7 9 9 11 13 13 12 11
21 19 19 16 13 12 12 12 14 11 8 6 8 11 11 11 10 10 9 10 10 9 9 10 9 8 7 6 6 7 9 7 8 6 4 5 8 11 11 11 11 10 10
17 20 18 17 16 13 11 13 14 11 9 7 8 9 9 9 10 11 10 9 9 9 10 9 7 6 5 4 5 6 8 7 10 7 8 6 10 11 11 11 12 10 11
15 20 18 18 16 15 14 13 13 13 13 9 9 6 7 7 8 10 10 10 10 8 8 7 5 4 4 4 5 7 9 7 5 6 1 5 11 10 9 10 10 9 9
12 16 15 18 15 13 11 14 14 14 13 11 12 8 5 7 8 7 9 7 10 8 7 6 4 4 4 4 5 7 7 5 3 2 4 7 10 9 8 8 9 8 8
13 13 16 18 16 14 15 10 12 14 16 15 16 12 7 11 7 9 9 9 11 10 9 7 5 5 5 4 4 6 4 3 3 4 5 7 8 7 8 8 9 9 9
11 9 14 15 16 16 13 11 12 12 15 17 16 14 13 13 17 15 14 11 13 12 12 10 8 7 7 7 5 4 3 6 5 6 6 6 9 8 7 7 8 9 9
12 12 9 15 14 15 15 13 15 19 16 23 20 19 16 19 18 16 13 10 13 12 12 10 8 8 7 11 9 7 8 7 6 8 9 9 10 8 7 7 8 8 8
18 12 11 13 14 16 16 16 15 17 18 17 19 21 21 20 19 18 19 18 14 17 14 15 15 10 13 12 11 11 9 9 9 8 10 12 13 9 9 9 9 8 8
12 15 17 17 13 20 18 16 16 16 16 17 19 20 20 18 21 20 19 22 21 18 15 17 18 14 13 13 14 12 11 10 10 10 12 13 13 11 10 10 9 9 8
19 19 20 19 19 19 20 19 17 18 15 19 19 19 21 21 19 21 21 19 22 22 16 19 17 18 17 18 16 15 13 13 13 12 11 11 13 14 12 11 11 10 9
10 8 23 24 22 20 21 20 20 22 15 12 18 20 21 23 25 23 22 22 22 21 23 22 22 20 19 19 18 16 16 16 15 15 13 12 13 15 16 14 13 12 11
12 11 11 10 18 23 22 23 22 21 23 22 18 18 21 24 27 28 26 25 21 22 28 25 23 23 22 20 20 18 18 16 18 16 17 14 13 13 14 18 17 16 13
11 17 20 18 18 19 15 23 26 26 25 23 25 23 21 23 26 28 29 27 27 24 27 28 27 25 24 23 20 18 19 17 17 19 19 20 18 15 16 17 20 20 17
9 10 10 10 12 13 19 20 20 26 28 28 26 24 24 26 28 28 31 32 29 31 32 29 27 25 26 23 19 15 14 19 19 20 22 21 23 23 20 19 19 20 20
11 11 9 12 14 16 17 21 19 13 25 31 31 30 32 27 23 30 33 33 35 33 32 32 32 29 28 28 20 12 2 8 21 24 22 25 25 25 25 21 19 18 19
8 7 8 10 12 13 13 14 19 23 15 22 24 27 31 33 34 24 27 33 32 34 34 34 36 35 27 31 31 12 3 5 5 17 29 26 25 26 26 26 23 20 18
5 3 4 5 7 9 15 19 16 16 17 18 20 22 24 25 28 28 36 30 32 33 32 35 36 37 30 29 34 34 16 6 4 2 12 28 27 26 28 27 27 24 23
3 4 5 6 6 6 7 9 13 17 19 22 22 19 23 22 23 25 25 33 28 33 35 33 31 34 40 29 33 28 34 20 13 4 3 9 25 30 27 28 28 27 25
5 6 7 7 8 8 7 7 8 12 15 18 19 18 23 22 23 25 25 27 26 33 30 31 33 36 36 35 33 32 28 20 15 9 2 3 10 17 26 24 26 28 28

GFSSE_925_spd_051.txt.gz
Wind_Speed
26 25 22 20 18 17 16 16 15 14 12 12 11 9 9 9 9 10 10 12 11 16 17 16 15 15 14 14 13 14 15 17 19 18 16 16 15 14 17 12 13 14 16
30 26 23 21 18 18 17 16 15 14 13 11 7 5 9 9 9 11 11 13 12 15 16 15 15 15 13 13 13 15 17 18 19 19 17 16 15 12 12 13 13 12 12
32 27 23 21 21 17 16 17 17 13 11 9 6 6 9 9 10 10 11 13 12 16 17 15 14 14 13 13 13 16 17 14 12 11 16 15 12 11 11 11 12 11 9
32 28 25 21 20 17 17 17 17 14 11 9 9 7 10 11 12 16 15 13 14 17 15 13 13 13 13 13 15 17 14 13 14 13 12 11 12 12 8 11 11 12 8
28 27 23 19 18 17 18 18 16 12 10 9 9 11 12 13 14 17 17 18 16 14 13 12 13 13 13 14 16 16 14 14 12 12 11 10 12 16 15 10 10 12 18
28 22 21 19 19 19 19 17 14 11 10 10 10 13 14 14 13 14 15 16 15 13 11 12 12 13 12 12 13 14 14 13 10 10 9 9 13 13 15 19 18 17 16
28 24 19 21 19 18 18 16 14 12 9 7 10 13 14 14 12 12 12 13 12 10 9 11 12 11 10 11 11 12 12 10 9 10 9 8 11 11 12 12 10 9 11
30 27 21 18 18 17 16 16 16 13 8 7 10 12 13 13 12 12 11 11 10 9 10 11 11 10 9 9 10 12 8 6 11 7 5 7 11 11 11 11 11 11 9
27 24 21 18 15 13 15 16 15 11 9 7 9 11 12 13 13 13 12 12 10 10 11 10 9 8 8 8 9 11 9 11 7 6 6 8 12 10 10 11 11 11 10
23 20 22 19 17 16 14 17 15 13 12 8 10 8 9 10 12 13 13 12 12 11 11 9 8 7 7 8 9 12 11 8 5 4 5 9 11 8 8 9 10 10 10
24 20 23 22 19 17 16 15 15 15 15 12 12 9 8 10 11 12 12 12 12 11 10 9 7 6 6 7 9 12 9 7 6 5 5 8 10 8 7 7 8 9 10
24 21 19 20 20 18 17 17 17 17 17 16 16 13 9 10 11 11 11 11 12 12 10 9 8 7 8 7 8 10 8 6 5 6 8 9 10 8 8 7 9 9 9
16 16 21 21 20 21 18 15 17 18 19 18 19 16 11 12 13 13 12 12 14 14 14 12 11 9 10 9 8 9 6 7 6 8 9 9 9 10 8 8 8 9 9
12 10 12 24 23 22 19 18 14 16 19 21 19 19 17 16 19 18 16 15 15 15 15 14 12 11 12 10 11 9 10 10 10 11 11 10 10 11 10 9 10 9 9
13 14 12 16 23 22 20 16 14 16 17 20 19 20 20 20 21 26 20 16 14 16 17 16 13 11 14 13 12 12 12 11 12 12 14 13 12 11 10 10 11 10 9
19 14 17 15 18 18 22 19 17 20 20 20 21 20 19 20 23 25 22 21 18 16 16 15 16 16 17 16 15 15 13 12 14 13 16 15 14 13 12 11 12 11 11
22 20 18 21 21 20 19 17 21 19 21 22 20 18 19 20 23 23 21 22 23 22 19 19 20 21 20 19 17 17 17 15 16 16 18 17 16 15 14 14 14 13 12
17 22 22 22 22 27 28 26 24 18 18 15 22 21 23 24 25 23 26 26 24 24 24 20 22 23 23 22 20 20 18 18 17 18 18 18 18 17 17 16 17 16 15
12 10 16 24 22 22 21 20 29 30 26 21 19 23 25 24 25 28 28 27 27 25 29 27 25 28 26 25 23 21 21 21 21 20 20 21 20 19 18 20 21 20 19
5 10 11 11 17 20 21 22 23 26 25 28 30 26 23 21 26 29 31 33 28 28 27 30 33 29 30 28 23 22 22 23 23 24 23 24 24 22 20 21 23 23 23
4 3 2 3 2 6 18 21 28 30 29 27 26 27 32 27 21 26 32 33 34 33 35 32 34 33 32 30 21 19 20 23 26 28 27 25 26 25 24 25 24 25 26
9 4 3 2 6 6 7 7 5 13 21 31 29 29 29 27 30 24 28 33 34 35 34 35 34 33 33 30 16 5 2 10 26 29 29 31 30 29 29 28 27 26 26
9 8 6 6 8 9 10 12 13 10 4 9 20 28 30 30 29 30 31 25 31 35 38 35 35 37 30 32 33 14 2 6 3 20 36 33 34 33 33 32 29 29 27
7 6 6 6 7 7 9 11 12 13 15 14 12 17 24 25 26 27 26 27 32 32 35 39 39 36 34 29 31 37 25 6 4 2 12 33 31 33 34 33 32 30 28
4 4 6 6 6 7 6 8 8 10 13 15 14 16 16 17 23 25 24 25 27 25 33 35 34 34 35 30 30 26 30 19 11 3 4 5 27 31 32 34 32 31 30
5 4 5 6 7 7 8 6 7 8 10 12 13 15 17 15 14 20 23 26 26 25 23 28 27 30 32 35 29 35 29 16 22 7 2 3 6 15 30 31 32 32 32

GFSSE_925_spd_054.txt.gz
Wind_Speed
25 24 24 20 19 18 17 17 16 15 14 13 11 11 9 9 8 8 10 11 13 16 16 15 14 13 13 13 14 15 16 17 17 16 15 14 13 14 11 12 15 15 11
30 27 25 22 20 18 17 18 17 16 15 12 10 7 9 8 10 10 13 12 18 16 15 14 13 12 12 12 14 16 17 19 17 16 15 14 12 12 12 11 11 11 10
30 27 25 22 21 20 19 18 18 17 13 9 5 8 9 9 11 12 13 12 16 16 15 13 12 12 12 13 15 16 15 12 12 15 15 12 10 9 10 11 9 7 6
31 28 25 23 22 20 20 21 18 13 12 9 8 9 10 11 11 14 13 13 17 15 13 12 12 12 13 15 16 15 14 11 9 11 12 11 12 8 10 11 10 6 3
30 28 25 23 21 20 21 19 16 13 12 9 10 12 15 14 16 15 14 14 14 13 11 11 13 13 15 16 15 13 11 10 12 12 11 9 14 12 9 10 10 17 16
30 27 24 22 20 20 21 20 16 13 10 10 13 15 17 16 16 18 17 15 14 11 9 11 13 13 14 15 14 12 10 9 12 11 9 10 13 13 16 14 13 13 16
29 25 22 19 19 20 20 18 14 12 11 10 13 15 16 16 15 15 16 14 12 10 9 11 12 12 13 14 14 11 10 11 10 8 6 8 10 10 8 7 7 8 10
28 25 21 20 19 19 19 16 15 13 10 9 13 13 14 14 14 14 14 13 11 9 10 11 11 11 11 12 13 12 7 8 9 7 6 9 10 8 8 7 6 7 6
27 25 23 21 19 19 18 17 17 14 9 8 11 14 14 11 12 13 13 12 11 10 11 11 11 10 10 11 12 11 6 10 8 6 7 11 10 8 8 8 7 7 7
27 24 25 23 19 17 18 18 18 14 11 9 11 11 12 11 12 11 12 11 10 11 12 11 10 9 9 10 12 12 10 8 7 7 6 10 9 7 6 7 8 8 8
25 23 24 23 21 19 18 19 18 16 14 10 10 10 11 12 13 12 12 11 10 10 9 8 7 7 8 9 11 13 10 8 8 7 6 10 9 8 7 6 7 8 9
24 24 25 24 23 22 19 20 19 18 17 15 13 12 10 11 12 13 12 12 11 10 10 8 7 6 7 8 10 12 9 7 8 9 9 10 8 7 6 6 8 8 8
25 23 26 26 25 24 22 20 20 19 19 17 15 14 11 11 13 13 13 13 13 12 12 11 10 9 9 8 9 10 9 8 9 10 10 10 8 8 7 8 7 8 7
22 21 24 26 25 23 21 19 19 20 20 20 19 18 17 14 15 15 15 15 14 14 14 14 13 11 11 11 10 9 9 10 9 11 12 11 9 9 9 9 10 9 9
20 19 16 26 26 26 23 20 18 18 20 21 21 20 21 20 19 18 18 18 16 16 17 17 16 16 15 16 13 14 12 14 13 13 15 14 12 11 10 10 11 11 11
19 20 16 18 28 28 28 24 19 17 17 18 21 21 21 23 22 22 23 24 22 19 18 18 18 18 16 17 17 16 16 16 15 15 16 17 16 14 12 12 12 12 11
18 17 22 19 25 27 26 24 20 20 20 22 23 21 21 22 24 24 24 28 26 22 20 19 19 19 20 20 20 19 19 18 19 18 19 20 20 18 16 15 15 15 14
19 22 19 23 24 24 24 24 25 21 19 24 28 25 23 22 25 26 27 30 29 26 25 25 23 25 25 26 27 25 22 21 21 21 21 23 23 22 20 18 18 18 16
15 23 25 22 21 26 26 25 23 24 23 20 20 28 25 24 24 26 27 28 27 27 27 28 27 29 28 29 29 27 24 24 23 23 24 25 26 26 24 21 21 21 21
9 12 11 22 26 25 23 23 23 27 30 27 25 22 25 27 27 29 30 31 31 30 29 29 32 30 28 30 30 28 27 27 26 27 28 27 29 29 27 25 24 25 25
11 11 11 9 11 17 21 22 23 23 25 29 31 30 31 29 27 27 32 34 32 31 33 32 33 35 33 31 23 25 26 27 27 30 29 30 32 33 31 30 28 27 28
8 6 6 7 5 6 9 14 17 17 24 29 27 28 28 28 28 29 30 28 32 34 34 35 33 33 33 30 14 2 2 12 28 34 33 33 35 34 35 34 32 29 29
7 5 3 1 2 0 3 6 8 8 9 11 14 17 18 21 25 27 26 25 28 27 30 34 36 36 26 26 29 13 0 6 2 14 35 38 38 37 37 37 36 34 31
6 5 4 4 4 1 2 3 3 6 8 10 11 12 13 16 19 23 27 27 27 27 29 31 32 35 34 23 24 34 25 5 4 4 10 23 37 34 37 37 38 36 34
6 5 5 4 6 7 4 4 4 5 5 8 10 12 14 14 14 17 20 24 25 24 23 24 26 30 33 28 28 19 33 26 13 6 5 4 15 34 37 35 38 37 36
6 5 5 5 6 5 5 5 4 5 5 6 6 8 9 9 8 8 11 17 20 24 23 23 23 22 24 27 26 28 25 12 19 12 6 10 9 13 30 35 35 38 37

GFSSE_925_spd_057.txt.gz
Wind_Speed
19 25 23 20 19 17 16 15 15 13 11 11 10 9 9 8 8 9 10 12 15 15 13 12 12 12 12 14 15 15 15 15 15 14 13 13 12 10 10 14 13 10 10
30 26 23 21 19 18 17 16 14 13 13 10 11 8 9 9 10 11 11 16 14 14 13 11 11 11 12 13 14 15 15 15 15 15 13 12 11 10 9 9 10 9 9
31 27 24 21 20 18 17 17 16 16 12 12 9 6 9 11 10 13 12 16 14 13 12 11 11 11 12 13 14 13 12 13 14 14 12 9 8 8 9 8 5 4 4
29 27 24 22 21 19 18 18 17 14 11 7 7 8 11 10 12 13 11 15 13 12 10 10 11 11 12 14 12 11 10 9 10 11 10 9 7 8 8 9 8 4 4
30 27 24 22 21 20 20 19 16 12 9 7 8 11 12 12 13 13 13 15 11 9 8 11 12 13 14 14 12 10 8 9 8 9 9 11 11 9 8 9 15 16 12
29 26 22 22 20 20 21 18 14 10 7 6 10 15 13 14 14 13 12 10 10 8 7 11 12 13 14 13 9 8 8 9 9 9 9 8 13 12 11 10 9 12 12
30 25 22 20 19 21 20 18 14 10 7 8 10 14 14 13 14 16 13 11 10 7 6 10 11 12 13 11 8 7 7 9 8 7 4 6 8 7 5 6 4 3 5
30 26 22 20 19 20 19 16 13 9 8 7 10 11 12 11 12 12 11 10 8 6 6 8 9 9 10 10 7 6 5 6 6 4 3 6 6 5 4 3 1 1 2
28 26 22 19 19 20 18 15 13 10 8 8 11 15 13 11 10 9 9 8 7 6 6 7 7 7 8 8 7 4 3 7 4 3 4 6 6 4 4 4 4 4 4
25 23 23 22 21 20 18 15 14 11 8 7 11 14 15 13 13 11 10 8 6 6 6 6 5 5 5 7 7 5 3 7 6 4 5 6 6 4 3 4 4 4 4
24 23 23 23 22 18 17 16 15 13 11 8 10 11 13 12 13 12 11 11 9 8 8 7 5 5 5 6 7 7 6 5 6 6 5 6 5 5 4 3 5 5 5
23 23 23 23 22 19 17 18 19 17 15 13 11 11 11 10 11 12 11 11 10 10 9 8 6 6 7 7 8 9 8 6 7 7 7 8 6 5 5 4 4 5 5
24 23 24 23 22 21 20 20 20 19 18 16 14 12 11 11 11 12 11 12 12 11 11 10 10 9 8 8 9 10 10 9 8 9 10 11 9 7 6 6 5 5 5
24 23 23 23 23 22 21 21 21 20 20 19 17 15 14 13 13 13 13 13 13 12 13 13 13 11 11 11 10 11 12 12 11 12 12 13 12 9 8 8 8 7 6
23 22 22 24 25 25 24 22 22 22 22 21 20 19 18 16 14 15 15 15 15 14 15 15 15 15 15 14 15 15 15 15 14 13 15 16 15 13 10 9 9 9 8
24 23 21 25 25 25 25 22 21 20 19 20 20 20 20 19 18 18 19 19 19 18 16 16 17 18 18 17 18 19 17 18 17 17 17 17 18 17 14 11 11 11 11
24 23 23 21 28 29 27 25 23 21 19 18 18 18 20 21 21 23 22 23 23 22 21 20 19 20 20 20 21 19 20 20 21 21 19 18 19 20 19 15 13 13 13
19 22 25 23 21 29 30 29 28 25 22 20 20 20 21 23 24 25 27 27 25 25 26 26 24 23 24 24 24 24 25 24 23 23 23 21 22 23 22 21 17 16 16
21 21 21 22 23 22 26 28 28 26 24 23 23 24 26 26 27 28 29 29 27 27 29 30 29 27 28 29 29 29 29 30 28 26 26 25 24 26 27 25 23 20 20
16 18 22 23 20 21 24 23 23 23 24 23 22 22 21 27 28 29 31 31 29 28 29 30 30 30 31 31 30 32 31 31 30 30 29 28 28 28 29 29 27 25 23
9 12 14 14 20 23 21 20 23 25 26 27 30 28 26 23 24 26 30 30 30 29 28 29 30 30 31 30 25 23 29 31 32 33 32 31 32 31 32 32 31 28 26
10 9 9 8 8 10 16 20 19 18 21 24 24 24 24 28 27 28 30 31 30 29 29 30 31 30 28 28 13 5 3 9 23 33 34 35 36 34 34 34 34 33 30
9 6 4 3 4 5 5 7 10 11 11 13 14 14 14 15 18 21 23 25 24 23 25 26 28 31 24 22 23 13 2 4 3 9 20 30 38 37 36 34 34 35 34
8 6 6 5 3 4 4 6 8 11 12 13 13 15 15 14 15 16 19 21 24 25 25 26 25 26 27 22 20 26 29 12 3 4 8 13 16 26 35 35 34 34 37
10 8 6 6 6 5 3 2 3 4 4 6 7 10 13 15 17 14 15 18 21 23 24 23 21 21 21 22 22 17 21 22 17 4 9 7 16 17 19 27 33 34 34
9 8 7 6 4 3 2 2 0 2 3 4 4 5 6 5 5 8 9 10 15 18 20 21 20 20 20 19 18 20 20 10 7 10 6 9 10 20 24 24 24 30 30

GFSSE_925_spd_060.txt.gz
Wind_Speed
19 24 21 19 19 16 15 14 13 12 10 10 9 8 8 8 9 11 12 15 14 13 12 12 12 13 14 15 15 15 15 15 15 15 14 12 12 11 14 13 11 9 11
29 26 22 19 18 17 15 13 12 11 10 8 8 8 8 10 12 11 14 14 13 12 12 11 12 12 13 14 15 14 14 15 15 14 13 13 13 10 10 9 9 8 7
32 27 23 19 18 17 15 14 13 13 12 11 8 7 10 10 14 13 15 14 13 11 11 11 11 11 12 13 12 11 12 13 13 12 10 10 11 11 10 7 4 4 6
29 27 23 20 19 18 17 16 16 13 10 7 5 7 12 11 13 13 14 12 11 10 10 11 11 11 12 11 10 9 9 10 10 10 10 8 11 9 9 15 8 5 6
28 26 24 21 20 19 18 18 15 11 7 4 7 12 8 11 12 11 14 10 9 8 9 11 11 11 11 10 9 8 8 7 8 9 12 11 11 7 9 13 18 13 9
28 25 23 22 20 20 20 18 14 9 5 5 10 14 12 11 12 11 12 8 7 6 9 10 10 11 10 8 7 6 7 8 8 9 9 13 11 10 10 10 10 11 9
27 23 21 21 20 20 19 16 12 7 4 7 14 13 11 13 10 10 8 7 6 6 7 9 9 9 8 6 5 6 6 5 6 6 6 7 8 7 6 5 4 4 6
26 22 19 19 19 20 18 15 11 6 6 8 13 13 11 10 10 12 8 9 6 5 6 7 8 8 7 5 4 4 3 2 3 4 4 3 4 5 6 5 4 4 3
25 23 21 18 18 18 16 14 9 7 6 8 11 15 12 10 9 8 7 6 5 4 5 5 6 5 5 3 2 2 1 2 1 2 2 3 4 4 4 5 5 5 4
26 23 22 19 19 18 16 13 10 8 6 6 10 14 13 12 11 10 9 7 5 4 5 4 4 3 3 3 3 2 0 3 2 2 1 1 1 1 3 5 4 4 4
22 21 20 19 19 18 16 14 12 10 7 5 7 9 10 9 11 11 10 8 6 5 6 5 4 4 4 4 5 5 4 3 4 4 3 2 2 2 3 4 3 2 2
18 19 20 21 20 19 16 14 14 12 10 8 7 7 8 8 9 10 9 9 7 6 6 6 5 5 5 5 6 7 8 6 6 6 6 5 5 4 3 5 4 2 1
25 21 21 21 20 19 17 15 16 15 13 11 9 8 8 9 10 11 11 10 9 9 8 8 8 7 6 6 7 8 9 9 8 8 8 8 7 6 5 6 5 4 3
22 20 19 20 21 18 18 16 17 18 16 15 13 11 11 11 12 12 11 11 10 10 10 10 10 10 9 9 9 10 10 11 10 10 10 10 10 9 8 7 6 5 5
21 20 19 20 21 20 19 17 18 19 18 16 15 15 15 15 13 12 12 12 12 12 11 11 12 13 13 13 12 13 14 13 13 12 12 12 13 13 11 10 9 8 8
21 20 19 19 20 20 20 19 19 19 18 18 18 18 18 18 16 15 14 15 14 14 14 14 14 15 15 15 16 16 17 17 16 16 15 15 16 17 16 13 12 11 10
22 19 20 20 21 22 22 21 20 19 19 19 18 18 19 19 19 19 18 18 17 16 17 18 18 18 19 18 19 18 18 18 19 19 19 18 18 19 19 18 15 14 12
19 21 21 21 21 23 25 23 22 21 20 19 18 17 18 19 20 21 22 22 20 20 21 22 23 23 23 23 23 23 22 21 22 23 23 22 21 21 22 22 21 17 16
18 21 22 24 24 22 22 27 26 25 24 23 21 20 20 21 22 23 24 25 24 24 25 25 26 27 28 28 28 28 26 26 26 27 28 27 25 24 24 24 24 23 20
16 17 17 18 21 22 20 22 27 26 26 26 25 24 23 24 25 28 28 28 27 26 26 27 26 28 29 30 30 30 29 28 28 29 31 31 30 27 26 27 27 27 25
17 17 16 17 19 19 18 20 20 23 24 25 25 25 24 24 23 23 25 28 28 28 29 28 26 26 28 27 25 24 26 24 25 28 31 33 33 32 29 28 29 30 28
14 15 14 12 12 16 21 20 18 18 22 27 25 24 23 25 26 28 28 28 26 26 27 27 27 26 24 24 11 3 3 8 19 20 22 27 31 32 32 31 30 31 31
11 11 11 10 8 8 8 12 15 15 15 15 15 15 14 15 16 17 19 22 23 24 25 25 23 23 23 18 19 11 1 4 3 9 12 14 18 24 27 31 29 29 29
11 10 9 8 7 6 6 6 8 9 9 8 9 10 10 10 11 12 13 15 18 20 22 24 22 22 21 20 17 20 22 11 2 3 5 9 16 22 21 21 23 25 27
11 9 8 7 6 4 3 3 4 4 5 6 7 9 9 8 10 10 11 12 15 17 19 21 21 20 19 20 19 15 14 18 19 7 5 5 11 13 15 16 18 21 22
11 10 9 7 6 5 3 2 1 2 3 5 6 7 6 6 5 6 7 8 9 11 15 18 18 18 18 18 18 15 14 6 5 8 5 7 8 11 15 18 19 20 20

GFSSE_925_spd_063.txt.gz
Wind_Speed
19 23 22 19 18 17 16 15 14 13 12 11 9 9 9 9 12 12 17 15 13 12 14 13 14 15 16 17 16 16 16 16 16 15 14 13 13 14 12 12 10 10 10
28 23 23 21 19 18 16 14 12 11 10 9 8 9 10 12 14 16 15 14 13 12 13 13 13 15 15 16 15 15 15 15 14 14 14 15 13 10 9 9 9 8 8
30 23 22 20 19 18 16 14 13 12 11 10 9 10 11 14 13 15 15 14 13 11 12 12 13 13 14 13 13 13 13 13 13 11 11 10 11 12 12 5 6 8 8
27 23 21 20 19 17 16 15 14 13 10 7 7 12 12 16 15 14 13 12 12 12 13 12 12 12 12 11 11 10 11 12 12 13 10 10 10 11 16 14 9 9 10
24 24 23 21 19 18 16 17 14 10 7 7 9 12 13 14 13 14 11 10 10 12 13 12 12 12 11 11 10 10 9 9 11 14 13 11 10 10 13 16 14 11 13
24 22 21 20 20 18 18 17 12 8 6 8 14 12 11 13 12 13 9 8 9 11 12 11 11 11 10 9 9 9 9 9 10 11 12 12 10 10 9 10 8 7 8
25 22 21 20 19 20 18 15 10 7 6 11 15 13 8 11 11 8 6 7 8 10 10 10 10 9 8 7 8 7 7 7 8 8 8 7 7 6 7 6 6 6 6
24 22 20 19 18 19 17 13 9 6 7 13 14 13 11 10 11 10 7 7 7 8 8 8 8 8 6 5 5 6 4 4 6 6 6 5 6 7 7 7 7 7 7
23 20 19 18 18 17 16 13 9 5 7 12 15 15 10 9 8 7 4 6 5 5 6 6 7 6 4 3 3 3 3 2 3 4 4 4 4 5 7 8 7 7 7
22 20 19 18 18 18 15 12 8 7 6 9 15 14 13 12 10 8 6 4 3 3 5 6 5 4 3 2 2 1 1 1 1 2 1 2 3 3 6 7 7 6 6
19 19 20 18 18 18 16 13 10 8 7 7 10 12 11 11 10 9 7 6 4 3 4 4 3 3 2 3 3 4 3 2 3 3 2 1 0 2 6 7 7 6 5
16 14 15 18 18 18 16 14 12 10 8 7 8 8 8 8 8 8 7 7 6 5 5 5 3 3 3 3 4 5 6 5 4 5 4 4 3 4 6 7 6 6 5
16 15 16 18 18 18 17 15 14 12 10 8 7 7 7 7 8 8 8 8 7 7 8 7 6 5 4 5 5 6 7 8 7 7 7 6 6 6 6 8 7 6 5
21 20 17 19 19 18 16 14 13 13 12 11 9 9 8 8 8 8 8 8 9 9 9 9 8 7 7 7 8 8 8 9 9 9 9 9 9 9 8 8 8 7 5
21 20 18 19 19 18 17 15 14 14 14 12 12 12 11 10 9 8 9 10 10 11 10 10 9 9 10 10 11 11 11 12 12 12 11 11 12 12 12 11 10 8 7
21 20 18 19 19 19 17 16 15 14 15 14 14 14 14 13 12 12 11 11 12 12 12 12 11 11 12 12 13 14 14 14 15 15 14 14 14 15 16 14 13 11 10
20 18 19 19 19 19 19 17 16 15 15 15 15 15 15 15 15 14 14 14 14 14 14 15 15 16 16 16 16 15 16 16 16 17 17 18 17 17 18 18 16 15 13
19 20 19 19 18 18 19 18 18 17 16 16 16 15 15 15 15 17 18 18 17 17 17 18 18 19 20 20 20 20 19 20 20 21 22 21 21 20 19 20 20 19 16
17 18 19 19 19 18 18 19 20 20 20 18 17 17 16 16 17 19 20 20 19 20 20 21 21 21 21 21 23 24 24 24 24 24 25 26 26 25 24 22 22 23 22
16 18 18 19 20 20 17 18 19 23 23 22 22 22 20 20 20 21 22 23 23 23 23 23 23 23 23 21 22 24 24 25 25 25 26 27 29 28 27 25 23 23 25
15 17 19 18 17 17 19 18 18 20 22 24 24 24 22 22 21 21 22 23 23 24 25 25 23 22 21 23 17 16 22 20 19 20 19 21 24 25 26 26 24 24 25
13 15 16 16 18 20 20 18 16 14 18 21 19 19 20 22 23 24 26 26 26 25 25 24 23 17 18 21 8 4 4 8 14 16 15 14 15 16 19 22 23 24 25
12 11 10 11 11 12 16 19 17 16 14 12 13 13 15 16 18 19 20 21 22 22 24 25 25 23 16 18 18 9 1 4 2 8 11 14 13 14 12 13 15 16 19
11 10 10 10 9 8 8 9 11 12 11 10 8 9 9 10 10 12 12 14 16 17 19 21 22 22 20 15 16 19 20 8 2 2 3 7 11 14 14 14 14 14 14
12 11 10 9 8 7 5 5 5 5 6 6 6 7 7 8 8 9 10 11 12 14 16 17 18 20 22 20 18 11 11 14 12 6 2 5 6 9 13 13 13 16 16
13 12 12 10 9 7 6 4 3 3 3 4 4 5 5 4 4 3 4 5 6 8 9 12 14 17 19 20 20 17 15 7 5 6 4 6 6 8 10 12 16 14 14

GFSSE_925_spd_066.txt.gz
Wind_Speed
17 20 22 20 18 16 14 14 12 12 12 10 9 8 9 12 14 15 14 13 13 14 14 15 16 16 16 17 17 16 16 16 16 16 14 14 14 12 11 11 10 10 10
22 22 22 20 18 17 14 14 12 10 10 9 8 9 12 14 16 15 13 13 12 14 14 15 15 15 15 15 16 16 15 14 14 14 17 15 13 10 7 8 9 10 9
25 23 20 20 17 16 14 14 12 11 9 9 10 11 14 15 15 14 13 12 13 14 14 14 14 13 13 13 13 13 13 13 12 13 15 11 12 17 10 9 10 10 11
24 22 21 19 18 16 15 13 13 11 9 8 11 11 14 14 14 13 12 12 13 14 13 13 13 12 12 13 11 11 12 13 15 14 11 11 11 16 16 13 10 13 15
23 22 20 20 19 17 16 16 13 9 6 8 11 13 14 13 13 12 11 12 13 13 13 12 11 12 12 11 11 10 10 12 16 12 10 10 10 13 13 12 12 13 16
21 20 21 21 20 18 18 15 11 7 6 10 12 11 13 11 14 10 10 11 12 12 11 11 11 11 11 10 10 10 10 11 11 9 10 10 10 9 9 8 7 8 7
21 19 19 20 19 19 18 14 10 7 9 14 11 11 12 11 10 8 7 9 10 11 10 10 9 9 9 9 8 7 7 9 8 8 7 6 7 7 9 8 9 8 6
20 19 18 19 18 18 17 13 9 6 12 15 12 9 10 11 10 7 7 8 8 8 8 7 7 6 6 6 6 5 4 6 6 6 5 5 7 8 9 9 9 9 9
18 18 18 16 16 16 15 12 8 7 13 16 15 11 11 11 8 5 5 6 6 6 6 5 5 4 3 2 2 2 2 3 4 3 4 3 4 5 8 9 9 10 9
17 16 17 16 16 15 12 11 8 8 11 17 14 13 12 11 9 6 4 4 4 5 5 4 3 2 1 1 1 1 1 2 1 3 2 1 3 3 6 8 8 8 8
15 14 16 15 15 14 12 10 8 8 9 13 13 12 9 6 7 5 7 5 4 4 4 4 3 3 2 3 3 3 1 2 2 2 2 4 1 2 6 7 8 7 7
17 15 14 14 14 13 11 10 9 8 7 8 9 8 7 6 6 7 6 7 6 5 5 5 4 3 2 3 4 4 3 4 4 4 4 6 4 3 5 7 7 7 6
16 15 13 13 13 13 12 11 10 8 8 8 8 8 6 6 4 5 6 5 5 6 5 5 4 4 5 4 5 5 5 5 5 5 6 7 6 6 7 8 8 7 6
14 14 12 14 13 14 12 12 10 10 9 8 8 7 6 6 6 6 6 6 6 6 7 6 5 6 7 6 7 6 6 6 6 7 8 9 9 9 8 9 9 8 7
13 14 13 14 15 15 14 12 10 11 10 9 8 8 7 7 6 6 6 7 7 7 7 7 6 6 7 8 8 8 8 8 9 9 9 12 11 11 11 10 11 10 9
14 15 15 15 15 15 15 13 11 11 11 11 9 9 9 8 8 8 7 7 8 8 7 7 7 7 8 8 9 9 9 9 10 10 10 10 13 12 13 14 13 13 12
15 15 16 15 15 15 15 13 12 11 11 10 9 9 10 10 9 9 9 8 8 8 9 9 9 10 10 10 11 11 11 11 11 11 11 11 11 14 15 16 17 16 15
12 14 15 14 14 15 14 14 13 11 11 10 10 9 10 11 11 10 10 10 9 9 9 10 11 11 12 12 13 13 12 12 13 13 13 13 13 13 15 17 18 18 18
11 13 14 14 15 15 15 14 13 12 13 11 11 11 11 11 12 12 11 11 11 11 12 12 12 13 13 14 14 14 14 15 15 14 15 16 16 17 16 16 19 19 21
9 11 14 14 16 15 14 13 13 13 14 14 14 13 12 12 12 13 13 14 12 13 14 14 15 15 15 16 15 16 16 16 15 16 17 16 15 15 16 15 14 15 18
9 10 13 14 14 15 15 14 13 14 14 14 15 15 14 14 14 14 14 14 14 15 16 16 16 16 16 15 13 14 15 13 14 15 14 12 11 11 10 11 13 13 15
7 10 11 12 13 15 14 13 12 10 11 12 11 13 14 14 14 15 15 16 15 15 17 17 16 16 14 14 10 9 5 13 14 10 10 8 8 8 7 8 9 11 13
6 8 10 12 14 15 14 12 10 11 10 8 7 8 9 13 14 16 15 15 16 17 19 19 18 15 16 13 14 10 2 7 2 5 6 7 9 8 6 8 9 9 10
7 7 9 11 12 13 14 12 12 11 11 7 7 9 10 11 12 12 12 12 11 12 14 16 15 17 18 17 11 15 16 7 4 3 4 6 6 9 8 8 6 7 9
10 9 8 9 9 9 9 8 7 7 5 6 6 6 7 9 10 10 11 12 12 12 14 15 14 15 16 17 17 12 12 11 11 5 4 6 7 7 7 7 6 7 7
12 12 11 10 8 8 8 7 5 5 4 4 5 5 5 5 7 7 8 8 9 9 9 10 11 13 17 17 20 21 17 7 11 8 4 5 7 10 10 8 6 5 5

GFSSE_925_spd_069.txt.gz
Wind_Speed
18 21 21 19 17 13 13 12 11 9 10 9 9 9 11 13 14 14 13 14 14 15 16 16 17 17 17 17 16 16 16 17 18 18 16 15 13 12 12 14 11 12 11
23 22 22 19 18 15 13 12 10 10 9 9 9 10 13 13 14 13 13 13 14 14 14 14 16 16 16 15 15 15 15 16 17 16 16 18 18 10 10 11 12 12 11
23 22 22 19 18 16 14 12 11 9 9 9 10 13 14 15 14 14 13 13 13 13 13 14 14 15 15 14 14 14 16 16 18 17 14 14 18 15 13 13 13 16 13
23 22 20 20 18 16 14 13 11 10 9 10 11 14 13 14 14 12 13 13 13 13 13 13 13 14 13 12 11 13 16 18 15 12 13 14 15 16 14 14 16 19 16
22 21 20 20 19 17 14 13 11 8 8 11 12 14 14 13 13 11 13 13 13 12 12 12 13 13 12 12 11 12 15 16 14 13 11 12 12 11 11 9 11 12 12
20 19 19 19 18 16 16 14 10 8 9 13 14 13 12 12 11 11 12 13 13 12 12 12 12 11 11 11 11 11 13 13 13 10 9 10 9 10 11 11 11 9 7
20 19 19 17 16 16 16 12 9 9 12 12 12 12 11 12 7 8 10 11 12 11 11 10 10 10 10 9 8 8 10 12 10 8 8 9 9 11 11 12 12 12 10
20 18 17 16 16 15 14 11 9 9 15 11 10 9 10 11 8 5 7 9 9 9 9 8 7 7 7 7 6 5 5 7 7 7 6 6 8 9 11 11 12 12 11
18 18 17 16 16 15 13 10 7 11 15 14 14 9 10 11 6 2 6 7 7 7 6 6 5 4 4 3 3 3 4 6 7 4 4 4 6 6 10 10 11 11 11
17 15 19 17 15 14 11 9 7 10 15 14 14 13 12 10 6 3 4 5 5 5 4 3 2 2 1 1 1 2 3 4 3 3 2 2 2 3 7 9 10 10 10
16 17 16 17 17 14 12 9 7 9 13 13 12 11 9 7 7 3 6 3 4 4 3 3 2 1 1 2 3 3 2 2 2 2 2 5 3 2 5 7 9 9 9
16 16 14 15 16 16 12 10 8 8 9 11 10 10 8 7 7 7 6 6 4 3 4 4 3 3 2 3 5 5 3 4 4 4 4 8 5 3 5 7 7 8 8
18 14 13 14 16 16 12 11 9 8 9 9 10 9 8 7 5 7 5 4 4 3 4 5 5 3 5 4 4 4 5 5 5 5 6 9 7 5 5 8 8 7 7
19 19 17 15 13 13 13 12 10 9 9 9 9 9 8 7 6 6 6 5 5 5 5 7 6 6 6 6 6 6 6 6 6 6 7 11 9 8 7 8 10 9 7
10 8 12 13 13 13 14 13 11 10 10 10 9 9 8 7 6 6 6 6 6 6 7 7 7 7 7 7 7 8 8 8 8 8 8 12 12 10 10 9 10 9 8
11 15 17 16 16 14 14 13 12 11 11 11 10 9 10 8 7 7 6 6 7 7 7 8 8 7 7 8 8 9 9 9 9 9 9 10 13 12 12 12 12 11 11
15 15 16 16 16 15 15 15 12 11 11 11 11 10 10 10 9 8 7 7 7 7 8 9 9 9 9 9 10 10 10 10 10 11 11 11 11 14 14 13 14 14 13
12 15 14 14 14 14 14 13 12 11 11 11 11 10 10 10 9 8 8 8 8 8 9 9 9 10 10 11 11 11 11 11 12 13 13 14 13 12 13 15 14 16 16
12 14 15 15 14 14 12 12 13 12 12 11 11 10 10 10 10 10 9 9 9 10 10 11 11 12 12 13 13 14 14 15 14 15 15 15 15 16 14 14 17 18 18
10 13 14 14 14 14 12 12 12 13 13 13 12 12 11 11 11 11 11 11 11 12 13 14 14 14 15 15 15 16 16 16 16 15 15 16 15 14 13 14 13 15 14
9 12 14 15 14 15 15 14 14 14 14 14 14 13 12 12 11 12 12 12 13 13 14 15 15 15 17 17 15 14 18 17 16 16 14 14 12 10 9 8 9 11 11
10 12 13 14 14 15 14 15 14 14 13 12 11 11 12 12 12 12 13 13 14 15 15 18 17 17 18 17 8 11 4 12 16 16 10 9 8 8 7 7 7 8 9
11 10 12 12 12 12 12 11 9 10 9 6 7 8 8 9 10 13 16 17 19 19 21 21 21 19 15 15 14 10 3 4 6 6 7 7 8 7 7 8 9 7 6
11 10 11 11 11 11 14 11 11 11 11 11 7 7 9 10 10 11 10 10 10 12 14 16 15 15 15 16 14 19 22 14 4 5 6 8 7 5 6 6 7 5 5
11 10 9 9 8 9 9 10 11 11 7 6 5 5 5 6 7 9 9 10 10 10 12 13 12 12 14 17 17 15 13 12 16 5 5 6 8 8 6 3 6 6 4
11 11 12 11 9 8 8 7 8 7 6 6 5 5 5 4 5 7 8 8 9 9 9 9 10 11 12 14 17 16 16 8 7 8 6 7 6 6 5 7 6 3 3

GFSSE_925_spd_072.txt.gz
Wind_Speed
24 28 24 20 17 16 15 15 13 11 12 11 12 14 16 17 16 16 17 16 19 20 19 19 19 18 18 18 18 19 21 21 21 22 22 17 14 14 15 15 15 16 14
26 27 24 22 18 16 15 16 13 12 10 11 13 15 15 16 16 16 16 16 17 17 17 17 18 16 17 17 18 19 20 18 17 19 22 22 17 16 17 18 17 15 15
27 25 23 21 19 16 16 14 12 11 10 12 15 15 16 17 16 16 16 16 17 16 16 16 16 15 15 17 19 20 20 16 14 14 18 18 19 17 18 19 21 18 16
29 25 22 21 19 17 16 13 13 13 14 15 17 16 16 16 15 16 16 16 16 16 16 15 15 14 14 15 18 20 17 14 16 16 16 16 14 13 13 13 15 15 15
25 25 21 21 19 17 15 14 13 13 15 16 15 16 15 15 14 15 16 15 15 16 15 14 14 15 15 15 17 17 16 18 18 13 11 12 10 13 13 11 11 10 10
25 26 21 20 18 16 15 14 12 13 15 17 16 15 15 14 14 14 15 15 15 15 14 13 13 14 14 14 15 16 16 16 14 14 12 8 11 12 12 12 12 11 8
28 24 22 19 17 16 16 13 12 14 15 17 16 15 15 10 12 12 13 14 13 13 12 12 12 13 12 11 11 12 14 14 12 10 5 9 12 12 12 12 13 12 12
26 24 22 18 16 17 14 12 12 16 14 15 13 13 14 12 9 9 11 12 12 11 10 10 10 9 9 8 8 8 9 9 10 7 4 7 8 10 11 12 12 12 12
27 23 21 19 17 16 13 11 12 17 14 14 13 13 15 11 6 6 9 10 9 9 8 7 7 6 5 5 6 7 8 10 10 6 3 5 7 7 9 11 11 11 11
24 23 20 20 18 17 14 10 12 16 15 17 15 15 14 11 6 6 7 8 7 7 6 5 4 4 3 3 3 4 5 7 6 4 3 4 5 4 6 8 10 10 10
23 20 19 19 16 13 12 11 11 14 14 15 14 13 12 8 7 6 7 4 5 5 4 3 2 2 2 4 6 4 3 5 4 2 5 6 6 4 4 6 8 8 9
21 18 20 21 19 16 13 10 10 12 14 13 11 11 11 10 8 10 4 5 4 3 3 2 1 1 3 3 5 5 4 3 3 4 7 8 7 4 4 5 6 7 7
17 15 18 18 18 18 14 12 14 9 11 12 10 8 8 11 9 8 5 4 5 3 2 0 0 3 2 2 3 5 5 7 4 4 7 10 9 6 4 7 7 7 7
18 18 18 18 18 18 14 13 15 9 14 14 10 9 9 9 6 5 9 2 1 4 2 6 4 5 3 6 5 6 7 8 7 6 8 10 10 9 7 6 9 9 7
19 17 18 19 20 17 16 14 10 13 14 12 12 11 9 8 8 8 8 8 7 7 6 7 6 6 7 7 7 9 9 8 10 9 10 11 11 10 9 8 8 10 9
16 16 16 17 14 17 16 16 13 12 13 13 12 12 11 9 9 9 8 8 8 9 8 7 7 7 7 8 9 9 10 10 10 11 12 13 13 13 12 11 11 11 12
12 13 16 17 16 16 17 15 16 13 12 14 13 11 12 12 9 8 9 9 8 8 7 8 8 10 10 11 11 11 12 12 12 12 13 14 14 15 14 12 12 14 14
16 18 19 19 19 18 19 19 18 12 12 10 11 11 12 12 11 11 10 10 9 9 9 9 9 10 11 12 13 13 14 14 15 13 14 15 16 17 15 13 13 14 15
14 18 18 18 19 18 15 16 16 14 11 13 12 11 11 12 12 12 11 10 9 9 10 10 10 11 12 13 14 15 17 18 18 17 16 16 16 17 17 16 14 16 16
14 13 16 18 18 17 16 15 14 12 13 12 12 12 12 12 13 13 12 10 10 10 11 12 12 13 15 16 17 19 19 20 19 18 19 18 17 15 14 11 14 15 13
12 16 18 17 17 16 17 17 16 16 15 14 15 11 13 12 12 13 13 12 11 12 13 12 12 13 15 16 15 18 20 20 19 23 21 19 15 11 12 11 10 10 10
15 14 16 20 19 19 17 16 15 15 16 17 18 16 14 15 16 14 11 12 14 14 14 15 16 16 18 18 13 12 3 8 18 20 22 15 11 7 5 4 6 6 6
18 19 18 17 19 18 18 15 15 14 11 12 9 14 13 13 11 14 14 15 17 17 18 18 19 17 17 20 18 11 3 3 3 3 8 10 6 6 6 8 9 5 6
20 19 19 18 19 19 19 17 19 17 12 10 10 12 14 14 14 15 15 14 14 14 14 15 14 15 15 15 15 15 18 18 3 3 5 8 10 10 9 6 3 1 3
13 19 20 19 19 21 22 19 17 13 9 9 11 10 9 10 9 10 9 10 10 10 11 12 13 12 12 15 16 16 18 18 16 5 4 9 9 8 7 6 5 3 3
13 12 15 17 16 16 15 17 15 16 14 9 7 6 6 6 7 8 8 8 9 9 9 10 10 11 12 13 12 14 16 10 6 9 7 11 9 7 7 5 7 5 4

GFSSE_925_spd_075.txt.gz
Wind_Speed
30 30 24 22 20 17 17 17 15 14 14 15 18 19 19 18 18 18 22 23 23 21 20 19 19 19 18 17 20 22 22 23 24 22 17 17 17 18 18 17 18 18 16
37 31 26 23 21 18 18 18 14 12 15 18 18 20 19 18 18 18 19 21 20 19 18 17 18 18 17 19 19 18 19 18 19 23 20 20 19 21 22 21 19 17 16
37 32 27 24 21 19 19 15 14 14 17 21 20 19 18 18 18 18 19 18 18 17 16 16 17 17 19 20 19 17 16 14 15 19 18 18 17 17 17 18 17 16 17
35 32 28 24 22 20 16 15 15 17 21 20 21 20 18 19 19 19 19 18 18 17 16 15 17 16 18 19 18 17 15 18 20 18 13 11 13 12 13 11 11 12 14
32 30 27 24 21 19 17 16 16 18 23 20 19 18 18 19 19 19 19 20 18 17 15 15 17 17 18 17 17 19 19 17 14 9 10 10 13 13 13 13 12 11 11
27 27 25 24 21 19 17 15 16 19 22 19 19 17 16 18 18 18 19 19 17 16 15 16 17 16 16 16 15 16 17 16 10 10 11 12 14 12 13 13 13 12 11
27 26 23 23 21 19 17 15 16 20 22 21 19 17 15 15 17 18 18 17 15 15 15 15 15 13 13 13 13 14 13 13 10 8 10 10 12 12 12 12 13 12 12
29 27 24 21 20 21 16 15 17 18 21 19 19 17 16 13 14 16 17 15 14 13 13 13 12 11 10 10 10 10 9 10 8 5 7 10 9 10 10 11 12 12 11
28 27 25 21 21 18 16 15 19 18 18 16 17 16 15 12 12 14 14 14 13 12 10 10 9 8 7 7 8 9 9 9 8 4 4 7 7 6 8 9 10 10 10
28 27 23 23 21 19 16 15 17 16 16 17 16 17 15 9 10 11 12 11 11 10 9 8 6 5 5 5 5 6 8 6 5 1 2 5 7 4 5 7 8 8 9
28 25 23 21 19 18 16 15 18 16 17 16 15 16 13 8 8 10 10 8 8 7 7 6 5 4 4 5 6 5 5 3 3 0 3 5 7 5 4 4 5 6 7
30 26 21 19 17 16 14 14 16 17 17 16 15 14 11 8 8 8 6 5 5 5 5 4 3 3 4 3 2 3 1 0 0 4 7 7 7 6 5 5 4 5 4
23 25 23 21 16 15 13 12 14 16 17 16 14 12 13 11 12 7 5 5 6 5 5 4 3 4 3 0 2 2 2 4 6 5 6 8 8 9 6 7 6 5 5
19 21 24 19 19 15 13 12 13 14 15 16 14 11 12 14 10 7 8 4 4 6 4 5 3 3 5 3 4 3 4 6 6 6 8 9 10 9 9 7 9 8 7
28 23 21 22 21 21 16 13 14 15 15 15 14 12 12 13 11 9 9 9 5 5 6 6 5 5 5 7 7 7 8 7 7 9 11 11 11 11 10 9 9 10 10
23 24 23 24 23 23 19 17 16 10 16 17 17 16 14 12 12 10 10 9 8 8 7 8 8 8 7 8 8 9 10 10 10 11 12 14 14 13 11 11 11 11 11
27 22 22 23 23 22 21 18 17 14 16 16 19 15 17 13 13 12 12 11 11 11 10 10 8 9 8 10 12 12 11 12 13 14 14 15 16 16 14 13 11 11 12
24 25 26 22 20 21 23 20 18 19 15 18 16 16 15 15 16 13 12 13 11 10 9 9 10 10 10 10 12 12 14 14 14 16 18 16 17 15 17 16 13 11 12
23 23 23 25 26 24 22 21 21 18 14 16 16 14 15 14 14 14 14 12 11 11 10 11 10 10 11 11 11 15 16 18 19 19 19 18 16 17 15 14 11 11 12
19 21 23 23 23 21 21 22 22 19 14 13 16 16 14 15 15 14 12 11 11 12 11 11 11 12 13 14 15 18 19 21 22 22 22 22 20 16 17 12 10 10 10
21 18 25 26 23 23 22 21 21 21 20 21 13 13 16 15 13 14 14 12 12 13 13 11 10 11 14 13 15 18 18 17 20 20 19 20 21 15 11 7 6 8 5
25 25 24 25 27 26 26 26 22 22 22 19 19 17 12 14 13 12 16 15 15 15 15 15 15 16 16 16 14 16 3 11 14 17 17 16 15 10 8 8 6 5 3
26 26 28 29 26 27 25 24 21 21 19 18 19 19 17 18 18 17 16 14 16 18 18 17 16 17 18 20 19 12 3 3 3 2 7 5 8 10 9 8 6 5 5
27 26 26 25 28 24 24 24 26 26 16 17 16 17 18 16 17 14 16 17 17 18 18 18 17 17 14 16 15 13 15 12 2 3 5 7 8 8 10 8 9 10 9
23 19 22 20 21 26 25 25 25 23 20 16 16 17 17 14 13 13 13 14 14 13 13 13 12 12 12 13 14 15 13 14 14 8 3 7 10 12 10 9 11 12 9
12 14 14 15 17 18 19 21 21 20 17 17 18 19 17 13 11 9 9 9 9 9 10 11 11 11 11 12 12 13 12 8 4 9 4 8 11 11 5 13 11 10 7

GFSSE_925_spd_078.txt.gz
Wind_Speed
28 27 25 24 22 20 18 18 17 15 17 18 20 18 18 19 22 25 25 23 22 20 19 19 19 20 20 20 19 19 19 20 18 17 19 19 22 20 18 18 19 17 15
36 30 27 25 22 21 20 18 15 16 21 18 19 18 18 18 19 23 22 22 20 18 18 18 18 18 19 18 19 17 15 17 20 19 20 20 19 19 17 18 17 17 17
35 30 27 25 23 23 21 18 15 18 21 20 19 18 18 19 19 20 19 18 18 18 17 17 17 17 19 18 16 13 11 15 17 16 14 13 12 13 13 14 13 14 16
34 30 28 26 24 23 20 18 18 22 21 20 19 19 19 20 20 20 19 18 18 17 17 16 18 19 20 18 14 14 16 14 13 11 10 10 13 13 11 10 10 10 12
33 30 27 25 24 21 19 20 22 24 22 19 18 19 20 20 20 20 19 19 17 17 16 17 19 19 19 17 17 14 15 12 11 10 10 12 13 12 12 11 10 10 9
32 28 25 24 22 19 19 22 25 24 23 20 17 19 20 20 21 21 20 19 17 17 16 18 19 18 17 16 16 14 11 10 8 11 12 13 13 11 12 12 11 10 9
29 26 24 23 21 19 18 21 26 25 23 20 18 18 19 19 20 21 20 19 18 17 17 17 17 17 15 13 13 11 9 8 8 9 11 11 11 10 11 11 11 10 10
28 26 23 22 20 18 17 19 23 23 23 20 17 18 17 18 18 19 18 18 18 17 16 15 14 14 13 12 11 9 7 6 6 6 8 9 8 9 10 10 10 10 9
27 23 22 20 20 17 16 19 21 22 21 21 18 16 14 15 17 17 17 16 15 14 14 13 12 11 10 9 9 8 8 5 4 4 4 6 6 6 7 8 8 8 8
28 23 23 21 19 16 16 19 20 21 19 19 18 16 15 13 14 15 15 15 14 13 11 10 9 8 7 7 7 7 6 3 1 1 0 3 5 4 5 5 6 7 7
25 27 22 21 18 16 16 18 18 20 19 17 18 16 13 10 11 12 12 11 11 10 10 9 8 6 6 6 6 7 6 3 1 2 1 2 4 5 4 3 4 5 5
22 24 23 21 19 16 16 19 17 18 20 19 18 16 12 9 10 10 8 7 8 8 7 7 6 5 5 4 3 4 3 2 2 3 3 4 4 5 5 4 4 4 5
7 19 24 22 19 16 14 17 19 19 19 18 18 17 14 11 11 10 7 6 7 7 7 6 6 5 5 2 2 2 3 4 4 6 5 6 6 6 5 7 5 5 5
16 17 23 24 18 15 13 13 17 19 19 19 17 15 15 13 12 11 9 6 7 7 7 7 6 5 5 4 3 3 4 5 6 6 7 7 8 8 8 7 8 8 7
35 35 24 24 23 18 16 13 15 17 19 17 17 16 16 13 14 12 9 9 7 8 7 7 6 6 6 7 7 8 9 8 8 8 9 10 11 10 9 8 8 8 10
34 41 38 20 24 24 23 17 16 17 17 18 16 16 15 14 13 12 11 11 10 8 7 7 7 7 7 7 8 8 9 10 10 11 12 13 13 14 13 10 9 8 9
35 29 31 33 27 26 24 21 18 18 20 22 20 17 16 15 13 13 12 12 11 10 9 9 9 8 9 8 10 12 11 11 12 14 16 17 16 15 15 15 13 9 8
31 34 34 33 31 18 22 23 21 22 17 22 25 21 19 18 16 16 14 13 11 10 10 10 10 10 11 11 11 11 13 14 13 13 15 17 19 16 15 18 16 12 10
30 31 33 31 27 27 37 31 23 21 21 19 23 23 19 17 18 17 16 14 13 11 12 12 12 11 11 12 13 13 15 17 17 19 20 18 15 17 17 14 16 12 12
28 29 29 29 28 30 30 26 25 24 21 14 18 22 18 19 15 15 15 14 12 12 13 12 13 12 13 13 16 17 18 19 21 22 20 21 22 19 15 14 11 10 8
25 28 30 33 35 31 29 28 26 27 23 18 15 20 20 21 17 16 15 13 13 15 13 13 13 14 15 15 14 18 22 21 23 24 23 21 19 15 16 13 11 8 5
27 26 26 28 28 27 29 29 26 29 27 28 23 20 19 18 19 20 19 17 15 14 14 13 14 14 17 16 13 17 4 12 18 18 14 10 10 9 13 13 11 7 7
27 29 26 28 29 30 30 27 24 23 23 24 23 24 21 17 20 21 20 21 19 18 16 17 16 16 17 19 19 9 2 3 4 5 5 12 6 7 11 12 11 10 10
29 28 26 28 28 29 29 28 29 26 20 25 26 26 23 22 23 22 18 18 17 18 19 19 19 17 14 17 18 15 17 14 3 3 3 3 3 6 8 9 12 11 11
28 26 25 25 25 27 27 28 27 29 27 22 24 24 24 21 17 18 18 17 17 18 19 19 16 15 14 14 14 14 12 14 16 8 4 6 5 6 7 10 12 13 11
22 20 20 21 21 25 27 26 26 29 26 21 17 20 20 20 18 18 17 17 17 15 15 14 14 14 14 14 13 13 14 8 4 4 3 6 6 6 7 11 13 13 10

GFSSE_925_spd_081.txt.gz
Wind_Speed
26 27 25 23 21 19 19 18 16 20 18 17 18 18 19 22 25 25 22 19 18 19 19 20 20 20 18 18 18 20 19 17 19 20 21 20 19 18 17 18 18 15 13
33 29 26 25 22 19 19 18 17 23 20 18 17 18 20 23 24 23 22 20 19 19 18 19 20 19 17 16 15 17 18 19 18 18 18 17 16 15 15 16 16 17 14
32 30 26 25 22 20 19 17 18 22 21 18 17 17 19 21 22 22 21 19 18 18 18 19 18 17 16 13 12 14 15 15 13 11 10 10 11 11 11 12 12 14 14
31 29 26 23 22 21 18 17 20 20 20 18 18 18 18 19 19 19 18 18 18 17 18 18 17 17 15 13 14 15 14 12 10 8 10 12 13 12 11 10 10 10 11
30 28 25 23 22 19 16 17 22 20 18 16 17 19 19 19 18 17 17 18 17 18 19 20 19 17 14 14 14 14 12 11 10 10 12 13 13 12 12 11 10 10 10
28 26 23 22 20 17 15 18 22 20 18 16 18 19 20 19 18 18 17 17 19 20 20 20 19 16 15 14 13 11 10 9 10 10 12 12 13 11 11 11 11 10 9
27 24 22 20 18 15 16 20 19 21 17 16 17 18 19 20 19 18 17 17 18 19 19 18 17 15 13 11 10 9 8 7 8 9 10 10 10 10 11 11 11 10 9
26 23 21 19 16 15 16 21 18 20 17 15 16 17 18 19 19 18 17 16 17 17 17 16 15 13 11 10 8 7 6 5 5 6 8 9 8 9 9 10 10 10 9
24 22 20 18 16 14 15 19 19 19 17 15 15 16 18 18 18 16 16 15 14 14 14 13 12 11 9 8 7 5 5 3 3 3 5 7 7 7 8 9 9 9 9
23 22 20 18 16 13 16 19 19 17 18 16 13 13 14 15 16 16 14 13 12 11 11 10 9 8 7 6 6 5 2 2 1 1 2 4 5 5 6 7 7 8 8
20 22 21 18 15 13 15 18 19 17 15 18 14 13 13 14 14 14 14 13 11 10 8 7 6 5 4 4 5 5 3 2 2 2 2 2 3 4 5 5 6 6 7
19 21 22 19 15 12 14 16 17 18 17 17 16 14 11 11 11 11 11 10 10 9 8 7 5 5 4 4 3 3 3 3 3 4 4 4 3 4 6 6 6 6 6
29 19 18 18 17 13 13 16 15 17 18 17 17 15 12 10 11 11 9 9 9 9 8 8 7 6 5 3 3 3 4 4 5 5 5 5 5 5 6 7 7 6 7
42 27 16 13 16 14 11 14 15 16 19 18 18 16 14 12 12 12 10 8 9 8 8 8 7 5 5 4 4 3 4 5 5 6 6 7 7 7 7 7 8 9 9
32 36 22 11 16 17 13 12 16 18 19 19 19 18 16 15 13 12 11 10 8 8 7 8 7 7 6 7 7 8 8 8 8 8 8 9 10 10 9 9 8 8 10
27 28 31 22 20 19 18 15 15 18 20 20 20 20 19 17 14 15 13 12 11 9 8 8 7 8 8 7 8 8 8 9 10 10 11 12 12 13 13 13 12 10 9
30 29 33 32 26 21 21 20 19 16 17 19 20 21 20 18 17 17 15 14 12 11 10 9 9 9 8 8 8 10 11 10 11 13 15 16 16 15 16 15 16 14 12
23 31 33 31 30 32 25 23 22 22 21 21 23 23 22 20 19 18 17 15 12 12 11 10 9 9 9 10 11 10 12 13 14 13 17 19 18 16 16 17 18 17 13
29 29 36 45 36 34 27 26 26 25 28 26 24 27 26 23 20 20 19 16 14 12 13 10 9 9 9 11 12 13 13 15 18 19 21 22 22 21 17 17 15 15 14
36 34 36 34 34 35 34 33 15 27 31 31 25 26 28 29 23 21 19 18 16 15 14 13 12 11 12 12 15 17 18 18 20 23 24 23 23 21 17 17 14 12 15
29 31 38 34 32 37 35 31 31 35 33 30 26 23 27 29 25 22 18 17 17 16 15 14 12 13 13 12 11 16 17 20 23 24 25 23 20 17 15 14 15 13 12
27 32 33 33 39 42 39 28 23 29 35 34 22 21 23 26 26 26 22 19 19 18 16 14 13 11 13 14 10 13 4 8 13 9 11 7 7 10 7 11 12 12 10
18 24 34 35 37 35 35 31 29 29 28 29 26 26 25 26 24 28 25 20 20 17 15 14 14 13 15 14 16 7 2 3 3 11 7 8 7 5 5 9 11 12 12
23 24 24 25 25 26 25 25 25 28 24 24 26 26 25 24 22 23 22 18 17 18 19 19 19 17 16 18 19 15 15 10 3 4 3 3 11 9 6 9 12 12 11
29 25 23 22 22 25 26 27 27 27 24 21 19 15 18 23 21 17 16 15 19 23 20 16 15 15 16 17 16 12 9 12 14 8 5 6 7 4 5 8 13 14 12
22 24 21 21 22 21 24 26 28 28 27 21 21 20 16 23 22 18 16 15 14 13 13 13 12 12 11 12 13 13 13 7 3 5 3 6 7 6 7 8 12 14 14

GFSSE_925_spd_084.txt.gz
Wind_Speed
26 28 26 24 21 18 16 14 16 17 17 16 19 21 22 23 24 22 19 19 19 19 20 20 19 20 19 18 19 17 19 20 21 21 19 18 16 15 17 19 15 15 14
34 30 26 24 22 19 17 15 17 17 18 17 19 20 23 25 24 21 20 19 19 19 20 21 19 18 17 16 17 18 18 18 17 15 15 15 14 14 14 17 17 15 17
35 30 26 24 22 19 18 16 19 18 16 17 17 21 24 24 23 21 20 19 19 19 19 19 18 16 14 15 15 16 15 13 12 11 10 12 12 12 12 12 14 15 15
32 30 27 24 21 20 17 18 19 18 15 16 17 19 22 22 22 19 19 20 19 18 18 18 16 15 14 14 15 14 13 12 12 12 13 14 15 12 11 12 12 12 13
31 29 26 23 22 20 17 18 17 18 14 14 17 18 19 20 19 17 18 18 18 18 18 17 15 14 14 14 14 13 13 13 13 13 14 15 15 13 12 12 11 11 11
30 27 24 23 22 18 17 19 17 17 13 14 16 19 19 17 16 16 17 18 18 17 18 17 15 14 13 13 11 11 11 12 12 13 14 14 14 12 12 12 12 11 10
28 25 23 22 19 16 17 20 17 16 14 14 15 16 16 16 15 15 16 17 17 17 17 16 14 12 12 10 9 8 9 9 10 12 12 12 12 11 11 11 12 11 10
28 25 22 20 17 16 18 21 19 15 14 15 15 16 17 16 15 14 14 14 14 14 14 13 12 9 8 8 7 7 6 6 7 9 10 11 10 9 10 11 11 11 10
26 25 22 19 17 16 19 20 18 16 13 13 16 16 17 16 14 13 13 13 13 13 12 11 10 8 7 5 5 5 5 4 4 5 7 8 8 7 9 10 10 10 10
25 24 23 20 17 16 18 19 13 15 14 11 13 15 17 16 14 13 11 11 12 12 11 10 9 8 6 5 3 3 3 3 2 2 3 4 6 5 7 7 8 8 9
23 25 23 21 17 15 17 19 14 13 14 10 11 11 13 15 15 13 12 11 11 10 9 7 7 6 5 5 4 3 1 1 2 2 2 2 3 3 5 5 6 6 7
18 23 24 21 19 16 17 19 16 13 15 14 10 11 12 12 11 11 11 9 9 8 7 6 5 5 4 4 2 2 2 2 3 3 2 3 3 2 5 6 5 6 6
23 22 24 21 18 16 17 18 18 15 13 16 13 12 11 11 11 11 10 10 9 8 8 7 7 5 4 3 2 3 3 3 4 4 3 4 4 3 5 7 7 6 6
23 25 26 23 19 14 14 16 16 17 16 15 16 14 12 11 12 11 10 9 9 9 8 8 7 6 5 4 3 3 3 4 5 5 5 5 6 6 6 7 8 8 8
29 26 26 28 23 16 13 14 15 15 16 16 18 17 15 13 12 12 11 11 9 10 10 9 7 6 6 6 6 5 5 5 6 7 8 8 8 9 10 10 9 9 9
20 24 32 34 29 21 12 13 14 14 15 17 18 19 18 16 15 15 13 12 11 9 9 8 8 8 7 6 6 6 6 6 7 8 9 10 12 13 13 14 12 13 12
36 33 31 29 25 24 15 12 13 13 16 19 19 19 19 19 18 17 16 15 13 12 11 11 10 9 8 8 7 7 8 7 7 9 10 9 14 15 14 17 16 14 16
33 31 38 29 25 19 18 12 18 17 17 17 19 19 21 21 20 20 18 18 14 14 14 13 11 10 9 8 8 6 9 9 9 11 13 16 18 19 19 16 16 16 17
42 36 36 23 20 19 21 27 27 21 21 21 23 22 23 22 22 23 21 19 16 15 15 13 13 11 9 9 9 10 10 12 14 15 16 19 20 19 17 18 18 15 13
30 25 26 24 24 26 31 32 32 27 23 26 30 26 24 26 24 26 25 21 19 17 16 15 14 13 13 11 10 13 14 15 14 18 20 22 22 21 19 16 15 14 12
25 23 28 26 29 25 24 23 30 31 32 30 26 28 26 26 27 28 25 22 20 19 18 16 14 14 13 11 11 14 14 14 17 17 16 16 14 10 11 14 13 13 13
30 30 31 35 34 32 33 26 26 19 21 23 26 27 25 27 25 28 27 27 21 21 19 17 14 12 10 10 6 6 3 7 11 3 8 15 7 7 8 8 9 9 11
21 28 31 35 34 37 35 28 25 25 21 24 28 28 19 21 22 25 26 28 23 21 18 12 11 14 17 13 12 8 2 3 2 10 4 7 5 4 5 7 8 11 13
17 19 26 29 28 30 32 29 33 26 30 32 29 20 25 24 20 18 15 22 19 11 7 10 13 19 21 19 12 13 13 13 2 4 2 2 9 10 10 8 10 12 13
12 17 18 18 21 23 26 25 25 27 28 25 23 21 21 17 24 21 9 10 9 10 12 20 19 20 13 12 11 9 6 9 11 6 3 5 3 8 4 6 9 11 13
7 13 15 16 16 14 16 19 20 22 22 19 18 16 19 17 18 16 14 12 15 21 21 17 14 11 9 8 9 10 10 6 2 4 3 5 6 8 6 9 10 13 14

GFSSE_925_spd_087.txt.gz
Wind_Speed
23 27 28 26 21 20 17 17 18 16 18 21 21 22 23 23 23 20 19 21 21 21 20 20 19 19 19 17 18 18 18 20 19 20 19 16 17 16 19 16 17 14 15
28 27 28 26 22 20 18 18 21 18 19 21 23 23 23 24 22 20 20 20 21 21 20 19 18 17 18 17 17 16 16 16 16 15 15 14 15 13 17 17 15 16 14
28 28 26 26 23 21 19 19 21 19 17 20 23 24 25 24 21 20 20 20 20 21 19 18 17 15 15 16 15 14 14 13 13 13 14 13 12 13 13 14 14 16 15
28 27 25 26 24 21 20 20 21 19 19 18 22 25 25 23 22 20 19 19 20 20 19 17 15 15 15 15 14 13 12 14 14 14 14 13 13 13 12 12 12 12 15
26 25 26 26 24 22 22 22 20 19 19 18 20 22 24 23 20 19 19 19 20 19 18 16 15 16 16 14 13 13 13 14 14 15 15 14 13 12 12 12 11 11 11
26 25 27 26 25 22 23 22 21 18 17 19 18 20 22 20 18 18 17 19 19 17 16 15 15 15 14 13 12 12 13 13 13 14 14 13 12 11 12 12 11 11 10
28 26 25 26 24 22 24 22 21 17 16 18 20 19 18 16 16 17 17 18 17 15 15 14 15 14 13 10 9 10 10 10 12 12 12 12 10 10 11 11 11 10 10
29 26 24 25 23 22 24 22 20 17 16 17 18 18 17 14 16 16 16 15 15 16 15 13 12 11 10 9 8 7 7 7 8 10 10 9 9 9 9 10 10 10 9
28 26 25 23 21 23 25 22 19 16 16 20 18 17 17 17 17 15 15 15 15 14 14 12 10 8 7 7 6 6 5 5 5 6 7 7 8 7 8 9 9 9 8
29 28 26 23 22 23 25 22 20 17 16 20 20 20 17 16 15 15 14 14 14 14 12 10 9 7 5 4 4 3 3 3 3 2 3 4 5 5 6 6 7 7 7
27 28 26 24 23 25 26 21 21 18 16 16 18 19 19 16 14 13 13 13 13 13 11 10 8 6 5 3 2 2 1 1 2 2 0 1 2 2 4 5 5 6 6
23 27 28 25 23 25 26 22 21 19 18 15 15 16 17 16 15 13 13 12 11 10 10 9 8 6 5 4 3 1 2 1 2 2 1 1 2 1 4 4 5 5 5
24 25 28 26 23 25 27 24 20 20 20 16 11 14 14 13 13 13 12 12 11 10 9 9 8 7 6 5 4 3 2 2 3 3 2 2 3 3 4 6 6 5 5
22 28 27 26 24 23 25 24 21 19 20 18 13 13 13 13 12 11 11 10 9 9 9 8 8 7 7 6 4 3 2 2 2 3 3 3 4 5 6 6 8 8 8
26 26 29 27 27 26 23 22 20 19 19 19 17 15 13 11 12 11 10 9 8 9 9 8 8 8 7 6 5 4 4 4 4 5 5 5 6 7 8 9 10 10 10
31 31 28 28 26 25 30 24 21 19 18 17 17 17 14 13 11 11 11 10 10 9 8 9 9 8 7 7 6 5 4 4 5 5 6 7 8 9 11 12 13 14 13
28 26 26 23 25 25 25 27 22 19 18 19 18 17 17 15 14 13 12 12 11 10 9 9 9 9 9 8 8 6 6 5 5 6 8 7 11 13 14 13 15 15 15
24 25 19 16 17 20 21 23 24 20 18 19 19 18 18 17 16 16 15 13 13 12 12 12 11 10 10 9 8 6 5 6 7 10 12 13 14 16 19 18 18 15 15
29 24 22 25 27 26 22 21 17 19 20 18 19 18 17 16 17 19 17 16 14 14 14 15 14 12 10 10 10 10 10 9 12 14 14 16 19 19 19 18 19 17 15
27 33 35 30 30 27 30 24 20 19 19 18 17 18 18 18 20 20 18 17 17 16 16 16 16 13 13 12 11 11 14 13 14 16 16 18 19 18 16 15 15 14 13
25 25 30 36 37 35 35 18 18 17 12 12 15 14 19 19 21 26 24 22 19 20 20 19 17 15 15 12 11 8 10 15 18 17 16 13 8 14 9 9 11 12 11
32 27 31 31 38 31 24 21 7 8 10 11 9 8 12 17 20 21 24 26 22 22 22 21 19 16 11 7 6 5 4 9 9 7 8 12 13 9 8 10 10 8 9
27 30 27 26 26 29 20 17 16 16 14 19 19 15 16 19 18 23 18 16 14 15 18 17 12 11 8 6 9 7 3 3 3 7 8 9 7 5 5 7 8 7 8
19 27 24 28 38 30 26 20 24 24 20 24 27 28 26 24 17 22 18 11 9 4 1 6 2 5 7 12 13 11 17 10 4 5 3 4 8 10 11 11 10 9 11
18 25 25 24 25 25 28 32 33 27 27 31 28 27 27 27 29 25 16 16 17 11 11 11 5 7 10 16 17 15 9 7 7 6 5 6 6 8 8 8 10 11 11
5 10 13 13 12 14 16 18 23 24 24 20 20 21 25 26 21 19 18 19 16 14 14 14 14 18 19 18 13 12 10 5 4 5 5 8 9 8 8 11 11 12 12

GFSSE_925_spd_090.txt.gz
Wind_Speed
19 26 29 27 23 20 17 16 16 17 21 21 23 23 23 22 21 19 19 21 21 20 19 18 18 17 16 17 19 19 18 17 17 16 19 16 17 17 14 15 13 12 12
25 27 30 28 24 20 19 18 17 19 23 24 25 24 24 23 20 19 19 20 21 20 18 18 18 17 17 17 16 16 16 16 15 14 15 14 14 13 13 16 16 14 14
27 27 28 28 25 21 20 22 19 21 24 25 26 26 25 24 21 21 20 20 20 18 18 17 17 17 16 16 13 13 13 13 13 15 17 12 12 11 11 13 14 14 14
27 27 27 27 25 23 22 22 19 19 23 26 26 26 26 24 22 21 20 20 19 19 17 16 15 16 15 14 12 12 14 14 15 16 12 12 12 11 10 9 11 12 13
27 27 26 28 26 23 24 25 21 18 22 25 27 27 26 24 22 21 20 22 20 18 17 15 15 15 15 13 13 13 14 14 15 12 12 11 10 10 9 9 8 8 10
27 26 27 29 27 25 25 25 23 20 20 22 24 27 26 24 21 21 21 22 20 18 16 16 17 15 13 13 13 13 12 13 12 10 11 12 10 10 9 9 9 8 8
26 26 26 29 27 26 26 25 24 22 21 23 24 26 24 22 21 21 22 21 20 18 15 15 16 14 12 10 10 10 11 12 9 9 9 9 9 9 8 8 8 8 8
26 25 26 29 28 28 27 25 23 22 23 23 24 24 21 20 19 20 20 20 19 17 15 15 14 13 11 9 8 7 7 9 7 7 7 7 8 7 7 7 8 8 8
25 25 25 26 25 29 28 26 21 21 23 24 23 20 18 17 18 19 19 19 17 16 15 14 12 11 10 8 7 6 5 6 5 5 5 5 6 5 6 6 7 7 8
22 23 25 25 24 24 24 25 20 20 22 24 21 20 19 19 18 17 17 16 16 16 15 13 11 10 8 7 6 5 5 4 2 2 2 3 5 3 4 4 5 6 7
22 22 21 23 24 25 25 23 21 20 23 24 22 21 20 17 16 16 13 14 15 14 13 11 9 8 7 6 5 4 4 2 1 2 2 2 2 2 2 2 2 3 4
26 24 23 22 23 26 25 25 21 19 19 19 20 20 18 17 15 13 14 13 13 12 11 9 8 6 4 4 3 4 3 3 2 2 3 3 2 2 3 2 2 2 2
18 24 21 22 24 27 23 25 22 20 18 18 19 19 16 16 14 13 11 10 9 9 6 6 5 5 5 5 4 4 4 4 3 3 3 3 3 3 4 6 5 5 5
13 31 23 19 23 25 23 22 21 20 19 17 17 17 16 15 14 13 12 11 9 8 8 7 6 6 5 5 5 4 4 4 4 3 4 4 3 4 5 6 8 8 9
17 25 24 22 22 24 23 20 20 20 19 17 16 15 14 13 13 12 10 9 9 8 7 7 7 7 6 6 6 5 6 6 5 5 5 6 5 6 7 10 11 12 12
31 19 28 21 18 21 24 23 22 20 18 16 14 15 14 12 12 11 10 10 8 7 7 8 7 7 7 7 7 7 7 6 6 6 5 6 8 8 9 12 12 14 15
21 24 26 22 18 18 17 19 19 22 22 19 17 17 15 14 13 12 11 9 8 8 7 7 7 7 7 7 8 7 7 7 6 7 7 7 9 12 14 15 16 15 16
21 20 30 27 21 21 16 15 14 16 18 21 19 16 16 14 13 12 11 9 9 8 8 8 8 7 8 8 8 7 7 7 8 9 9 10 11 12 14 17 19 17 16
27 21 20 16 21 19 16 15 19 16 15 15 18 18 17 14 14 13 12 10 9 9 9 10 9 10 8 8 8 7 7 7 11 10 11 11 12 14 15 16 19 19 19
30 33 26 22 19 23 18 16 14 17 13 11 12 12 12 12 12 12 10 11 11 11 10 11 11 10 10 9 8 8 9 10 10 12 11 11 12 10 10 11 10 11 14
30 37 40 30 25 22 16 15 16 14 12 12 10 10 9 11 12 12 14 9 11 12 13 13 12 13 12 11 8 11 11 9 11 11 8 8 6 8 10 9 8 8 8
27 25 30 28 22 21 14 10 8 11 12 14 11 11 10 9 10 12 11 11 10 16 17 11 12 13 13 10 8 6 4 5 1 0 6 7 10 7 7 8 7 6 5
30 16 16 25 26 19 18 15 13 19 15 11 14 11 11 8 5 10 12 6 6 9 11 9 8 8 12 6 2 2 3 2 9 7 6 9 8 7 6 5 6 6 5
22 21 21 15 21 20 16 22 24 20 13 4 5 13 13 12 12 13 11 14 10 6 11 11 8 6 2 2 4 1 4 5 3 5 3 7 6 8 7 6 6 6 6
24 25 26 21 20 20 19 22 21 18 16 19 23 19 17 22 21 21 19 20 16 20 20 18 18 16 13 10 8 7 6 10 12 7 7 9 8 8 7 7 8 7 7
16 13 18 23 30 29 31 32 35 29 24 25 31 24 26 26 28 27 25 23 24 29 25 25 23 20 17 17 16 13 12 6 5 9 7 11 11 12 6 10 8 7 8

GFSSE_925_spd_093.txt.gz
Wind_Speed
19 28 29 24 20 19 18 17 18 19 19 19 21 19 19 19 18 18 20 16 18 16 16 15 15 16 18 19 19 17 16 16 17 16 16 19 16 15 14 14 11 12 12
20 27 31 27 22 19 18 16 17 19 20 21 23 21 21 20 18 19 19 18 20 17 18 16 15 15 18 17 16 15 15 15 16 16 15 14 15 14 15 17 15 15 13
21 26 28 27 24 20 18 17 17 19 23 23 24 24 23 21 19 19 20 21 20 18 18 17 16 14 15 14 14 13 13 15 18 18 15 11 11 12 12 15 17 14 14
23 25 26 28 24 21 20 19 20 21 25 25 26 26 24 22 20 20 21 22 20 19 18 17 17 15 12 12 13 14 15 17 16 13 12 11 11 11 11 11 12 14 16
25 24 24 28 25 22 21 19 20 23 24 26 26 26 26 24 22 22 23 21 21 19 16 16 16 15 12 12 13 14 15 18 16 12 11 11 11 11 10 10 10 9 11
20 21 25 26 24 22 23 20 18 22 25 25 26 26 26 24 23 22 25 21 20 18 18 16 15 14 13 13 13 13 14 15 13 10 11 11 11 11 11 11 10 10 10
19 21 25 26 24 23 23 22 20 19 23 24 25 26 27 24 22 23 22 21 20 18 17 18 16 14 12 12 11 12 12 13 9 9 9 10 10 10 10 10 10 9 9
20 22 21 24 24 23 23 23 21 18 22 25 26 27 25 23 22 23 23 21 19 17 16 16 15 13 11 10 9 9 10 11 7 8 8 8 9 8 8 9 9 8 8
20 18 21 21 21 24 24 23 22 20 20 24 25 26 24 21 21 21 23 21 18 16 15 15 13 12 10 9 8 7 8 9 6 5 5 6 7 7 7 7 7 7 8
10 18 19 22 20 21 21 23 21 21 21 23 24 22 21 19 19 20 21 19 17 15 14 13 11 10 8 7 6 5 6 7 3 4 4 2 5 5 5 5 5 5 6
11 13 7 21 22 24 22 21 21 21 22 21 20 19 19 18 18 18 16 18 16 15 13 11 9 8 6 5 4 3 3 1 2 2 3 2 3 3 2 3 3 3 4
24 20 31 23 26 27 25 22 19 18 20 20 18 18 16 17 16 16 15 16 15 14 12 10 9 7 5 4 2 3 2 3 2 2 3 4 3 3 1 2 2 2 3
25 27 41 28 32 31 28 27 23 21 20 21 20 19 18 19 17 14 13 13 11 12 9 8 7 6 6 5 5 4 3 4 3 3 4 4 4 3 4 4 4 4 5
37 32 30 39 34 32 28 29 25 23 21 23 24 22 20 18 18 15 14 13 11 11 9 8 8 7 6 6 6 5 4 4 3 3 5 4 3 4 4 5 7 9 10
29 34 27 30 25 26 32 24 25 23 23 21 21 19 19 16 17 15 14 13 11 10 10 9 8 7 7 7 7 6 5 5 5 4 4 6 5 5 6 7 9 11 12
23 23 8 26 21 19 29 26 26 23 20 22 20 20 18 17 16 15 14 12 11 9 9 8 8 7 7 7 7 7 6 5 5 5 5 6 5 7 7 9 9 10 11
22 22 16 13 23 18 22 24 25 25 23 21 19 19 17 16 16 15 13 11 10 9 8 8 7 7 7 7 7 7 7 7 6 6 7 5 6 8 10 11 13 15 15
11 15 36 18 19 17 16 20 20 20 21 20 19 20 19 16 16 13 11 11 10 9 9 9 8 8 8 8 8 8 7 7 7 8 6 5 8 7 10 13 13 19 18
11 16 21 26 25 22 18 15 14 15 17 16 16 17 18 17 16 14 12 10 10 9 9 9 9 9 9 9 9 9 8 4 4 8 8 7 7 8 10 11 13 15 13
14 16 31 26 25 23 22 17 13 14 15 16 16 16 18 15 15 14 11 10 11 11 10 10 11 11 10 10 10 10 8 7 11 9 7 6 6 7 7 10 10 10 13
23 30 28 28 22 24 25 23 18 15 15 18 16 15 16 14 13 12 11 9 10 10 9 7 10 10 11 11 6 8 10 13 13 5 4 4 4 5 7 8 8 8 10
26 29 31 31 22 19 19 20 16 16 17 15 18 18 15 14 14 13 13 14 15 16 13 8 9 10 13 11 8 5 3 10 8 4 3 3 5 8 7 7 7 7 6
23 29 29 28 16 13 16 15 11 10 7 15 16 16 15 13 12 13 12 12 13 13 16 16 19 12 11 6 10 5 2 2 4 2 3 4 6 7 7 6 7 8 5
15 13 20 29 20 21 13 14 15 8 3 8 12 13 10 10 8 13 13 14 13 12 10 12 13 8 15 9 9 8 6 4 1 2 3 7 6 8 7 7 6 7 6
7 12 7 12 16 19 17 10 7 4 14 13 13 14 11 8 21 18 15 17 14 18 16 14 15 11 18 22 15 7 6 6 11 7 4 5 6 7 7 7 9 8 7
10 7 11 11 18 15 12 14 18 19 21 21 22 22 24 23 19 15 18 23 21 19 17 18 22 19 22 24 20 15 12 5 9 7 5 6 6 8 10 9 8 7 7

GFSSE_925_spd_096.txt.gz
Wind_Speed
29 29 26 23 21 21 20 20 19 18 18 19 18 18 17 18 17 17 18 19 18 16 18 18 17 19 20 18 17 16 17 18 18 18 18 18 18 18 20 13 14 16 15
33 30 28 24 21 20 19 19 19 19 19 20 19 19 18 18 17 18 17 19 18 19 18 18 17 18 17 16 16 16 18 18 19 18 16 16 17 17 19 18 18 16 15
31 30 30 24 21 20 19 18 18 20 19 21 20 20 19 19 19 18 18 19 20 21 18 18 18 17 16 15 15 15 19 18 14 14 15 13 15 15 16 18 18 15 16
30 29 27 25 21 20 18 16 17 20 21 22 22 21 21 19 19 19 20 19 20 20 18 17 17 14 14 15 16 19 18 16 14 15 14 10 12 14 13 14 15 16 16
30 28 25 25 22 19 18 17 17 21 23 23 23 23 23 20 20 20 23 20 19 19 19 18 15 15 15 15 17 20 18 16 15 13 14 11 12 12 12 12 11 11 13
29 28 27 25 21 19 18 16 19 22 22 24 24 24 23 21 21 23 22 20 17 17 17 17 15 14 15 15 16 17 16 15 15 13 9 8 13 12 12 12 12 11 10
24 27 26 26 22 19 18 17 19 23 23 24 24 25 25 23 22 25 21 20 19 17 15 16 15 14 14 14 15 15 15 15 12 10 7 9 12 11 11 11 11 11 10
21 27 27 26 23 20 20 18 17 22 24 24 24 25 25 24 23 24 21 20 18 17 17 15 13 12 12 11 11 12 13 12 11 7 4 8 10 10 10 11 11 10 10
20 23 23 27 23 20 22 20 17 20 23 24 25 27 27 25 24 24 22 20 18 16 15 14 12 10 9 9 8 9 9 8 11 5 4 6 8 8 8 9 9 9 9
21 21 23 21 21 21 21 21 19 16 21 25 28 29 27 25 25 24 22 20 17 16 15 14 11 10 8 7 7 7 9 8 7 6 2 2 6 6 6 6 7 6 7
17 15 18 15 16 18 20 22 20 18 22 28 30 29 27 24 24 23 22 20 17 16 15 12 10 8 7 5 4 5 6 5 4 3 4 1 2 3 4 4 4 5 6
21 14 8 8 4 15 21 22 22 22 25 29 30 28 25 24 23 22 21 20 17 15 13 11 9 7 5 4 1 1 4 4 2 2 2 2 2 2 0 2 3 4 5
19 17 18 18 20 13 21 26 22 26 24 25 27 24 21 24 24 24 22 19 17 16 13 11 8 7 5 5 6 1 1 2 4 4 3 3 3 2 2 2 4 4 5
21 17 28 33 26 31 20 31 25 28 28 26 24 24 24 25 25 22 23 21 17 15 11 8 6 5 4 7 6 4 6 2 2 6 5 2 2 2 2 3 4 6 8
20 22 23 29 33 22 37 35 31 29 30 29 27 26 28 27 25 21 19 19 15 13 13 10 10 9 8 8 6 7 5 7 5 7 5 5 3 3 4 4 6 7 9
25 14 17 26 24 26 32 35 34 31 29 30 29 28 28 25 25 23 22 20 17 15 13 12 10 10 9 8 9 8 8 7 6 5 6 7 6 3 4 6 7 8 9
18 13 17 17 25 26 22 36 34 32 31 28 25 25 24 24 24 22 21 19 17 14 13 11 10 9 9 9 10 8 9 9 7 8 10 7 3 4 7 5 7 8 12
19 23 17 26 29 16 14 21 33 30 29 30 26 24 24 24 24 23 21 19 17 14 13 12 11 10 10 9 9 10 9 9 8 8 7 7 6 6 1 4 8 11 13
21 21 24 31 42 30 20 24 28 29 27 29 28 27 24 24 24 23 21 18 17 16 13 12 10 10 11 11 10 11 12 13 9 7 7 9 6 4 3 8 8 9 9
23 24 29 27 32 32 23 25 22 23 24 23 24 26 25 23 22 20 18 16 16 14 12 12 12 11 11 9 11 13 13 11 10 11 11 3 0 4 7 6 6 6 7
11 23 28 31 28 36 31 29 25 21 18 20 22 20 23 21 20 19 16 15 14 14 14 13 15 12 11 12 11 11 9 13 15 16 7 4 2 3 3 5 5 6 8
17 22 27 32 27 27 30 26 24 23 19 19 21 18 23 20 20 19 18 18 18 17 16 16 10 10 6 4 5 4 2 8 16 11 7 5 6 7 5 5 6 7 6
21 22 19 20 21 18 22 23 18 19 14 13 18 17 16 14 16 16 13 14 15 17 18 17 17 14 11 8 9 5 2 3 2 3 6 10 8 6 6 7 5 6 8
20 24 20 19 15 12 12 16 15 14 8 5 11 13 6 6 8 8 6 8 8 13 14 17 19 21 17 12 9 16 11 4 2 1 1 5 9 15 13 7 5 3 6
12 22 23 22 13 10 9 11 7 8 12 8 8 12 10 12 11 11 12 10 14 12 14 15 19 21 16 11 12 12 13 9 7 2 3 6 8 10 7 10 10 7 6
19 20 14 13 14 10 11 9 10 11 8 8 7 7 12 14 17 18 15 20 22 16 19 23 27 26 21 14 19 21 16 8 8 6 3 5 6 5 7 8 8 7 9

GFSSE_925_spd_099.txt.gz
Wind_Speed
29 34 31 30 25 23 23 24 22 20 20 19 18 17 17 17 17 18 19 20 19 16 18 20 22 21 20 18 18 18 18 19 17 17 18 18 20 18 16 17 19 17 15
35 36 32 30 28 24 23 23 23 22 21 20 21 19 19 18 18 19 20 19 16 19 18 20 21 18 19 18 20 20 21 20 19 17 16 19 19 19 18 18 18 18 16
34 33 30 29 28 26 23 22 23 22 22 22 21 21 19 19 18 19 18 18 18 19 18 19 18 17 18 19 21 21 19 16 14 16 14 15 17 16 17 19 17 19 18
32 32 30 26 26 25 23 21 22 21 22 23 21 22 21 21 19 19 19 22 19 19 18 17 16 16 18 20 23 19 17 15 12 14 12 13 15 14 14 15 15 15 17
30 32 29 27 25 24 23 21 21 22 21 23 22 22 22 23 22 21 21 22 19 19 16 14 14 15 18 21 21 18 18 18 16 13 11 12 13 13 12 11 12 13 14
28 30 28 25 22 22 21 20 20 23 22 23 23 23 23 24 23 24 23 23 21 20 16 13 13 15 17 20 18 17 16 15 12 10 10 13 14 12 12 12 12 12 11
28 28 27 25 22 20 18 18 19 24 23 24 25 24 25 24 25 26 24 20 21 19 17 14 14 15 15 17 16 14 15 13 11 9 10 12 13 12 12 12 11 11 11
27 25 26 25 22 20 18 18 20 23 24 24 25 25 26 25 28 26 24 19 20 17 17 15 15 14 14 15 15 14 14 13 9 7 8 10 11 10 10 11 11 11 11
26 27 26 24 22 20 18 17 18 22 24 25 25 26 27 25 29 25 24 22 21 19 18 16 14 13 12 12 13 12 11 11 8 5 8 8 9 8 9 9 10 10 10
28 28 28 26 22 21 21 17 16 20 22 23 24 27 28 26 28 25 24 23 21 20 18 16 14 13 11 10 10 11 11 11 7 5 4 5 6 6 7 7 7 8 8
24 26 25 26 23 21 21 19 16 17 21 23 26 29 30 30 28 27 25 23 21 21 19 16 14 12 10 9 8 10 9 8 7 5 2 2 2 4 4 5 5 5 6
26 25 27 27 24 22 19 18 18 16 22 27 31 32 32 31 29 27 25 23 20 19 18 16 13 11 9 8 6 7 8 7 6 4 3 1 1 2 2 3 3 2 3
32 28 26 29 25 20 18 18 17 17 25 31 34 34 31 32 30 27 28 25 21 19 18 16 14 11 10 8 6 7 5 5 6 5 3 1 2 3 3 2 1 2 3
30 31 29 30 26 22 15 19 12 21 25 33 36 34 33 32 31 31 29 27 23 21 18 15 12 11 9 6 8 5 7 4 8 9 4 3 2 3 3 3 3 5 6
29 30 28 29 32 29 18 15 0 19 27 31 37 31 29 33 35 32 31 27 25 22 18 15 13 12 10 8 10 9 8 6 7 8 6 4 3 2 3 5 5 5 7
18 23 22 22 30 35 36 31 21 14 27 30 32 26 29 34 34 33 30 29 25 23 19 14 13 10 13 10 11 10 11 10 11 8 7 8 6 4 3 3 4 6 7
23 20 20 21 25 28 36 32 27 13 27 33 35 37 35 34 33 29 28 29 25 21 17 16 15 14 12 12 11 12 11 10 9 11 9 8 7 6 5 6 6 7 10
17 17 22 23 25 25 29 36 24 28 33 34 39 37 38 37 33 28 28 27 24 22 22 20 17 15 13 11 11 10 11 10 12 9 10 11 10 8 7 7 7 8 10
14 16 21 23 26 25 29 29 33 39 36 34 34 35 35 33 31 28 29 27 26 23 22 20 18 16 14 12 10 9 12 13 14 11 10 8 13 9 9 6 7 8 8
9 16 24 26 26 30 30 32 38 32 33 34 34 32 30 31 31 30 27 26 25 24 22 20 18 16 15 13 13 12 12 13 13 11 12 6 12 10 6 5 7 7 8
20 4 23 25 25 30 28 31 24 28 28 36 38 35 30 29 29 29 27 26 25 26 22 20 19 17 16 13 9 6 10 10 15 16 13 14 12 7 4 6 7 7 8
10 20 20 23 23 24 23 22 29 27 25 31 31 35 33 30 30 29 26 23 25 22 20 20 21 17 12 17 7 4 1 5 16 16 13 15 12 8 5 5 7 7 7
20 29 28 30 32 30 29 27 27 19 16 22 20 22 27 31 30 29 25 23 21 21 21 20 16 14 11 13 14 6 2 5 3 9 15 14 13 11 8 9 9 7 8
22 22 23 31 30 33 32 31 31 26 19 19 25 26 18 22 21 19 19 19 17 16 20 19 16 17 17 19 15 19 14 5 2 2 8 13 11 9 10 11 9 8 9
19 18 17 18 25 25 32 31 33 26 25 24 19 21 20 18 16 12 9 10 11 14 14 14 16 19 21 22 16 7 11 7 6 1 2 6 10 12 10 11 10 10 9
7 23 24 20 22 23 26 28 27 22 18 21 19 14 9 12 15 17 14 13 14 19 18 14 14 18 19 21 17 18 16 8 11 7 3 3 5 5 10 10 11 10 9

GFSSE_925_spd_102.txt.gz
Wind_Speed
20 34 31 28 29 29 29 26 24 23 21 20 19 19 20 19 17 19 21 21 19 15 16 20 19 19 18 19 18 18 20 18 18 18 20 20 17 16 17 17 16 16 16
29 32 30 28 27 29 27 28 25 23 21 19 19 18 20 20 20 21 22 20 17 18 20 20 18 17 17 19 19 18 19 19 17 17 19 20 19 16 16 17 18 18 17
34 31 29 27 28 28 28 27 25 24 22 21 19 20 20 20 21 22 20 17 19 20 20 18 18 17 17 18 18 18 16 16 17 15 16 17 17 17 16 16 19 19 18
35 31 28 26 26 26 28 26 25 24 24 22 21 20 20 20 21 20 20 20 20 20 18 17 16 17 19 20 17 13 11 12 12 13 14 16 16 13 15 15 15 16 16
34 34 29 26 26 25 25 25 23 23 23 23 22 20 21 21 21 20 22 23 21 21 17 16 17 19 21 19 18 17 16 15 13 11 12 13 13 12 12 12 13 13 13
35 35 32 29 26 24 22 23 24 22 23 24 23 21 22 22 21 24 24 22 21 18 17 16 17 20 20 19 17 15 15 13 11 11 13 13 13 12 12 12 12 12 11
36 35 32 28 25 24 22 20 22 23 22 24 23 22 23 24 22 25 23 22 22 17 16 16 18 20 20 17 16 13 13 12 10 11 12 13 12 12 12 11 12 11 11
34 35 33 28 26 23 21 20 20 25 24 24 24 24 24 25 26 24 24 22 24 19 17 17 18 18 18 16 15 13 13 11 10 10 10 11 11 10 11 11 11 10 10
29 31 33 30 26 22 19 18 19 24 25 26 26 25 25 25 27 26 24 21 23 19 18 18 17 17 17 16 14 13 10 10 8 9 9 9 10 9 9 9 9 9 8
27 28 28 27 25 25 22 18 20 20 24 25 26 26 26 26 29 27 20 21 20 18 18 17 16 15 15 14 13 12 11 10 7 7 7 7 7 7 7 6 6 6 6
22 27 27 26 24 23 22 21 19 21 24 24 25 26 28 27 29 26 23 24 20 19 17 17 15 14 13 13 13 13 11 8 8 7 4 4 4 5 5 5 4 4 4
21 25 27 27 25 22 21 21 19 21 24 24 26 28 29 30 30 28 24 25 23 21 20 17 15 14 13 13 13 14 11 8 8 8 5 3 4 5 4 4 3 2 1
24 26 25 30 30 26 22 20 19 19 24 26 28 32 33 35 30 29 26 25 24 22 21 19 17 15 13 12 12 13 10 8 8 8 5 3 4 5 5 5 4 2 2
20 26 26 26 31 30 25 22 19 18 22 29 30 34 34 35 32 33 31 30 26 25 23 20 18 16 15 13 11 11 9 9 9 9 7 5 3 5 5 6 5 4 5
19 23 27 29 28 29 30 27 23 19 22 28 34 36 37 37 36 33 32 30 29 26 24 21 18 16 15 12 12 12 9 9 11 10 10 7 6 4 5 6 6 6 7
17 24 27 26 27 30 29 31 27 24 20 24 31 35 36 37 33 34 31 32 29 27 25 21 19 17 15 12 12 12 10 12 12 12 15 10 9 8 5 5 6 6 7
17 20 24 28 26 25 27 29 25 27 29 22 25 27 38 33 34 37 35 32 33 28 25 21 20 17 16 15 14 15 13 14 13 12 13 15 13 13 9 8 9 9 8
20 18 23 23 25 27 31 30 31 31 28 24 26 32 27 24 29 32 38 35 35 30 28 25 21 19 18 17 17 15 15 14 14 12 13 15 16 14 12 11 11 10 9
26 23 22 23 26 28 29 30 30 35 35 36 29 32 34 35 31 30 35 40 34 33 30 26 23 22 20 17 15 15 15 16 15 15 15 13 12 16 17 14 10 8 7
26 26 21 20 23 25 28 28 30 30 34 35 39 39 34 33 38 40 37 32 36 32 29 26 24 20 19 18 16 15 15 14 16 17 17 14 14 18 16 13 10 7 8
29 22 21 20 22 23 25 25 28 31 33 37 37 40 39 40 43 44 40 36 34 31 30 27 23 20 18 16 14 14 15 15 19 21 18 19 16 16 16 13 10 7 9
25 19 16 17 22 26 26 27 27 31 30 33 34 33 35 40 42 41 39 35 33 32 28 26 23 19 19 16 8 3 2 7 18 24 20 18 21 19 17 14 10 8 8
27 27 23 18 14 19 25 33 26 25 21 24 28 33 34 36 38 37 35 33 31 32 31 27 26 23 19 18 16 5 1 4 2 8 18 18 22 19 15 13 11 10 8
29 27 17 15 16 19 26 26 27 22 13 19 24 29 31 32 32 32 32 31 28 29 29 28 26 27 25 19 14 22 16 7 4 2 5 14 16 16 14 13 11 10 8
19 22 17 15 20 32 30 24 28 22 13 24 18 19 18 21 24 29 27 24 22 19 18 20 18 18 21 20 19 10 15 12 10 4 4 6 11 12 12 12 12 11 9
14 19 20 23 32 37 31 26 26 23 21 21 21 18 17 15 17 20 23 17 14 14 15 13 15 20 24 25 24 23 16 6 9 6 3 4 6 6 8 11 12 10 10

GFSSE_925_spd_105.txt.gz
Wind_Speed
19 30 28 24 25 26 27 25 23 22 22 22 22 21 20 19 18 19 20 20 19 16 19 19 17 17 16 16 18 17 15 15 16 18 14 15 16 15 13 16 15 16 15
24 32 28 25 24 26 25 24 24 23 22 21 21 20 19 18 19 21 21 20 17 19 20 19 18 16 16 16 16 16 16 16 17 17 17 17 16 16 17 16 15 16 16
25 32 28 25 25 27 24 24 24 23 21 20 21 19 19 18 20 21 20 18 19 22 19 19 18 17 16 16 16 16 15 16 15 15 16 17 17 14 15 18 18 17 17
30 34 31 27 26 25 25 24 23 22 21 20 19 19 19 19 20 21 18 19 22 21 19 19 19 18 16 15 13 12 14 14 13 12 14 15 15 14 13 14 14 14 15
33 34 32 29 27 26 25 24 23 22 21 21 21 20 20 21 20 20 20 20 22 20 19 19 19 19 17 14 12 12 12 11 11 11 12 11 12 11 11 11 12 11 12
32 33 32 31 30 29 26 24 23 22 21 21 22 20 21 21 21 21 23 22 21 17 19 19 21 21 18 15 12 13 13 11 10 12 12 12 12 10 10 11 10 10 9
30 31 32 31 29 28 28 24 22 22 21 21 21 21 22 21 22 22 23 21 20 17 17 20 22 21 18 14 12 12 12 10 10 11 12 12 11 10 10 9 10 9 9
28 28 28 28 28 27 26 26 24 23 22 22 21 20 22 22 24 25 22 20 19 17 17 19 21 21 17 14 13 13 11 10 10 10 10 11 10 9 9 9 9 8 8
22 25 26 27 27 26 25 24 24 25 23 23 23 21 22 22 24 24 23 21 19 18 18 20 20 20 17 14 12 12 11 9 9 9 9 9 9 7 7 7 7 6 7
20 23 24 25 26 25 25 23 23 25 24 24 24 23 23 23 24 26 25 24 22 18 19 19 19 18 17 15 12 10 10 9 8 7 7 7 7 7 5 5 4 5 5
17 23 23 26 26 25 23 21 21 22 25 24 24 24 24 24 26 26 25 23 24 19 19 19 18 17 15 14 12 10 10 8 8 7 6 6 6 6 5 4 3 2 2
13 23 25 27 27 24 23 21 21 21 24 24 25 25 26 26 28 28 23 23 22 20 19 18 17 16 15 15 15 13 10 8 8 7 6 5 5 5 5 4 3 1 1
15 18 25 26 26 26 26 22 20 20 22 25 26 27 28 27 30 27 25 24 23 22 20 19 17 17 16 15 15 14 12 9 9 8 7 6 6 7 6 5 4 3 3
15 17 23 24 26 27 26 25 23 20 23 25 26 29 31 30 33 28 28 29 26 27 25 22 20 17 16 14 14 14 13 11 10 10 8 8 6 7 7 6 6 5 5
15 14 19 22 22 28 29 27 24 24 24 26 26 29 33 33 36 33 31 31 28 27 26 25 22 19 17 16 14 15 14 12 13 13 12 10 8 6 6 7 7 8 7
18 16 19 22 22 24 28 29 29 27 26 27 28 30 33 34 38 35 32 32 30 29 26 25 23 21 19 17 16 16 15 14 13 14 14 14 13 10 8 7 7 8 8
23 19 18 26 25 24 26 30 27 26 26 27 30 34 34 35 39 36 33 33 32 30 27 24 21 19 19 18 17 17 16 15 15 15 16 18 19 16 15 12 10 9 9
25 22 19 25 29 26 26 27 27 28 28 26 28 33 37 36 33 34 35 28 31 30 29 26 24 22 21 20 19 18 18 16 16 17 15 17 19 20 19 16 13 12 11
26 25 24 25 31 32 30 26 23 23 29 27 26 28 32 36 32 30 19 24 27 29 30 28 26 24 22 20 20 18 18 18 18 19 19 18 16 17 19 20 18 14 12
33 27 28 28 31 32 31 29 31 35 33 28 28 29 33 36 37 28 21 32 24 33 30 30 30 25 24 22 19 18 17 18 20 21 21 21 20 18 17 21 19 16 11
33 28 27 29 29 29 27 25 23 25 30 34 37 42 37 43 40 35 31 33 31 33 34 34 31 27 24 20 16 16 17 18 20 20 20 22 21 19 19 21 21 15 11
32 31 30 30 25 25 24 27 22 25 29 32 30 31 34 35 39 37 39 32 39 32 32 34 35 26 25 20 9 3 1 6 18 20 22 22 20 19 19 19 18 16 12
27 29 31 30 28 26 22 22 24 24 26 24 28 33 35 35 38 38 39 39 39 31 36 39 35 30 25 23 19 6 2 4 1 11 24 26 26 23 22 20 18 16 14
28 31 32 30 25 25 25 27 25 23 21 24 29 31 32 38 40 40 41 42 35 38 39 37 37 34 27 23 19 21 15 4 3 3 5 11 16 19 21 19 19 17 14
28 29 35 31 28 26 27 27 27 25 19 18 21 24 27 30 37 40 41 38 34 40 34 37 37 32 31 22 16 8 19 13 11 5 3 3 12 17 19 17 17 15 14
30 30 32 33 30 31 31 29 27 24 22 16 18 19 17 18 24 30 30 31 31 31 32 33 30 25 19 15 20 22 19 8 9 7 3 6 6 11 17 17 18 16 14

GFSSE_925_spd_108.txt.gz
Wind_Speed
14 29 30 26 25 23 22 22 22 23 24 23 22 21 19 17 17 17 18 18 17 21 18 18 16 17 17 17 16 14 13 15 15 13 15 16 13 13 14 14 15 15 14
18 29 28 26 25 23 22 21 22 22 22 21 21 19 18 17 18 18 18 18 17 19 19 18 17 16 17 18 15 15 15 16 17 17 17 16 16 16 15 15 16 15 15
21 29 27 25 25 24 23 22 21 20 20 20 20 18 18 18 19 20 19 16 20 20 19 18 18 17 17 16 15 15 15 16 16 17 17 15 14 16 17 17 18 18 15
22 29 28 26 25 26 24 22 20 19 19 19 19 19 18 19 20 21 17 19 21 19 19 19 19 19 17 16 15 14 14 14 14 14 15 16 13 12 13 13 13 13 13
19 26 27 25 25 25 26 23 21 20 19 18 17 17 19 20 21 19 19 21 21 20 20 20 19 18 17 15 12 12 11 12 12 12 12 11 13 11 10 11 11 10 10
19 25 26 24 24 25 24 24 24 22 20 19 18 18 18 19 21 18 20 23 21 20 19 19 19 18 16 15 14 14 11 11 11 11 11 11 11 9 9 9 9 9 8
20 24 25 25 24 24 24 24 24 23 21 20 20 19 18 19 21 19 21 22 18 18 19 20 19 17 16 14 14 14 12 10 11 11 11 11 11 9 9 9 9 9 9
19 22 23 23 25 26 25 25 24 23 22 22 21 19 20 20 18 22 23 21 18 17 18 20 20 17 14 13 13 13 11 10 10 10 10 10 10 8 8 8 8 8 8
14 19 22 22 22 24 25 25 24 23 22 23 21 20 20 18 20 23 22 21 19 18 19 21 20 18 14 12 13 12 10 9 9 9 9 9 8 7 7 6 7 6 6
9 17 22 22 22 22 23 24 23 23 24 24 22 21 20 19 20 22 20 20 20 19 21 21 21 18 15 14 12 11 10 9 8 8 8 7 7 6 5 5 5 4 5
11 14 21 24 24 24 24 23 23 24 24 24 24 23 21 22 22 22 21 20 19 19 21 22 22 19 16 14 12 11 10 9 8 7 6 6 6 5 4 3 3 2 2
21 16 19 24 27 26 25 24 23 23 24 24 25 24 24 24 25 25 24 21 20 18 20 21 21 20 18 15 13 12 11 9 8 7 6 5 6 6 4 3 3 2 0
23 21 15 21 24 28 25 26 24 23 24 25 25 25 25 26 26 27 25 23 22 20 19 20 20 20 19 17 15 14 12 11 9 9 8 7 6 7 6 5 4 3 3
24 22 18 17 20 25 27 26 25 24 24 26 25 26 26 28 28 29 28 24 24 23 22 21 20 19 19 17 16 16 14 12 10 9 9 8 7 7 9 7 6 6 5
26 23 19 16 22 21 25 28 27 27 27 27 27 27 28 30 31 30 29 27 25 25 23 21 19 19 18 17 16 16 16 14 12 11 12 10 10 8 8 8 8 7 7
28 26 21 18 18 24 23 28 30 28 28 29 29 29 29 31 31 33 32 31 29 26 23 21 20 18 17 16 16 15 15 15 13 13 14 14 13 12 11 11 9 8 8
30 28 24 20 19 22 25 28 29 30 27 25 29 30 30 32 32 35 33 33 31 29 26 24 22 19 18 18 19 17 17 17 16 16 15 15 16 17 16 14 12 10 9
32 30 26 23 20 24 27 28 31 29 26 26 27 30 31 34 34 33 33 33 31 29 26 25 23 21 19 20 20 18 18 18 18 18 18 18 19 19 20 19 17 14 13
34 35 30 24 23 24 29 27 30 28 27 23 24 26 30 34 36 34 33 29 29 26 22 26 22 22 20 23 22 20 19 20 21 20 20 19 17 17 18 19 20 18 16
33 34 30 25 25 25 29 28 26 25 26 25 23 24 24 29 32 35 34 32 25 19 22 26 22 24 24 23 23 23 22 22 22 22 20 19 19 19 18 17 19 20 18
31 35 33 28 26 27 27 26 22 21 25 26 27 27 26 26 30 32 33 33 29 34 34 25 22 24 29 24 21 23 24 23 23 24 22 21 21 21 20 19 18 22 19
32 32 36 30 28 31 31 32 24 27 32 33 29 30 29 27 30 32 34 34 34 40 36 33 26 23 27 24 16 6 3 10 24 26 23 24 24 20 21 20 20 21 20
30 33 33 32 30 30 32 31 27 16 17 17 24 32 36 36 34 34 36 38 34 38 38 37 34 31 25 22 28 9 2 4 1 11 22 24 22 22 21 19 20 20 19
30 32 32 30 29 27 29 25 24 21 20 22 25 25 28 31 34 37 39 40 41 41 36 39 37 36 29 23 24 30 18 5 3 2 3 8 13 19 19 20 20 19 18
22 27 27 28 32 34 29 28 25 23 21 22 24 26 28 30 32 39 39 40 41 43 39 35 36 37 36 29 27 22 28 15 8 2 3 4 6 11 15 20 20 19 19
21 24 24 27 29 30 26 28 25 20 21 22 21 23 25 29 31 36 40 37 39 37 37 39 35 36 37 37 33 29 19 6 6 7 4 8 8 11 17 19 22 22 21

GFSSE_925_spd_111.txt.gz
Wind_Speed
11 20 24 24 23 24 23 21 20 20 22 23 20 19 17 15 16 18 18 18 21 18 16 16 16 16 18 17 15 13 16 14 14 16 16 13 13 14 14 14 15 13 14
7 23 25 24 23 22 21 21 21 22 23 20 20 19 17 16 17 17 17 17 20 16 16 15 16 18 18 15 14 15 15 15 17 17 16 16 15 14 15 15 16 14 14
9 23 24 24 23 22 21 21 20 22 21 20 18 17 16 15 17 17 18 17 19 18 17 17 15 17 17 17 17 16 15 16 17 17 17 15 15 17 17 16 15 14 14
11 18 21 23 24 23 21 20 20 19 19 18 18 16 16 16 17 19 17 18 21 18 18 17 17 16 15 16 16 16 16 15 16 15 12 12 12 13 13 13 14 12 12
12 21 21 22 23 23 22 22 20 19 18 18 17 17 17 17 18 18 17 19 20 19 20 18 18 16 15 15 15 15 15 14 13 13 12 11 11 10 10 11 10 10 10
11 20 22 20 22 23 23 21 20 20 19 17 17 16 17 18 18 16 18 22 20 21 21 18 17 16 14 13 13 12 12 13 12 11 10 9 9 9 9 9 9 9 9
9 18 20 20 20 23 23 23 21 21 20 20 18 17 17 19 19 17 20 23 18 21 20 18 17 15 14 13 13 12 11 11 11 11 11 10 8 9 8 9 9 9 9
5 15 19 19 19 21 23 23 24 22 21 20 19 19 18 18 21 18 21 21 15 18 18 19 18 16 14 13 13 11 10 10 10 10 10 10 9 8 8 8 8 8 8
5 10 16 20 18 18 20 22 23 23 22 21 21 20 19 20 19 20 22 20 16 16 18 19 18 16 14 13 13 11 10 10 9 9 9 7 8 7 7 6 6 6 6
14 7 14 18 19 20 20 20 22 23 22 22 21 20 19 19 19 21 23 21 18 16 17 19 18 16 14 13 13 11 9 9 8 8 8 7 7 5 4 5 5 5 5
17 14 9 17 20 21 21 22 21 22 22 22 22 20 19 19 20 20 22 21 19 18 18 19 18 16 14 13 12 12 9 9 8 7 7 7 7 5 4 3 3 3 3
22 18 14 12 20 23 23 23 23 22 21 21 21 22 20 20 20 22 22 20 18 18 18 19 19 16 14 13 13 12 11 10 9 7 7 6 6 6 5 4 3 2 0
25 21 16 15 16 22 27 24 24 24 24 24 22 22 23 22 21 22 20 21 18 18 17 18 18 16 17 15 13 12 11 10 9 9 8 7 7 8 8 6 5 4 3
28 25 19 15 13 20 25 28 28 26 26 26 25 25 25 25 24 23 20 19 18 19 20 21 20 18 17 15 14 13 12 11 10 10 10 9 8 8 9 8 7 6 5
26 28 23 18 16 15 19 26 27 27 27 27 29 29 28 27 26 26 23 23 20 21 21 20 19 18 17 15 15 15 15 14 13 12 11 11 11 10 9 10 9 8 7
29 30 26 22 19 16 19 22 26 28 28 29 29 31 30 31 28 29 26 25 24 23 23 21 19 17 16 15 14 15 15 16 15 14 14 14 13 12 11 11 9 9 9
31 28 29 25 23 20 19 24 24 28 27 29 29 30 30 31 31 31 29 28 28 26 23 21 19 19 16 16 17 16 16 16 18 17 16 16 15 16 14 14 13 11 11
27 30 30 27 27 24 20 23 25 26 29 28 27 29 31 31 31 31 32 34 32 28 24 22 21 19 19 18 18 18 19 18 19 20 19 17 17 17 18 19 19 17 15
27 27 30 29 28 26 23 23 25 25 26 28 27 27 31 31 32 32 32 34 34 31 28 24 23 21 19 18 19 17 20 20 20 21 22 21 21 20 19 19 20 22 21
29 27 30 31 29 25 21 21 24 24 26 26 27 26 27 29 30 30 30 32 32 31 29 25 24 21 20 20 20 16 21 24 24 24 24 22 22 22 22 21 19 22 24
28 28 31 31 30 27 20 20 22 23 28 27 26 22 23 23 26 31 31 28 30 32 34 29 30 25 25 19 15 15 22 28 29 27 25 25 24 24 23 23 22 21 21
28 31 30 31 28 29 25 21 19 24 23 27 28 25 24 24 26 27 30 29 31 30 28 35 35 25 26 31 15 6 3 12 21 27 29 27 26 24 23 22 22 21 21
25 31 32 32 29 29 28 24 23 22 16 18 22 26 29 27 26 27 31 32 32 35 33 35 35 30 25 24 22 9 2 7 3 10 23 29 26 23 23 21 20 20 22
26 30 33 33 28 26 28 23 24 24 18 20 27 31 31 31 31 31 31 31 33 37 33 36 35 33 29 23 20 28 26 13 3 3 4 8 16 16 18 19 21 22 23
21 24 26 28 24 23 24 24 24 22 21 20 22 22 24 26 27 31 33 32 34 34 39 38 35 35 32 27 23 13 24 20 15 4 3 3 5 9 14 16 19 23 25
18 22 21 22 24 27 25 27 23 21 18 16 17 19 23 25 27 28 32 33 34 34 36 38 38 33 34 33 24 25 23 12 17 13 8 9 8 20 22 22 22 23 26

GFSSE_925_spd_114.txt.gz
Wind_Speed
2 9 19 20 20 22 20 17 18 20 18 17 16 15 15 13 14 16 15 16 17 14 13 13 14 12 14 13 11 13 13 13 13 13 13 13 12 12 12 15 13 12 14
10 11 20 20 21 21 20 18 17 19 19 19 17 16 15 14 15 16 15 16 15 13 14 13 12 14 13 12 12 13 12 13 14 14 14 13 13 13 14 15 12 12 13
9 13 19 21 21 21 20 19 18 19 20 18 17 16 15 14 15 15 16 19 16 14 12 15 15 14 11 11 12 11 12 15 15 17 15 12 12 13 12 13 13 12 13
4 12 19 21 21 22 21 19 19 19 19 18 16 15 15 14 15 16 16 19 16 17 15 13 15 14 12 12 11 11 12 14 14 13 10 10 11 12 12 12 11 10 9
3 11 17 20 22 21 22 20 19 20 19 18 16 15 14 15 15 16 15 17 18 14 16 16 15 13 13 12 11 10 11 12 12 10 8 8 8 8 9 9 8 8 8
4 10 14 19 21 22 22 21 21 20 18 18 18 17 16 15 16 15 14 18 19 17 17 16 14 14 13 12 11 9 9 10 9 6 6 8 6 7 7 8 8 8 8
5 6 12 18 20 22 23 22 21 20 19 18 18 16 16 17 17 14 15 20 19 18 16 15 14 13 12 11 10 8 9 9 5 5 6 6 6 7 7 7 7 7 7
6 6 11 15 17 19 22 22 21 20 20 18 18 16 16 17 18 17 19 21 17 18 16 15 14 12 11 11 11 9 8 9 6 6 6 6 6 7 6 6 6 6 6
12 3 7 12 14 16 19 20 21 21 21 21 19 17 17 17 19 18 20 22 16 17 17 16 14 11 10 10 10 8 8 8 5 5 5 5 7 6 5 5 5 5 5
11 10 5 7 12 14 16 19 21 22 21 20 19 18 17 16 17 17 19 21 16 16 17 18 16 12 9 10 9 7 7 7 4 5 4 4 7 5 4 4 3 3 3
10 9 9 5 10 15 15 16 20 21 20 19 18 18 15 14 16 17 19 22 18 16 17 18 16 14 11 10 10 8 6 5 5 5 4 7 7 5 5 4 3 3 2
15 11 8 7 9 12 15 16 16 17 17 17 17 16 16 16 16 16 18 20 19 16 17 18 17 15 12 9 9 10 7 6 6 5 5 7 7 7 6 5 4 4 3
19 18 13 10 8 12 15 15 17 18 17 18 18 18 17 16 15 16 15 20 16 16 14 16 16 14 13 11 10 9 9 8 7 6 7 8 8 8 8 7 7 6 5
21 21 19 15 12 10 15 16 18 19 18 18 18 19 18 18 17 17 16 17 17 16 16 16 15 15 13 12 11 10 9 9 8 7 8 10 10 9 9 10 9 9 8
24 24 20 17 15 12 12 18 22 22 22 20 19 21 22 21 20 20 19 18 18 16 17 17 16 15 14 13 12 12 11 11 10 9 8 11 12 12 10 11 12 11 10
23 25 23 20 18 15 14 16 23 23 23 22 21 22 23 23 22 21 22 21 20 17 17 18 18 17 16 14 13 12 12 12 12 12 11 10 13 14 13 13 13 13 13
24 22 23 21 20 19 18 16 19 27 22 21 22 21 23 25 23 22 22 22 21 19 18 18 16 15 15 14 13 13 13 13 13 13 13 12 12 16 17 16 16 15 14
25 22 21 20 20 20 20 17 19 22 21 22 22 21 24 28 24 24 22 22 20 19 19 19 18 16 15 13 12 13 13 13 13 14 15 15 14 14 15 19 20 20 19
24 23 21 19 20 22 21 20 18 23 23 24 23 24 24 28 28 28 25 23 22 20 20 26 21 18 18 16 13 13 15 15 15 15 16 17 17 17 17 18 21 23 23
24 24 24 21 19 20 22 20 18 19 25 23 20 20 24 27 26 22 21 24 21 22 20 24 26 23 19 19 16 15 16 15 15 16 17 16 18 18 18 18 17 20 22
22 23 26 24 22 21 24 23 20 19 21 27 27 21 21 22 30 23 22 25 24 26 24 24 25 25 23 25 18 20 25 23 21 20 20 19 21 20 19 20 22 19 20
21 22 22 24 23 23 26 25 22 19 21 27 26 25 21 22 23 29 30 29 26 27 24 26 25 22 25 21 17 14 7 15 21 19 21 21 21 23 21 21 20 22 20
18 21 23 23 23 23 23 22 19 17 17 19 23 25 24 24 23 25 27 25 28 24 24 26 27 29 23 23 26 20 6 10 11 12 15 11 20 22 21 20 22 20 21
18 17 20 21 22 21 23 22 21 17 17 18 20 22 23 21 22 25 26 29 25 27 26 26 28 29 28 24 19 30 30 16 7 4 5 8 14 21 18 19 21 22 22
17 16 17 18 21 22 23 24 22 21 19 18 20 18 20 18 20 20 22 22 27 29 29 30 28 28 29 29 27 21 25 24 21 9 4 8 10 10 14 14 13 15 15
17 16 16 15 17 20 22 24 22 20 20 19 15 16 17 17 18 22 24 26 28 28 30 32 32 31 32 30 30 27 22 17 19 14 4 10 16 19 23 21 20 26 21

GFSSE_925_spd_117.txt.gz
Wind_Speed
9 4 12 15 16 16 15 16 16 15 14 13 13 11 10 10 11 11 12 12 12 11 10 10 11 10 10 9 9 12 13 12 11 12 13 11 12 12 14 11 10 12 14
9 4 14 16 17 17 15 15 15 16 14 14 13 12 9 10 12 12 11 13 11 11 11 10 9 12 10 9 9 9 9 11 12 12 11 13 13 12 11 11 11 12 13
10 5 16 18 17 18 16 14 14 16 15 15 13 13 11 11 12 12 11 11 11 10 11 10 12 11 10 10 8 9 10 12 14 15 9 10 11 11 13 11 13 15 15
8 7 16 18 19 18 17 15 15 16 16 15 14 13 12 11 12 12 11 12 11 11 10 13 13 10 10 10 9 9 10 13 14 10 11 11 11 12 12 12 12 10 10
9 5 13 16 17 19 18 16 16 16 17 15 13 11 12 11 12 13 11 13 13 12 10 12 11 8 10 10 9 9 10 11 10 8 8 9 8 8 9 9 8 7 9
10 1 8 14 17 18 19 18 17 17 17 15 13 12 12 11 11 13 12 15 14 11 13 10 10 8 9 9 8 7 8 10 7 5 5 7 8 7 7 6 6 8 9
11 9 4 12 16 17 18 18 17 16 16 16 14 14 13 12 12 13 12 18 16 13 13 11 10 9 8 7 5 6 7 8 4 4 5 5 7 7 7 7 7 7 8
13 9 8 10 15 17 18 18 18 17 16 16 15 15 14 13 14 13 13 19 17 13 13 12 12 10 7 7 5 4 5 7 3 4 4 5 7 7 7 6 6 6 6
12 10 9 5 11 14 16 19 19 18 17 16 16 15 14 14 15 14 14 18 17 14 13 13 11 10 9 8 8 5 5 7 4 3 4 4 7 6 5 4 4 4 4
8 10 8 5 8 12 13 18 19 19 18 19 17 15 14 14 16 15 15 18 17 14 14 14 13 11 9 9 7 5 5 7 1 3 3 4 5 5 4 3 3 2 2
9 8 9 6 7 9 13 15 19 20 20 18 17 17 15 13 14 15 15 19 19 15 15 16 14 12 10 10 9 7 6 4 4 4 4 6 6 5 4 3 3 2 0
13 11 10 8 7 8 9 13 15 16 17 17 16 15 16 15 18 17 17 21 21 16 15 16 16 14 11 8 9 10 8 6 6 5 6 7 7 6 5 5 4 4 4
16 15 13 12 10 9 11 13 16 18 16 18 19 18 17 18 17 15 16 20 20 18 14 15 15 14 12 11 10 9 9 8 7 7 8 8 8 8 7 7 7 7 7
18 17 16 14 13 12 11 14 16 16 20 20 21 21 20 20 16 15 16 19 21 18 16 16 17 16 15 14 12 11 10 8 8 7 8 9 10 10 10 10 10 10 10
22 20 19 17 16 14 14 14 18 19 21 21 20 21 20 18 17 18 18 17 19 19 19 19 18 18 17 15 14 13 12 11 10 9 8 10 11 12 12 12 12 12 12
21 20 18 19 19 17 17 16 17 21 22 23 21 23 24 23 22 21 19 20 21 21 19 19 18 18 17 16 15 14 14 13 12 11 10 10 10 13 14 14 14 14 14
22 22 21 18 20 21 20 20 18 23 23 23 24 24 23 25 21 22 22 21 23 23 21 19 19 19 19 17 16 15 15 14 13 13 13 13 12 12 17 17 16 17 16
26 26 24 20 18 20 22 21 20 19 26 22 24 22 25 25 27 19 19 18 19 21 22 20 16 14 16 17 16 16 16 15 14 14 15 14 14 14 15 17 20 19 19
26 26 26 23 21 20 22 23 23 19 23 28 22 23 22 27 30 30 23 21 20 23 22 22 19 20 19 19 16 15 16 16 17 16 17 17 17 17 16 16 18 21 23
24 25 26 25 23 20 20 23 23 22 19 26 25 23 23 23 29 30 28 28 20 19 20 20 20 19 19 19 17 16 21 19 19 20 21 19 20 20 20 22 20 21 22
21 23 24 25 24 21 20 21 23 22 19 23 29 26 24 24 25 26 29 29 25 21 23 22 21 22 19 16 16 17 16 24 25 29 22 24 23 23 22 22 23 21 22
23 22 24 25 24 24 21 20 22 22 21 21 26 32 25 26 24 24 25 28 28 28 24 25 24 22 22 21 12 14 7 15 28 28 26 25 26 23 25 24 23 24 21
26 21 22 24 23 24 23 19 19 20 17 19 22 28 31 25 25 27 27 26 26 27 30 27 27 26 19 20 26 15 5 6 8 18 28 24 26 25 22 21 23 22 26
26 24 20 21 22 21 21 21 22 19 19 20 19 22 27 30 25 26 24 26 25 27 24 26 26 26 26 22 20 27 29 23 3 5 16 19 19 22 20 22 19 20 23
26 24 21 19 19 19 19 22 22 22 20 17 19 20 23 26 28 24 26 23 22 24 25 24 24 28 28 25 24 20 22 24 27 12 8 8 16 17 17 19 16 16 15
22 21 21 19 16 16 20 21 22 22 20 19 19 19 22 24 26 24 26 25 24 27 28 29 28 28 27 27 27 25 24 16 18 16 10 14 15 17 18 14 15 14 19